[[{"header":{"parameterUnit":"m.s-1","parameterCategory":1,"la1":30.6,"la2":28.766,"lo1":-90.7593,"lo2":-88.6598,"dx":0.0162,"dy":0.0183,"nx":116,"ny":114,"refTime":"2022-12-08T18:00:00:Z","depth":0,"parameterNumber":2,"parameterNumberName":"U-component_of_WINDS"},"data":[0.0,0.0,0.0,0.0,0.0,0.0,0.0,0.0,0.0,0.0,0.0,0.0,0.0,0.0,0.0,0.0,0.0,0.0,0.0,0.0,0.0,0.0,0.0,0.0,0.0,0.0,0.0,0.0,0.0,0.0,0.0,0.0,0.0,0.0,0.0,0.0,0.0,0.0,0.0,0.0,0.0,0.0,0.0,0.0,0.0,0.0,0.0,0.0,0.0,0.0,0.0,0.0,0.0,0.0,0.0,0.0,0.0,0.0,0.0,0.0,0.0,0.0,0.0,0.0,0.0,0.0,0.0,0.0,0.0,0.0,0.0,0.0,0.0,0.0,0.0,0.0,0.0,0.0,0.0,0.0,0.0,0.0,0.0,0.0,0.0,0.0,0.0,0.0,0.0,0.0,0.0,0.0,0.0,0.0,0.0,0.0,0.0,0.0,0.0,0.0,0.0,0.0,0.0,0.0,0.0,0.0,0.0,0.0,0.0,0.0,0.0,0.0,0.0,0.0,0.0,0.0,0.0,0.0,0.0,0.0,0.0,0.0,0.0,0.0,0.0,0.0,0.0,0.0,0.0,0.0,0.0,0.0,0.0,0.0,0.0,0.0,0.0,0.0,0.0,0.0,0.0,0.0,0.0,0.0,0.0,0.0,0.0,0.0,0.0,0.0,0.0,0.0,0.0,0.0,0.0,0.0,0.0,0.0,0.0,0.0,0.0,0.0,0.0,0.0,0.0,0.0,0.0,0.0,0.0,0.0,0.0,0.0,0.0,0.0,0.0,0.0,0.0,0.0,0.0,0.0,0.0,0.0,0.0,0.0,0.0,0.0,0.0,0.0,0.0,0.0,0.0,0.0,0.0,0.0,0.0,0.0,0.0,0.0,0.0,0.0,0.0,0.0,0.0,0.0,0.0,0.0,0.0,0.0,0.0,0.0,0.0,0.0,0.0,0.0,0.0,0.0,0.0,0.0,0.0,0.0,0.0,0.0,0.0,0.0,0.0,0.0,0.0,0.0,0.0,0.0,0.0,0.0,0.0,0.0,0.0,0.0,0.0,0.0,0.0,0.0,0.0,0.0,0.0,0.0,0.0,0.0,0.0,0.0,0.0,0.0,0.0,0.0,0.0,0.0,0.0,0.0,0.0,0.0,0.0,0.0,0.0,0.0,0.0,0.0,0.0,0.0,0.0,0.0,0.0,0.0,0.0,0.0,0.0,0.0,0.0,0.0,0.0,0.0,0.0,0.0,0.0,0.0,0.0,0.0,0.0,0.0,0.0,0.0,0.0,0.0,0.0,0.0,0.0,0.0,0.0,0.0,0.0,0.0,0.0,0.0,0.0,0.0,0.0,0.0,0.0,0.0,0.0,0.0,0.0,0.0,0.0,0.0,0.0,0.0,0.0,0.0,0.0,0.0,0.0,0.0,0.0,0.0,0.0,0.0,0.0,0.0,0.0,0.0,0.0,0.0,0.0,0.0,0.0,0.0,0.0,0.0,0.0,0.0,0.0,0.0,0.0,0.0,0.0,0.0,0.0,0.0,0.0,0.0,0.0,0.0,0.0,0.0,0.0,0.0,0.0,0.0,0.0,0.0,0.0,0.0,0.0,0.0,0.0,0.0,0.0,0.0,0.0,0.0,0.0,0.0,0.0,0.0,0.0,0.0,0.0,0.0,0.0,0.0,0.0,0.0,0.0,0.0,0.0,0.0,0.0,0.0,0.0,0.0,0.0,0.0,0.0,0.0,0.0,0.0,0.0,0.0,0.0,0.0,0.0,0.0,0.0,0.0,0.0,0.0,0.0,0.0,0.0,0.0,0.0,0.0,0.0,0.0,0.0,0.0,0.0,0.0,0.0,0.0,0.0,0.0,0.0,0.0,0.0,0.0,0.0,0.0,0.0,0.0,0.0,0.0,0.0,0.0,0.0,0.0,0.0,0.0,0.0,0.0,0.0,0.0,0.0,0.0,0.0,0.0,0.0,0.0,0.0,0.0,0.0,0.0,0.0,0.0,0.0,0.0,0.0,0.0,0.0,0.0,0.0,0.0,0.0,0.0,0.0,0.0,0.0,0.0,0.0,0.0,0.0,0.0,0.0,0.0,0.0,0.0,0.0,0.0,0.0,0.0,0.0,0.0,0.0,0.0,0.0,0.0,0.0,0.0,0.0,0.0,0.0,0.0,0.0,0.0,0.0,0.0,0.0,0.0,0.0,0.0,0.0,0.0,0.0,0.0,0.0,0.0,0.0,0.0,0.0,0.0,0.0,0.0,0.0,0.0,0.0,0.0,0.0,0.0,0.0,0.0,0.0,0.0,0.0,0.0,0.0,0.0,0.0,0.0,0.0,0.0,0.0,0.0,0.0,0.0,0.0,0.0,0.0,0.0,0.0,0.0,0.0,0.0,0.0,0.0,0.0,0.0,0.0,0.0,0.0,0.0,0.0,0.0,0.0,0.0,0.0,0.0,0.0,0.0,0.0,0.0,0.0,0.0,0.0,0.0,0.0,0.0,0.0,0.0,0.0,0.0,0.0,0.0,0.0,0.0,0.0,0.0,0.0,0.0,0.0,0.0,0.0,0.0,0.0,0.0,0.0,0.0,0.0,0.0,0.0,0.0,0.0,0.0,0.0,0.0,0.0,0.0,0.0,0.0,0.0,0.0,0.0,0.0,0.0,0.0,0.0,0.0,0.0,0.0,0.0,0.0,0.0,0.0,0.0,0.0,0.0,0.0,0.0,0.0,0.0,0.0,0.0,0.0,0.0,0.0,0.0,0.0,0.0,0.0,0.0,0.0,0.0,0.0,0.0,0.0,0.0,0.0,0.0,0.0,0.0,0.0,0.0,0.0,0.0,0.0,0.0,0.0,0.0,0.0,0.0,0.0,0.0,0.0,0.0,0.0,0.0,0.0,0.0,0.0,0.0,0.0,0.0,0.0,0.0,0.0,0.0,0.0,0.0,0.0,0.0,0.0,0.0,0.0,0.0,0.0,0.0,0.0,0.0,0.0,0.0,0.0,0.0,0.0,0.0,0.0,0.0,0.0,0.0,0.0,0.0,0.0,0.0,0.0,0.0,0.0,0.0,0.0,0.0,0.0,0.0,0.0,0.0,0.0,0.0,0.0,0.0,0.0,0.0,0.0,0.0,0.0,0.0,0.0,0.0,0.0,0.0,0.0,0.0,0.0,0.0,0.0,0.0,0.0,0.0,0.0,0.0,0.0,0.0,0.0,0.0,0.0,0.0,0.0,0.0,0.0,0.0,0.0,0.0,0.0,0.0,0.0,0.0,0.0,0.0,0.0,0.0,0.0,0.0,0.0,0.0,0.0,0.0,0.0,0.0,0.0,0.0,0.0,0.0,0.0,0.0,0.0,0.0,0.0,0.0,0.0,0.0,0.0,0.0,0.0,0.0,0.0,0.0,0.0,0.0,0.0,0.0,0.0,0.0,0.0,0.0,0.0,0.0,0.0,0.0,0.0,0.0,0.0,0.0,0.0,0.0,0.0,0.0,0.0,0.0,0.0,0.0,0.0,0.0,0.0,0.0,0.0,0.0,0.0,0.0,0.0,0.0,0.0,0.0,0.0,0.0,0.0,0.0,0.0,0.0,0.0,0.0,0.0,0.0,0.0,0.0,0.0,0.0,0.0,0.0,0.0,0.0,0.0,0.0,0.0,0.0,0.0,0.0,0.0,0.0,0.0,0.0,0.0,0.0,0.0,0.0,0.0,0.0,0.0,0.0,0.0,0.0,0.0,0.0,0.0,0.0,0.0,0.0,0.0,0.0,0.0,0.0,0.0,0.0,0.0,0.0,0.0,0.0,0.0,0.0,0.0,0.0,0.0,0.0,0.0,0.0,0.0,0.0,0.0,0.0,0.0,0.0,0.0,0.0,0.0,0.0,0.0,0.0,0.0,0.0,0.0,0.0,0.0,0.0,0.0,0.0,0.0,0.0,0.0,0.0,0.0,0.0,0.0,0.0,0.0,0.0,0.0,0.0,0.0,0.0,0.0,0.0,0.0,0.0,0.0,0.0,0.0,0.0,0.0,0.0,0.0,0.0,0.0,0.0,0.0,0.0,0.0,0.0,0.0,0.0,0.0,0.0,0.0,0.0,0.0,0.0,0.0,0.0,0.0,0.0,0.0,0.0,0.0,0.0,0.0,0.0,0.0,0.0,0.0,0.0,0.0,0.0,0.0,0.0,0.0,0.0,0.0,0.0,0.0,0.0,0.0,0.0,0.0,0.0,0.0,0.0,0.0,0.0,0.0,0.0,0.0,0.0,0.0,0.0,0.0,0.0,0.0,0.0,0.0,0.0,0.0,0.0,0.0,0.0,0.0,0.0,0.0,0.0,0.0,0.0,0.0,0.0,0.0,0.0,0.0,0.0,0.0,0.0,0.0,0.0,0.0,0.0,0.0,0.0,0.0,0.0,0.0,0.0,0.0,0.0,0.0,0.0,0.0,0.0,0.0,0.0,0.0,0.0,0.0,0.0,0.0,0.0,0.0,0.0,0.0,0.0,0.0,0.0,0.0,0.0,0.0,0.0,0.0,0.0,0.0,0.0,0.0,0.0,0.0,0.0,0.0,0.0,0.0,0.0,0.0,0.0,0.0,0.0,0.0,0.0,0.0,0.0,0.0,0.0,0.0,0.0,0.0,0.0,0.0,0.0,0.0,0.0,0.0,0.0,0.0,0.0,0.0,0.0,0.0,0.0,0.0,0.0,0.0,0.0,0.0,0.0,0.0,0.0,0.0,0.0,0.0,0.0,0.0,0.0,0.0,0.0,0.0,0.0,0.0,0.0,0.0,0.0,0.0,0.0,0.0,0.0,0.0,0.0,0.0,0.0,0.0,0.0,0.0,0.0,0.0,0.0,0.0,0.0,0.0,0.0,0.0,0.0,0.0,0.0,0.0,0.0,0.0,0.0,0.0,0.0,0.0,0.0,0.0,0.0,0.0,0.0,0.0,0.0,0.0,0.0,0.0,0.0,0.0,0.0,0.0,0.0,0.0,0.0,0.0,0.0,0.0,0.0,0.0,0.0,0.0,0.0,0.0,0.0,0.0,0.0,0.0,0.0,0.0,0.0,0.0,0.0,0.0,0.0,0.0,0.0,0.0,0.0,0.0,0.0,0.0,0.0,0.0,0.0,0.0,0.0,0.0,0.0,0.0,0.0,0.0,0.0,0.0,0.0,0.0,0.0,0.0,0.0,0.0,0.0,0.0,0.0,0.0,0.0,0.0,0.0,0.0,0.0,0.0,0.0,0.0,0.0,0.0,0.0,0.0,0.0,0.0,0.0,0.0,0.0,0.0,0.0,0.0,0.0,0.0,0.0,0.0,0.0,0.0,0.0,0.0,0.0,0.0,0.0,0.0,0.0,0.0,0.0,0.0,0.0,0.0,0.0,0.0,0.0,0.0,0.0,0.0,0.0,0.0,0.0,0.0,0.0,0.0,0.0,0.0,0.0,0.0,0.0,0.0,0.0,0.0,0.0,0.0,0.0,0.0,0.0,0.0,0.0,0.0,0.0,0.0,0.0,0.0,0.0,0.0,0.0,0.0,0.0,0.0,0.0,0.0,0.0,0.0,0.0,0.0,0.0,0.0,0.0,0.0,0.0,0.0,0.0,0.0,0.0,0.0,0.0,0.0,0.0,0.0,0.0,0.0,0.0,0.0,0.0,0.0,0.0,0.0,0.0,0.0,0.0,0.0,0.0,0.0,0.0,0.0,0.0,0.0,0.0,0.0,0.0,0.0,0.0,0.0,0.0,0.0,0.0,0.0,0.0,0.0,0.0,0.0,0.0,0.0,0.0,0.0,0.0,0.0,0.0,0.0,0.0,0.0,0.0,0.0,0.0,0.0,0.0,0.0,0.0,0.0,0.0,0.0,0.0,0.0,0.0,0.0,0.0,0.0,0.0,0.0,0.0,0.0,0.0,0.0,0.0,0.0,0.0,0.0,0.0,0.0,0.0,0.0,0.0,0.0,0.0,0.0,0.0,0.0,0.0,0.0,0.0,0.0,0.0,0.0,0.0,0.0,0.0,0.0,0.0,0.0,0.0,0.0,0.0,0.0,0.0,0.0,0.0,0.0,0.0,0.0,0.0,0.0,0.0,0.0,0.0,0.0,-0.7546,-0.6412,0.0,0.0,0.0,0.0,0.0,0.0,0.0,0.0,0.0,0.0,0.0,0.0,0.0,0.0,0.0,0.0,0.0,0.0,0.0,0.0,0.0,0.0,0.0,-0.5656,-0.5893,-0.6316,-0.5962,0.0,0.0,0.0,0.0,0.0,0.0,0.0,0.0,0.0,-0.7501,-1.2406,-0.9889,-0.9977,-1.2481,-1.1247,-0.8612,-0.4893,0.0,0.0,0.0,0.0,0.0,0.0,0.0,0.0,0.0,0.0,0.0,0.0,0.0,0.0,0.0,0.0,0.0,0.0,0.0,0.0,0.0,0.0,0.0,0.0,0.0,0.0,0.0,0.0,0.0,0.0,0.0,0.0,0.0,0.0,0.0,0.0,0.0,0.0,0.0,0.0,0.0,0.0,0.0,0.0,0.0,0.0,0.0,0.0,0.0,0.0,0.0,0.0,0.0,0.0,0.0,0.0,0.0,0.0,0.0,0.0,0.0,0.0,0.0,0.0,0.0,0.0,0.0,0.0,0.0,0.0,-0.8848,-0.7903,0.0,0.0,0.0,0.0,0.0,0.0,0.0,0.0,0.0,0.0,0.0,0.0,0.0,0.0,0.0,0.0,0.0,0.0,0.0,0.0,0.0,-0.5478,-0.6144,-0.646,-0.6967,-0.784,-0.7125,-0.6628,-0.6603,-0.5805,0.0,0.0,0.0,0.0,-0.48,-0.5005,-0.9502,-1.8523,-1.5146,-1.4271,-1.5788,-1.6877,-1.466,-0.9671,-0.8788,0.0,0.0,0.0,0.0,0.0,0.0,0.0,0.0,0.0,0.0,0.0,0.0,0.0,0.0,0.0,0.0,0.0,0.0,0.0,0.0,0.0,0.0,0.0,0.0,0.0,0.0,0.0,0.0,0.0,0.0,0.0,0.0,0.0,0.0,0.0,0.0,0.0,0.0,0.0,0.0,0.0,0.0,0.0,0.0,0.0,0.0,0.0,0.0,0.0,0.0,0.0,0.0,0.0,0.0,0.0,0.0,0.0,0.0,0.0,0.0,0.0,0.0,0.0,-1.0809,-1.1375,-1.1858,-1.1782,-1.1955,-1.2246,-1.0179,-0.9653,-1.0037,-0.7508,0.0,0.0,0.0,0.0,0.0,0.0,0.0,0.0,0.0,0.0,0.0,0.0,0.0,0.0,0.0,0.0,0.0,0.0,0.0,-0.6179,-0.6283,-0.704,-0.7855,-0.8665,-0.7997,-0.7503,-0.7455,-0.668,0.0,0.0,0.0,-0.4629,-0.3653,-0.4593,-0.7194,-1.144,-1.5185,-1.7509,-1.842,-1.9331,-1.9311,-1.8335,-1.3895,-1.1515,-1.0541,0.0,0.0,0.0,0.0,0.0,0.0,0.0,0.0,0.0,0.0,0.0,0.0,0.0,0.0,0.0,0.0,0.0,0.0,0.0,0.0,0.0,0.0,0.0,0.0,0.0,0.0,0.0,0.0,0.0,0.0,0.0,0.0,0.0,0.0,0.0,0.0,0.0,0.0,0.0,0.0,0.0,-0.8608,-0.9133,0.0,0.0,0.0,0.0,0.0,0.0,0.0,0.0,0.0,0.0,0.0,0.0,0.0,-0.9395,-1.0,-1.1283,-1.1964,-1.2047,-1.3052,-1.356,-1.367,-1.3802,-1.3709,-1.339,-1.2693,0.0,-1.0599,-0.9248,0.0,0.0,0.0,0.0,0.0,0.0,0.0,0.0,0.0,0.0,0.0,0.0,0.0,0.0,0.0,0.0,0.0,0.0,0.0,0.0,0.0,-1.0295,-1.1295,-1.3112,-1.2063,-1.0878,-0.9918,-0.8593,0.0,0.0,-0.5351,-0.5174,-0.5307,-0.7654,-1.0918,-1.5101,-1.9208,-2.1166,-2.1062,-2.1934,-2.2077,-2.1521,-1.9273,-1.6548,-1.3468,-1.1506,0.0,0.0,0.0,0.0,0.0,0.0,0.0,0.0,0.0,0.0,0.0,0.0,0.0,0.0,0.0,0.0,0.0,0.0,0.0,0.0,0.0,0.0,0.0,0.0,0.0,0.0,0.0,0.0,0.0,0.0,0.0,0.0,0.0,0.0,0.0,0.0,0.0,0.0,0.0,-0.8424,-0.9463,-0.9548,-0.9179,-0.83,0.0,0.0,0.0,0.0,0.0,0.0,0.0,0.0,0.0,-1.1081,-1.1333,-1.1794,-1.2528,-1.3428,-1.384,-1.3852,-1.4625,-1.5024,-1.4993,-1.4841,-1.4421,-1.3806,-1.3379,-1.2537,-1.1362,-0.9813,-0.8613,-0.7622,0.0,0.0,0.0,0.0,-0.537,-0.5247,0.0,0.0,0.0,0.0,0.0,0.0,0.0,0.0,0.0,0.0,0.0,0.0,-1.242,-1.3162,-1.4336,-1.6513,-1.5312,-1.4004,-1.2969,-1.0663,-0.8749,-0.7461,-0.6132,-0.5926,-0.6972,-1.0933,-1.5174,-1.9635,-2.2565,-2.3784,-2.337,-2.4033,-2.3986,-2.3362,-2.3361,-2.0995,-1.6999,-1.6349,-1.3278,-0.8589,0.0,0.0,0.0,0.0,0.0,0.0,0.0,0.0,0.0,0.0,0.0,0.0,0.0,0.0,0.0,0.0,0.0,0.0,0.0,0.0,0.0,0.0,0.0,0.0,0.0,0.0,0.0,0.0,0.0,0.0,0.0,0.0,0.0,0.0,0.0,0.0,0.0,-0.9323,-1.0316,-1.0205,-1.0189,-0.9365,0.0,0.0,0.0,0.0,0.0,0.0,-1.0709,-1.1078,-1.1969,-1.3472,-1.3484,-1.3823,-1.4687,-1.5055,-1.5205,-1.5217,-1.56,-1.5792,-1.5792,-1.5289,-1.4767,-1.4138,-1.3557,-1.2872,-1.2073,-1.0324,-0.9371,-0.8909,-0.7483,-0.6484,-0.5861,-0.6293,-0.6269,-0.6203,0.0,0.0,0.0,0.0,0.0,0.0,0.0,0.0,0.0,0.0,0.0,-1.1602,-1.2676,-1.428,-1.5656,-1.6613,-1.5859,-1.5644,-1.6383,-1.2558,-1.0195,-1.0117,-0.7691,-0.6716,-0.7547,-1.3282,-1.7946,-2.137,-2.3141,-2.4399,-2.5166,-2.5215,-2.5215,-2.5177,-2.5107,-2.4042,-2.2163,-1.9743,-1.8952,-1.858,-0.9992,0.0,0.0,0.0,0.0,0.0,0.0,0.0,0.0,0.0,0.0,0.0,0.0,0.0,0.0,0.0,0.0,0.0,0.0,0.0,0.0,0.0,0.0,0.0,0.0,0.0,0.0,0.0,0.0,0.0,0.0,0.0,0.0,0.0,0.0,0.0,0.0,0.0,0.0,-1.1512,-1.1957,0.0,0.0,0.0,0.0,-0.9818,-1.0878,-1.1989,-1.2973,-1.2877,-1.3557,-1.5217,-1.5018,-1.5157,-1.5708,-1.5744,-1.5756,-1.5756,-1.578,-1.5792,-1.5792,-1.5289,-1.4937,-1.4619,-1.3643,-1.3034,-1.2667,-1.1277,-0.9982,-0.885,-0.8107,-0.6915,-0.5689,-0.6491,-0.6864,-0.7096,0.0,0.0,0.0,-0.7157,-0.5941,-0.5176,-0.5723,-0.6067,-0.6794,-0.8248,-1.0654,-1.3024,-1.5083,-1.6821,-1.8414,-1.9863,-1.9218,-1.8396,-1.7597,-1.4042,-1.2457,-1.3523,-1.0545,-1.1025,-1.5666,-1.829,-2.1011,-2.3938,-2.4358,-2.4836,-2.5311,-2.522,-2.522,-2.5311,-2.5222,-2.4867,-2.4215,-2.2736,-2.1034,-1.899,-1.5233,-1.185,0.0,0.0,0.0,0.0,0.0,0.0,0.0,0.0,0.0,0.0,0.0,0.0,0.0,0.0,0.0,0.0,0.0,0.0,0.0,0.0,0.0,0.0,0.0,0.0,0.0,0.0,0.0,0.0,0.0,0.0,0.0,0.0,0.0,0.0,0.0,0.0,0.0,-1.2308,-1.3067,0.0,-1.1058,-1.2499,-1.3122,-1.2109,-1.3326,-1.4336,-1.4777,-1.4737,-1.5094,-1.588,-1.5819,-1.5787,-1.5792,-1.5792,-1.5792,-1.5792,-1.5792,-1.5792,-1.5792,-1.496,-1.4536,-1.4387,-1.342,-1.2861,-1.255,-1.19,-1.0971,-0.9943,-0.9351,-0.8454,-0.7538,-0.7626,-0.7505,-0.7455,0.0,0.0,0.0,-0.7656,-0.6655,-0.6064,-0.6647,-0.6971,-0.7876,-0.995,-1.2181,-1.459,-1.7247,-1.8822,-2.0253,-2.1717,-2.109,-2.0345,-1.9755,-1.5971,-1.4365,-1.575,-1.3306,-1.4697,-2.0603,-2.1405,-2.2881,-2.5233,-2.5019,-2.5006,-2.5231,-2.5138,-2.516,-2.5302,-2.5222,-2.5192,-2.5173,-2.4572,-2.2887,-2.048,-1.9332,-1.6693,-1.3041,0.0,0.0,0.0,0.0,0.0,0.0,0.0,0.0,0.0,0.0,0.0,0.0,0.0,0.0,0.0,0.0,0.0,0.0,0.0,0.0,0.0,0.0,0.0,0.0,0.0,0.0,0.0,0.0,0.0,0.0,0.0,0.0,0.0,0.0,-1.256,-1.3753,-1.3031,-1.4392,-1.4688,-1.2886,-1.4408,-1.5203,-1.4563,-1.5336,-1.5929,-1.6191,-1.6011,-1.6019,-1.6262,-1.6188,-1.6057,-1.5869,-1.5836,-1.5792,-1.5792,-1.5792,-1.5792,-1.5792,-1.4766,-1.4305,-1.4258,-1.3238,-1.2725,-1.2529,-1.2175,-1.1551,-1.0712,-1.0012,-0.919,-0.8355,-0.7925,-0.7664,-0.7628,0.0,0.0,-0.864,-0.779,-0.7628,-0.762,-0.7628,-0.8312,-0.9771,-1.244,-1.4262,-1.6298,-1.8884,-2.0019,-2.0936,-2.1784,-2.1106,-2.1319,-2.2906,-1.8267,-1.5802,-1.6609,-1.5986,-1.7526,-2.1637,-2.2345,-2.3482,-2.5096,-2.4949,-2.4949,-2.5084,-2.5084,-2.516,-2.5303,-2.5233,-2.5192,-2.5212,-2.5195,-2.4713,-2.3804,-2.2134,-1.9962,-1.742,0.0,0.0,0.0,0.0,0.0,0.0,0.0,0.0,0.0,0.0,0.0,0.0,0.0,0.0,0.0,0.0,0.0,0.0,0.0,0.0,0.0,0.0,0.0,0.0,0.0,0.0,0.0,0.0,0.0,0.0,0.0,0.0,0.0,-1.2096,-1.3565,-1.4525,-1.3808,-1.5964,-1.6913,-1.535,-1.6327,-1.7085,-1.7123,-1.6764,-1.6765,-1.7199,-1.6735,-1.6436,-1.6436,-1.6175,-1.6032,-1.5988,-1.5869,-1.5792,-1.5792,-1.5792,-1.5792,-1.5792,-1.4766,-1.4305,-1.4258,-1.319,-1.2725,-1.2676,-1.2126,-1.1651,-1.1116,-1.0064,-0.9033,-0.8025,-0.7343,-0.73,-0.7676,-0.9889,-0.9334,-0.8833,-0.8582,-0.806,-0.7861,-0.8457,-0.8764,-0.9868,-1.2452,-1.4292,-1.6137,-1.8104,-1.9687,-2.0703,-2.0932,-2.1325,-2.144,-2.123,-1.8152,-1.6672,-1.7446,0.0,-2.3214,-2.4331,-2.4438,-2.4681,-2.5099,-2.4874,-2.4818,-2.4949,-2.4949,-2.5031,-2.516,-2.5241,-2.5282,-2.5282,-2.522,-2.5056,-2.4749,-2.3654,-2.2015,-1.9953,0.0,0.0,0.0,0.0,0.0,0.0,0.0,0.0,0.0,0.0,0.0,0.0,0.0,0.0,0.0,0.0,0.0,0.0,0.0,0.0,0.0,0.0,0.0,0.0,0.0,0.0,0.0,0.0,0.0,0.0,0.0,-1.3206,-1.4571,-1.404,-1.5621,-1.6723,-1.653,-1.7519,-1.7925,-1.7139,-1.805,-1.8399,-1.7807,-1.7892,-1.7868,-1.7639,-1.7516,-1.7256,-1.6837,-1.674,-1.6497,-1.5988,-1.5957,-1.5913,-1.5792,-1.5792,-1.5792,-1.5792,-1.5142,-1.4686,-1.4247,-1.361,-1.3104,-1.2676,-1.2431,-1.1968,-1.1309,-1.0372,-0.9496,-0.8659,-0.7824,-0.7515,-0.7574,-1.021,-0.9792,-0.9444,-0.9438,-0.9055,-0.8896,-0.9362,-0.9482,-1.0551,-1.3503,-1.4774,-1.6342,-1.8828,-1.998,-2.0742,-2.111,-2.1576,-2.1317,-2.0031,-1.82,-1.7983,-1.9862,0.0,-2.473,-2.5382,-2.5274,-2.5173,-2.5091,-2.4842,-2.4804,-2.4975,-2.4929,-2.5006,-2.5182,-2.5271,-2.5311,-2.5311,-2.5222,-2.5192,-2.5154,-2.4662,-2.3605,-2.2187,-2.0365,-1.8555,-1.6753,-1.5037,-1.4017,-1.3524,-1.3611,0.0,0.0,0.0,0.0,0.0,0.0,0.0,0.0,0.0,0.0,0.0,0.0,0.0,0.0,0.0,0.0,0.0,0.0,0.0,0.0,0.0,0.0,0.0,0.0,-1.5232,-1.6696,-1.6562,-1.7464,-1.81,-1.8034,-1.8614,-1.8909,-1.8615,-1.8928,-1.8974,-1.8616,-1.8383,-1.8226,-1.8108,-1.776,-1.7462,-1.7325,-1.6964,-1.6625,-1.6411,-1.6163,-1.5957,-1.5869,-1.5836,-1.5792,-1.5792,-1.5289,-1.4823,-1.4258,-1.38,-1.3238,-1.2686,-1.2578,-1.2175,-1.1569,0.0,0.0,0.0,0.0,-0.7664,-0.7408,-1.0219,-1.0215,-1.0205,-1.0191,-1.0202,-1.0215,-1.0202,-1.0203,-1.145,-1.4936,-1.5406,-1.6737,-2.0214,-2.0605,-2.0917,-2.1697,-2.186,-2.1296,-1.9737,-1.8921,-1.9825,-2.2765,-2.3093,-2.3898,-2.5382,-2.5303,-2.5186,-2.5102,-2.485,-2.4842,-2.5049,-2.4955,-2.5031,-2.5253,-2.5292,-2.5292,-2.5292,-2.5233,-2.5222,-2.5222,-2.5222,-2.4781,-2.4023,-2.2962,-2.1662,-2.0143,-1.8332,-1.6778,-1.5485,-1.4787,0.0,0.0,0.0,0.0,0.0,0.0,0.0,0.0,0.0,0.0,0.0,0.0,0.0,0.0,0.0,0.0,0.0,0.0,0.0,0.0,0.0,0.0,0.0,0.0,-1.741,-1.9068,-1.911,-1.9076,-1.8959,-1.8772,-1.9331,-1.9726,-1.9726,-1.9258,-1.9109,-1.9376,-1.863,-1.8266,-1.8553,-1.7828,0.0,0.0,0.0,-1.6752,-1.6993,-1.6411,-1.6076,-1.5988,-1.5824,-1.5792,-1.5748,-1.5289,-1.4823,-1.4305,-1.3847,-1.3286,-1.2725,-1.2529,-1.2224,-1.1769,-1.088,-1.0218,-0.9607,-0.8495,-0.7711,-0.7295,-1.0276,-1.0232,-1.0203,-1.0201,-1.0232,-1.0278,-1.0279,-1.0287,-1.1503,-1.4941,-1.539,-1.6738,-2.0215,-2.0605,-2.0664,-2.084,-2.2081,-2.2678,-2.2289,-2.2701,-2.2939,-2.29,-2.4254,-2.5163,-2.5464,-2.5393,-2.5293,-2.5175,-2.4981,-2.4836,-2.4785,-2.4855,-2.4929,-2.4994,-2.5201,-2.5303,-2.5303,-2.5293,-2.5313,-2.5351,-2.5302,-2.5113,-2.4805,-2.4,-2.3343,-2.2626,-2.1058,-2.0262,-1.9885,-1.9857,-1.8429,-1.6785,-1.7385,-1.5525,0.0,0.0,0.0,0.0,0.0,0.0,0.0,0.0,0.0,0.0,0.0,0.0,0.0,0.0,0.0,0.0,0.0,0.0,0.0,-1.6585,-1.8145,-1.9387,-1.9767,-1.9828,-1.9813,-1.9738,-1.9773,-1.9762,-1.9762,-1.9596,-1.945,-1.9413,-1.9176,-1.9026,-1.8988,-1.8822,-1.863,-1.8383,-1.8187,-1.7733,-1.6993,-1.674,-1.6423,-1.5988,-1.5691,0.0,-1.5558,-1.5244,-1.4834,-1.4373,-1.3931,-1.3447,-1.2929,-1.251,-1.1977,-1.1318,-1.0584,-0.9969,-0.9354,-0.8448,-0.8025,-0.7865,-1.0287,-1.0242,-1.0191,-1.0205,-1.0235,-1.0263,-1.0285,-1.029,-1.1523,-1.4941,-1.539,-1.6562,-1.9629,-1.9551,-1.9121,-1.8691,-1.9383,-2.0568,-2.2233,-2.2733,-2.3325,-2.4157,-2.5047,-2.5511,-2.5511,-2.5476,-2.5412,-2.5312,-2.5122,-2.5049,-2.5056,-2.5024,-2.5049,-2.5157,-2.5284,-2.5351,-2.5351,-2.5351,-2.5379,-2.5388,-2.5351,-2.5292,-2.5141,-2.4728,-2.4465,-2.4151,-2.2916,-2.2194,-2.1745,-2.145,-2.026,-1.8941,-1.9259,-1.7633,-1.5171,0.0,0.0,0.0,0.0,0.0,0.0,0.0,0.0,0.0,0.0,0.0,0.0,0.0,0.0,-1.3759,-1.4178,0.0,-1.7657,-1.8329,-1.9342,-2.0137,-2.0379,-2.0289,-2.0131,-1.9919,-1.9848,-1.9797,-1.9762,-1.9705,-1.9596,-1.9413,-1.9376,-1.9302,-1.9101,-1.8898,-1.8784,-1.8784,-1.8383,-1.8028,-1.7774,-1.7118,-1.6667,-1.6411,-1.5901,-1.5614,-1.5513,-1.5379,-1.4971,-1.4373,-1.3967,-1.3447,-1.2832,-1.2116,-1.1528,-1.1074,-1.0549,-1.0028,-0.9562,-0.9131,-0.8712,-0.8296,-1.029,-1.0266,-1.0218,-1.0227,-1.0215,-1.0243,-1.0287,-1.0291,-1.1406,-1.4512,-1.4902,-1.5839,-1.8281,-1.7929,-1.7284,-1.6737,-1.7103,-1.8582,0.0,-2.2152,-2.3345,-2.5414,-2.5511,-2.5511,-2.5511,-2.5511,-2.5464,-2.5429,-2.5264,-2.5253,-2.5361,-2.5203,-2.5214,-2.5361,-2.5397,-2.5406,-2.5406,-2.5406,-2.5395,-2.5395,-2.5407,-2.5361,-2.5313,-2.5187,-2.5111,-2.4977,-2.4098,-2.3229,-2.2405,-2.1665,-2.0948,-2.0327,-2.0058,-1.9216,-1.7836,-1.5254,-1.4373,0.0,0.0,0.0,0.0,0.0,0.0,0.0,0.0,-1.1502,-1.2019,-1.3798,-1.5004,-1.6005,-1.6843,-1.8221,-1.9413,-1.9971,-2.0544,-2.0909,-2.0909,-2.0662,-2.0357,-1.996,-1.9869,-1.9797,-1.9726,-1.9726,-1.9617,-1.945,-1.9413,-1.9339,-1.9176,-1.8822,-1.8784,-1.9139,-1.8461,-1.8226,-1.85,-1.7571,-1.6993,-1.6795,-1.6163,-1.5736,-1.5424,-1.5379,-1.4971,-1.4233,-1.3732,-1.317,-1.251,-1.1619,-1.1074,-1.0871,-1.0624,-1.0198,-0.9814,-0.971,-0.9249,-0.8679,-1.031,-1.0289,-1.0288,-1.0289,-1.0291,-1.0292,-1.0292,-1.0292,-1.0996,-1.293,-1.3184,-1.3867,-1.5644,-1.5742,-1.5936,-1.6551,-1.8734,-2.0526,-2.1636,-2.3809,-2.5201,-2.5492,-2.5511,-2.5511,-2.5511,-2.5511,-2.5511,-2.5484,-2.5293,-2.5215,-2.5215,-2.5203,-2.5192,-2.5233,-2.5351,-2.5406,-2.5406,-2.5406,-2.5404,-2.5393,-2.5397,-2.5407,-2.5378,-2.5313,-2.5209,-2.501,-2.4302,-2.3419,-2.2475,-2.1741,-2.1411,-2.1218,-2.0491,-2.1053,-2.1488,-1.8877,-1.7528,-1.6298,-1.3663,-1.2586,-1.2436,-1.3455,-1.4141,-1.5424,0.0,-1.8301,-1.7599,-1.879,-1.9653,-2.0097,-1.9881,-2.0485,-2.1019,-2.1116,-2.1197,-2.1245,-2.1245,-2.1166,-2.0926,-2.0481,-2.015,-1.9919,-1.9797,-1.9726,-1.9654,-1.9574,-1.9465,-1.9376,-1.9376,-1.9265,-1.9228,-1.9302,-1.9176,-1.8936,-1.85,-1.8266,-1.7693,-1.6795,-1.6398,-1.5844,-1.5153,-1.488,-1.4466,-1.3821,-1.2793,-1.2157,-1.1778,-1.1167,-1.0922,-1.0871,-1.0624,-1.0198,-0.9762,-0.9413,-0.9211,-0.9001,-1.0309,-1.031,-1.031,-1.0308,-1.029,-1.0292,-1.0292,-1.0292,-1.0937,-1.2676,-1.289,-1.3359,-1.4512,-1.3769,-1.3319,-1.3604,-1.645,-1.8787,-2.0102,-2.3055,-2.4969,-2.5492,-2.5511,-2.5511,-2.5511,-2.5511,-2.5511,-2.5511,-2.5376,-2.5321,-2.5321,-2.5312,-2.5331,-2.5312,-2.5423,-2.5468,-2.5468,-2.5468,-2.544,-2.5401,-2.5406,-2.5379,-2.5283,-2.4783,-2.4533,-2.4432,-2.4197,-2.2881,0.0,-2.2036,-2.1611,-2.0892,-2.1464,-2.1053,-2.0174,-1.903,-1.7689,-1.6621,-1.6965,-1.607,-1.5367,-1.6718,-1.7199,-1.77,-1.9026,-1.8607,-1.8438,-2.0109,-2.0594,-2.0747,-2.0849,-2.1297,-2.1645,-2.1601,-2.1584,-2.157,-2.154,-2.1355,-2.0991,-2.0496,-2.0308,-2.0115,-1.9762,-1.9726,-1.9654,-1.9611,-1.9538,-1.9501,-1.9413,-1.9376,-1.9376,-1.9376,-1.9339,-1.9176,-1.8988,-1.85,-1.7988,-1.7338,-1.6795,-1.6151,-1.5367,-1.5062,-1.4408,-1.342,-1.254,-1.1909,-1.1427,-1.1074,-1.082,-1.0667,-1.0522,-1.0198,-0.9762,-0.9614,-0.9256,-0.8791,-1.0308,-1.0309,-1.0309,-1.0305,-1.0308,-1.0291,-1.0291,-1.0292,-1.0742,-1.2012,-1.2187,-1.2402,-1.2987,-1.1971,-1.1211,-1.1176,-1.4503,-1.7113,-1.8333,-2.2036,-2.4486,-2.5105,-2.5376,-2.5511,-2.5511,-2.5511,-2.5511,-2.5511,-2.5456,-2.5429,-2.5429,-2.5429,-2.5429,-2.5429,-2.5484,-2.5511,-2.5511,-2.5511,-2.5329,-2.5062,-2.5076,-2.4896,-2.4571,-2.4,-2.3309,-2.2669,-2.2947,-2.1716,-2.0023,-2.0526,-2.0046,-1.9346,-1.9981,-1.9391,-1.8429,-1.8384,-1.7235,-1.6327,-1.7826,-1.7792,-1.7638,-1.8993,-1.9723,-2.0016,-1.9625,-1.9355,-1.96,-2.1056,-2.1267,-2.1249,-2.1576,-2.1869,-2.2044,-2.1974,-2.1974,-2.1961,-2.1844,-2.1617,-2.123,-2.0597,-2.0545,-2.0326,-1.9747,-1.969,-1.969,-1.9647,-1.9611,-1.9574,-1.9487,-1.945,-1.9465,-1.9413,-1.9339,-1.9302,-1.9265,-1.8745,-1.8226,-1.7679,-1.7214,-1.6484,-1.5591,-1.496,-1.4165,-1.317,-1.2295,-1.1719,-1.1267,-1.0922,-1.0667,-1.0522,-1.0522,-1.0095,-0.9503,-0.9503,-0.9145,-0.8573,-1.0308,-1.0308,-1.0308,-1.0305,-1.0308,-1.0291,-1.0291,-1.0292,-1.0312,-1.0371,-1.0371,-1.039,-1.0407,-1.0368,-1.0332,-1.035,-1.4184,-1.6619,-1.6676,-2.1411,-2.4215,-2.4234,-2.5047,-2.5511,-2.5511,-2.5511,-2.5511,-2.5511,-2.5511,-2.5511,-2.5511,-2.5511,-2.5511,-2.5511,-2.5511,-2.5511,-2.5511,-2.5511,-2.5008,-2.4234,-2.4231,-2.3721,-2.2975,-2.294,-2.1404,-1.9349,-2.0142,-1.9812,-1.8665,-1.6253,-1.5914,-1.6234,-1.4664,-1.5718,-1.7537,-1.7536,-1.6801,-1.5816,-1.499,-1.6279,-1.8195,-1.9542,-2.1523,-2.3076,-2.2754,-2.2652,-2.2617,-2.2554,-2.2544,-2.2535,-2.247,-2.247,-2.246,-2.2377,-2.2377,-2.2338,-2.2197,-2.2185,-2.1844,-2.0991,-2.0893,-2.0563,-1.9797,-1.969,-1.969,-1.969,-1.9647,-1.9647,-1.969,-1.9647,-1.9538,-1.9413,-1.9413,-1.9302,-1.9101,-1.9101,-1.863,-1.772,-1.7679,-1.6951,-1.5546,-1.4258,-1.3457,-1.3122,-1.1859,-1.1326,-1.1276,-1.0726,-1.0522,-1.0522,-1.0522,-0.9829,-0.883,-0.883,-0.8725,-0.8521,-1.0306,-1.0306,-1.0305,-1.0305,-1.0306,-1.0308,-1.029,-1.0292,-1.0293,-1.0293,-1.0292,0.0,0.0,0.0,0.0,0.0,-1.2912,-1.4793,-1.6486,-1.9245,-2.1572,-2.3248,-2.4176,-2.4919,-2.5488,-2.5507,-2.5507,-2.5507,-2.5507,-2.5499,-2.5511,-2.5511,-2.5511,-2.5511,-2.5511,-2.5511,-2.5472,-2.4877,-2.4471,-2.4154,-2.3578,-2.3504,-2.3754,-2.3754,-2.2175,-1.9774,0.0,-1.6914,-1.5716,-1.5983,-1.5849,-1.5702,-1.6253,-1.5824,-1.4972,-1.432,-1.5045,-1.6342,-1.7578,-1.8814,-2.0191,-2.198,-2.297,-2.3399,-2.2977,-2.2842,-2.2764,-2.2685,-2.2263,-2.2048,-2.2412,-2.2148,-2.196,-2.2337,-2.2405,-2.2321,-2.2089,-2.1886,-2.1509,-2.0909,-2.0597,-2.0243,-1.9747,-1.9726,-1.9762,-1.969,-1.9726,-1.9726,-1.969,-1.969,-1.9632,-1.9538,-1.9465,-1.9339,-1.9228,-1.886,-1.8383,-1.776,-1.706,-1.625,-1.539,-1.4571,-1.3721,-1.2861,-1.1931,-1.1301,-1.1023,-1.0565,-1.0419,-1.047,-1.0146,-0.9621,-0.8995,-0.8508,-0.8143,-0.7836,-1.0305,-1.0305,-1.0305,-1.0306,-1.0306,0.0,0.0,0.0,0.0,0.0,0.0,0.0,0.0,0.0,0.0,0.0,0.0,-1.3487,-1.5122,-1.7105,-1.9085,-2.1029,-2.1643,-2.2359,-2.3191,-2.2927,-2.3237,-2.4135,-2.383,-2.414,-2.5043,-2.5043,-2.488,-2.4617,-2.49,-2.4861,-2.4513,-2.3666,-2.3466,-2.362,-2.2139,-2.1875,-2.2305,-2.175,-1.9916,0.0,-1.5835,-1.4117,-1.2711,-1.3171,-1.3354,-1.3511,-1.4313,-1.3821,-1.2944,-1.2817,-1.4064,-1.6131,-1.9058,-2.0165,-2.1002,-2.3159,-2.3692,-2.3584,-2.3259,-2.314,-2.3091,-2.3042,-2.2139,-2.1485,-2.1873,-2.1454,-2.1199,-2.1547,-2.1966,-2.2192,-2.2089,-2.1675,-2.1229,-2.0877,-2.0481,-2.0104,-1.9711,-1.9762,-1.9762,-1.9726,-1.9726,-1.9762,-1.969,-1.9705,-1.9632,-1.9538,-1.9413,-1.9265,-1.9026,-1.8669,-1.8187,-1.7503,-1.6607,-1.5925,-1.539,-1.4663,-1.3815,-1.2871,-1.1882,-1.12,-1.0871,-1.047,-1.0368,-1.047,-1.0146,-0.9673,-0.9159,-0.8672,-0.8037,-0.7354,-1.0305,-1.0305,-1.0305,0.0,0.0,0.0,0.0,0.0,0.0,0.0,0.0,0.0,0.0,0.0,0.0,0.0,0.0,0.0,-1.2735,-1.5048,0.0,-1.7732,-1.781,-1.8203,-1.9029,-1.8285,-1.909,-2.1512,-2.0681,-2.1533,-2.3935,-2.3941,-2.3553,-2.2908,-2.367,-2.3553,-2.2721,-2.1914,-2.1985,-2.243,-1.9958,-1.8964,-1.8828,-1.7329,-1.5139,-1.287,-1.2862,-1.1719,-0.995,-0.83,-0.887,-1.0166,-0.9537,-1.0369,-1.1882,-1.3306,-1.4185,-1.5539,-1.9315,-2.0336,-2.0859,-2.3115,-2.3756,-2.3795,-2.3714,-2.3692,-2.3674,-2.352,-2.2054,-2.076,-2.0725,-2.0425,-2.0189,-2.015,-2.1137,-2.1974,-2.214,-2.1524,-2.1023,-2.0893,-2.0499,-2.0124,-1.9747,-1.9762,-1.9762,-1.969,-1.969,-1.969,-1.969,-1.9647,-1.9538,-1.9413,-1.9339,-1.9026,-1.85,-1.8461,-1.7935,-1.6951,-1.6436,-1.5957,-1.5534,-1.4525,-1.3732,-1.3112,-1.176,-1.1074,-1.0871,-1.047,-1.0368,-1.047,-1.0316,-0.9844,-0.9211,-0.9159,-0.8309,-0.7139,0.0,0.0,0.0,0.0,0.0,0.0,0.0,0.0,0.0,0.0,0.0,0.0,0.0,0.0,0.0,0.0,0.0,0.0,-1.1784,-1.3042,0.0,0.0,0.0,0.0,0.0,0.0,0.0,-1.8872,-1.8649,-1.9181,-2.041,-2.0404,-2.0634,-2.1069,-2.1277,-2.1274,-2.1046,-2.0158,-1.9532,-1.907,-1.7754,-1.7274,-1.7346,-1.7579,-1.6047,-1.3768,-1.3765,-1.2232,-1.0137,-0.9693,-1.0989,-1.3061,-1.4665,-1.5358,-1.5793,-1.6658,-1.7807,-1.9115,-2.0644,-2.2006,-2.3118,-2.3653,-2.3899,-2.3979,-2.3816,-2.3753,-2.335,-2.208,-2.0414,-1.8995,-1.8351,-1.8457,-1.8824,-1.9314,-2.079,-2.184,-2.1691,-2.1103,-2.0565,-2.0413,-2.0085,-1.9803,-1.9726,-1.9726,-1.969,-1.9647,-1.9741,-1.9762,-1.969,-1.9647,-1.9538,-1.9413,-1.9339,-1.9026,-1.85,-1.7774,-1.7118,-1.6552,-1.6219,-1.5901,-1.5591,-1.5051,-1.4143,-1.288,-1.2218,-1.1392,-1.0573,-1.0368,-1.0316,-1.0316,-0.994,-0.9621,-0.9309,-0.889,-0.8203,-0.7413,0.0,0.0,0.0,0.0,0.0,0.0,0.0,0.0,0.0,0.0,0.0,0.0,0.0,0.0,0.0,0.0,0.0,0.0,0.0,-1.1421,-1.2272,0.0,0.0,0.0,0.0,0.0,0.0,0.0,-1.5858,-1.6467,-1.8009,-1.7999,-1.8067,-1.8173,-1.8567,-1.8541,-1.8166,-1.7253,-1.7039,0.0,0.0,-1.5173,-1.5535,-1.5298,-1.4016,-1.2397,-1.2385,-1.2129,-1.1945,-1.2969,-1.4237,-1.5584,-1.6872,-1.7206,-1.7392,-1.8728,-1.9605,-2.048,-2.1857,-2.3027,-2.386,-2.3816,-2.4039,-2.3953,-2.2758,-2.2447,-2.1862,-1.9822,-1.7952,-1.652,-1.6029,-1.6829,-1.7689,-1.8034,-2.0114,-2.1691,-2.1631,-2.0878,-2.0361,-2.0379,-2.0065,-1.9797,-1.9762,-1.9726,-1.957,-1.9179,-1.9504,-1.9669,-1.9581,-1.9768,-1.9708,-1.9354,-1.9543,-1.92,-1.8187,-1.7201,-1.6595,-1.6318,-1.6088,-1.5901,-1.5691,-1.5085,-1.4226,-1.312,-1.2307,-1.1434,-1.0667,-1.0419,-1.0316,-1.0265,-0.9888,-0.9732,-0.9629,-0.9263,-0.8573,-0.7771,0.0,0.0,0.0,0.0,0.0,0.0,0.0,0.0,0.0,-1.0781,-1.0507,-1.029,-1.0305,-1.031,0.0,0.0,0.0,0.0,0.0,0.0,-1.0605,0.0,0.0,0.0,0.0,-1.0601,-1.1316,-1.3574,-1.2823,-1.3646,-1.5912,-1.5913,-1.5583,-1.4999,-1.5753,-1.5684,-1.4915,-1.4157,-1.4646,-1.5734,-1.3528,-1.3019,-1.3425,0.0,0.0,-1.0226,-1.0334,-1.1851,-1.4187,-1.6659,-1.7699,-1.7975,-1.8113,-1.8087,-1.8347,-2.0158,-2.0499,-2.0757,-2.2718,-2.3392,-2.3587,-2.378,-2.4099,-2.3756,-2.1492,-2.0879,-2.008,-1.7485,-1.5405,-1.4022,-1.3889,-1.5205,-1.6399,-1.6714,-1.9105,-2.1122,-2.1612,-2.0763,-2.0204,-2.0512,-2.022,-1.9925,-1.9677,-1.9677,-1.9321,-1.851,-1.898,-1.9324,-1.9413,-1.983,-1.9879,-1.9411,-1.9672,-1.9157,-1.7801,-1.685,-1.6318,-1.6156,-1.6044,-1.5869,-1.5703,-1.4937,-1.4226,-1.3569,-1.2297,-1.1484,-1.0972,-1.0565,-1.0419,-1.0316,-1.0154,-1.0051,-0.9999,-0.9903,-0.9093,-0.8131,0.0,0.0,0.0,0.0,0.0,0.0,0.0,0.0,0.0,0.0,-1.16,-1.0292,0.0,0.0,0.0,0.0,0.0,0.0,0.0,0.0,0.0,-1.0507,0.0,0.0,-1.0504,-1.0363,-1.0473,-1.0872,-1.0732,-1.1241,-1.2384,-1.2381,-1.2684,-1.3248,-1.3392,-1.3389,-1.3221,-1.3063,-1.2762,-1.2342,-1.1893,-1.1382,-1.0837,0.0,0.0,0.0,-1.1014,-1.2397,-1.4342,-1.7369,-1.9247,-2.0645,-2.2629,-2.2736,-2.2159,-2.2209,-2.2106,-2.2052,-2.2414,-2.259,-2.2922,-2.3817,-2.3767,-2.3212,-2.2049,-2.1317,-1.9968,-1.6773,-1.4614,-1.3061,-1.2279,-1.2707,-1.3939,-1.6247,-1.7633,-1.9052,-2.0877,-2.0512,-2.0025,-2.0096,-2.0025,-1.9743,-1.9114,-1.8951,-1.8544,-1.7737,-1.7762,-1.8258,-1.9317,-1.9442,-1.9593,-1.9953,-1.8815,-1.8057,-1.7787,-1.6765,-1.61,-1.5881,-1.5836,-1.5603,-1.5198,-1.5051,-1.4536,-1.3721,-1.2948,-1.2236,-1.161,-1.1267,-1.0922,-1.0624,-1.0565,-1.036,-0.9999,-1.0162,-0.9302,-0.8125,0.0,0.0,0.0,0.0,0.0,0.0,0.0,-1.2925,-1.3845,-1.6465,-1.5742,-1.4296,-1.248,-1.1093,-1.0291,0.0,0.0,0.0,0.0,0.0,0.0,0.0,0.0,0.0,-1.0293,-1.0309,-1.0283,-1.0259,0.0,-1.0407,-1.0814,-1.0817,-1.1055,-1.1451,-1.1443,-1.1458,-1.1458,-1.1449,-1.1211,-1.0826,-1.0828,-1.0567,-1.02,0.0,0.0,0.0,-1.0662,-1.2373,-1.4585,-1.5683,-1.839,-2.1594,-2.3175,-2.3399,-2.2922,-2.2034,-2.2013,-2.2289,-2.2268,-2.2679,-2.3286,-2.3986,-2.4042,-2.3154,-2.0178,-1.9223,-1.7758,-1.3501,-1.1854,-1.1023,-1.0535,-1.1851,-1.3461,-1.4768,-1.6978,-1.8852,-1.9819,-2.0059,-2.0166,-2.0166,-2.0285,-2.0215,-1.9774,-1.9305,-1.867,-1.7809,-1.7128,-1.7457,-1.9126,-1.9856,-2.0473,-2.1061,-1.9544,-1.8559,-1.822,-1.7168,-1.6382,-1.5913,-1.5736,-1.5513,-1.5289,-1.5017,-1.4593,-1.3967,-1.315,-1.2482,-1.1959,-1.1519,-1.1175,-1.0871,-1.0769,-1.0565,-1.036,-1.0213,-0.9413,-0.8448,0.0,0.0,0.0,0.0,0.0,0.0,0.0,-1.4974,-1.597,-1.9643,-1.98,-1.8397,-1.5271,-1.2812,-1.1107,0.0,0.0,0.0,0.0,0.0,0.0,0.0,0.0,0.0,0.0,0.0,0.0,-1.0306,-1.022,0.0,0.0,0.0,0.0,0.0,-1.0212,-1.0198,-1.0209,-1.0207,-1.021,0.0,0.0,-1.0207,-1.0194,0.0,0.0,0.0,0.0,-1.2059,-1.4111,-1.4016,-1.6754,-2.0326,-2.1054,-2.1934,-2.2392,-2.0956,-2.1248,-2.2018,-2.2043,-2.2764,-2.366,-2.4136,-2.4262,-2.3073,-1.8497,-1.734,-1.5822,-1.0891,-0.9634,-0.9367,-0.9282,-1.1092,-1.2778,-1.3345,-1.5989,-1.82,-1.8885,-1.9577,-2.0135,-2.0392,-2.0577,-2.0614,-2.0391,-1.9572,-1.87,-1.7805,-1.7128,-1.7421,-1.8991,-2.0451,-2.1452,-2.1975,-2.0464,-1.9276,-1.8596,-1.7517,-1.6626,-1.5869,-1.5603,-1.5424,-1.5244,-1.488,-1.4512,-1.4176,-1.3304,-1.2725,-1.2353,-1.1719,-1.1377,-1.1226,-1.0922,-1.0769,-1.0667,-1.0257,-0.9517,-0.8666,0.0,0.0,0.0,0.0,0.0,0.0,0.0,-1.6008,-1.7963,-2.2207,-2.1422,-1.976,-1.7852,-1.6015,-1.3689,0.0,0.0,0.0,0.0,0.0,0.0,0.0,0.0,0.0,0.0,0.0,0.0,-1.029,-1.023,0.0,0.0,0.0,0.0,0.0,0.0,-1.02,-1.0198,-1.0193,0.0,0.0,0.0,0.0,0.0,0.0,0.0,0.0,0.0,-1.1493,-1.1964,-1.4149,-1.5094,-1.5433,-1.5932,-1.8612,-2.1205,-1.9506,-2.0172,-2.1493,-2.1551,-2.2245,-2.3217,-2.4205,-2.3987,-2.2581,-1.9095,-1.7774,-1.6044,-1.1681,-1.0032,-0.9358,-0.9224,-0.9273,-1.0183,-1.2807,-1.3618,-1.5098,-1.8451,-1.9076,-1.958,-2.0616,-2.0761,-2.0557,-1.9909,-1.8952,-1.7992,-1.6969,-1.8091,-1.8852,-1.8941,-2.0819,-2.1931,-2.1989,-2.0464,-1.9276,-1.8596,-1.7517,-1.6457,-1.5357,-1.548,-1.5153,-1.4512,-1.4662,-1.4569,-1.4326,-1.3505,-1.316,-1.3074,-1.2314,-1.1877,-1.1628,-1.1326,-1.1124,-1.0871,-1.0573,-0.9555,-0.833,0.0,0.0,0.0,0.0,0.0,0.0,-1.6281,-1.6375,-1.8015,-2.3897,-2.364,-2.2211,-2.0479,-1.8762,-1.5735,-1.0735,0.0,0.0,0.0,0.0,0.0,0.0,0.0,0.0,0.0,0.0,-1.0307,-1.0291,-1.0232,0.0,0.0,0.0,0.0,0.0,0.0,-1.0209,-1.0193,-1.02,0.0,0.0,0.0,0.0,0.0,0.0,0.0,0.0,0.0,0.0,-1.1319,-1.1825,-1.3117,-1.4375,-1.3607,-1.5361,-1.7748,-1.7825,-1.9125,-2.0802,-2.1874,-2.2903,-2.3824,-2.4403,-2.3982,-2.2406,-1.8602,-1.7105,-1.5285,-1.0958,-0.9699,-0.9197,-0.8543,-0.9075,-0.9963,-1.0999,-1.2555,-1.4259,-1.6069,-1.6955,-1.7943,-1.9388,-1.9637,-1.9999,-2.0637,-1.9782,-1.8531,-1.6917,-1.8335,-1.9251,-1.9157,-2.1298,-2.2422,-2.2138,-2.1186,-1.9926,-1.8384,-1.7641,-1.6573,-1.5062,-1.5017,-1.4789,-1.4373,-1.4419,-1.4373,-1.4233,-1.3705,-1.3266,-1.2919,-1.2403,-1.1868,-1.1418,-1.1175,-1.0972,-1.0871,-1.0522,-0.9621,-0.8554,0.0,0.0,0.0,0.0,0.0,-1.1922,-1.6863,-1.6782,-1.8282,-2.4154,-2.4176,-2.3064,-2.1577,-1.9222,-1.6044,-1.1789,-1.0736,0.0,0.0,0.0,0.0,0.0,0.0,0.0,0.0,0.0,-1.0422,-1.0658,-1.087,-1.0999,0.0,0.0,-1.0903,-1.0666,0.0,0.0,0.0,0.0,0.0,0.0,0.0,0.0,0.0,0.0,0.0,0.0,0.0,0.0,0.0,0.0,0.0,-1.3178,-1.1764,-1.2546,-1.4414,-1.6676,-1.8466,-2.0173,-2.215,-2.3472,-2.4321,-2.4566,-2.3827,-2.2042,-1.817,-1.6442,-1.4482,-1.0348,-0.9465,-0.9109,-0.808,-0.8757,-0.9536,-0.9832,-1.1548,-1.34,-1.4927,-1.6019,-1.7321,-1.9081,-1.9479,-2.0056,-2.1212,-2.0147,-1.8705,-1.7024,-1.8247,-1.9069,-1.9148,-2.1026,-2.2214,-2.2402,-2.1718,-2.0454,-1.8583,-1.7821,-1.6575,-1.4858,-1.4697,-1.4466,-1.414,-1.4093,-1.3988,-1.3836,-1.361,-1.317,-1.2472,-1.2206,-1.1769,-1.1217,-1.0922,-1.0769,-1.0718,-1.0146,-0.9309,-0.8455,0.0,0.0,0.0,0.0,0.0,0.0,-1.6059,-1.7425,-1.9216,-2.2662,-2.2376,-2.1483,-2.0616,-1.6703,-1.4132,-1.4073,-1.1769,0.0,0.0,0.0,0.0,0.0,0.0,0.0,0.0,0.0,-1.069,-1.1495,-1.2357,-1.2771,-1.2774,-1.2774,-1.2349,-1.1555,0.0,0.0,0.0,0.0,0.0,0.0,0.0,0.0,0.0,0.0,0.0,0.0,0.0,0.0,0.0,0.0,0.0,0.0,0.0,-1.0231,-1.1752,-1.6352,-1.8364,-1.9656,-2.2209,-2.3621,-2.4447,-2.4652,-2.3446,-2.1349,-1.8038,-1.6003,-1.3803,-1.0228,-0.9497,-0.9161,-0.8099,-0.7914,-0.8396,-0.9857,-1.0388,-1.1988,-1.584,-1.7068,-1.8342,-2.0428,-2.0852,-2.1086,-2.1386,-1.9577,-1.8076,-1.7258,-1.7852,-1.84,-1.8798,-1.9683,-2.1023,-2.2859,-2.1813,-2.061,-1.9396,-1.8012,-1.6443,-1.4698,-1.4501,-1.414,-1.361,-1.3716,-1.3515,-1.3016,-1.3266,-1.2783,-1.1801,-1.1868,-1.1578,-1.1074,-1.0667,-1.0522,-1.036,-0.9399,-0.856,-0.7818,0.0,0.0,0.0,0.0,0.0,0.0,0.0,-1.3793,-1.4841,-1.8288,-1.7961,-1.7769,-1.8687,-1.5979,-1.4091,-1.4093,-1.1769,0.0,0.0,0.0,0.0,0.0,0.0,0.0,0.0,0.0,-1.1821,-1.3287,-1.4151,-1.4875,-1.5436,-1.4246,-1.3253,-1.2415,-1.0941,-1.0265,0.0,0.0,0.0,0.0,0.0,0.0,-1.0196,0.0,0.0,0.0,0.0,0.0,0.0,0.0,0.0,0.0,0.0,0.0,0.0,-1.6042,-1.7018,-1.7237,-1.9703,-2.0286,-2.0117,-1.9679,-1.8808,-1.7468,-1.5273,-1.3904,-1.2423,-1.0066,-0.9463,-0.9091,-0.8207,-0.8381,-0.9299,-1.1281,-1.2083,-1.3427,-1.6197,-1.7103,-1.7904,-1.9109,-2.0297,-2.0975,-2.0861,-1.9921,-1.9093,-1.86,-1.8994,-1.9228,-1.9214,-1.9964,-2.0556,-2.0834,-2.0388,-1.9375,-1.7804,-1.7056,-1.5975,-1.4501,-1.414,-1.381,-1.3467,-1.3621,-1.3563,-1.3409,-1.3112,-1.257,-1.1873,-1.1384,-1.0846,-1.036,-1.0205,-1.0043,-0.9829,-0.9309,-0.8508,-0.7545,0.0,0.0,0.0,0.0,0.0,0.0,0.0,-1.2163,-1.2941,-1.5399,-1.497,-1.5206,-1.7281,-1.4612,-1.3054,-1.4013,-1.1768,0.0,0.0,0.0,0.0,0.0,0.0,0.0,-1.0251,-1.0772,-1.2207,-1.4559,-1.5757,-1.6968,-1.8113,-1.7355,-1.5878,-1.3775,-1.2363,-1.1162,0.0,0.0,0.0,0.0,0.0,0.0,-1.0157,0.0,0.0,0.0,0.0,0.0,0.0,0.0,0.0,0.0,0.0,0.0,0.0,0.0,-1.491,-1.4637,-1.7992,-1.8365,-1.7721,-1.7352,-1.6434,-1.5264,-1.3912,-1.2686,-1.1442,-0.9939,-0.9555,-0.9303,-0.8708,-0.869,-0.9401,-1.1338,-1.173,-1.2875,-1.5995,-1.68,-1.7697,-1.9361,-2.0701,-2.1275,-2.0747,-2.0139,-1.9681,-1.9485,-1.9358,-1.929,-1.9265,-1.9417,-1.9461,-1.9308,-1.9405,-1.8866,-1.7581,-1.6708,-1.5707,-1.4593,-1.3999,-1.3563,-1.3314,-1.3467,-1.342,-1.3228,-1.3074,-1.2472,0.0,-1.1116,-1.0533,-0.9895,-0.9888,-0.9621,-0.9249,-0.883,-0.7913,-0.673,0.0,0.0,0.0,0.0,0.0,0.0,0.0,-1.2085,-1.2911,-1.3712,-1.3126,-1.3539,-1.597,-1.2678,-1.1257,-1.362,0.0,0.0,0.0,0.0,0.0,0.0,0.0,0.0,-1.0204,-1.0384,-1.2126,-1.5481,-1.7229,-1.9048,-2.0881,-2.1562,-1.9665,-1.5637,-1.4644,-1.2705,0.0,0.0,0.0,0.0,-1.0199,-1.0166,0.0,0.0,0.0,0.0,0.0,0.0,0.0,0.0,0.0,0.0,0.0,0.0,0.0,0.0,0.0,0.0,0.0,-1.7249,-1.6632,-1.6822,-1.5659,-1.426,-1.3518,-1.2132,0.0,-0.9895,-0.9751,-0.9732,-0.9536,-0.8936,-0.9016,-1.0669,-1.0315,-1.134,-1.5696,-1.6644,-1.8026,-2.1081,-2.1873,-2.1911,-2.1151,-2.041,-1.9974,-1.9893,-1.9163,-1.8769,-1.8921,-1.8383,-1.8147,-1.8279,-1.8857,-1.8906,-1.8414,-1.6831,-1.5684,-1.4903,-1.4035,-1.3467,-1.3218,-1.3314,-1.3132,-1.2706,-1.3122,-1.2482,-1.1049,-1.1124,-1.0576,-0.9792,-0.9621,-0.9242,-0.8666,-0.8084,-0.6945,-0.5584,0.0,0.0,0.0,0.0,0.0,0.0,0.0,0.0,0.0,0.0,-1.0933,-1.1058,-1.1669,-1.0878,-1.0532,0.0,0.0,0.0,0.0,0.0,0.0,0.0,0.0,0.0,-1.0289,-1.1558,-1.3914,-1.7372,-1.9067,-2.1455,-2.4442,-2.3314,-2.1226,-1.8298,-1.6078,-1.3264,0.0,0.0,0.0,0.0,-1.0193,-1.0154,0.0,0.0,0.0,0.0,-1.0863,-1.1083,0.0,0.0,0.0,0.0,0.0,0.0,0.0,0.0,-1.2117,-1.0664,-1.249,0.0,-1.2341,-1.1801,-1.1356,-1.101,0.0,-1.0457,-1.0106,-0.9842,-0.9702,-0.9822,-1.0366,-0.9761,-1.0293,-1.3725,-1.4621,-1.593,-1.8942,-2.018,-2.1557,-2.3638,-2.2752,-2.2219,-2.2899,-2.1664,-2.0559,-1.9877,-1.9779,-1.9364,-1.8454,-1.87,-1.8592,-1.8029,-1.8113,-1.7862,-1.7281,-1.6235,-1.5449,-1.4903,-1.3931,-1.3409,-1.3362,-1.3372,-1.3314,-1.318,-1.2812,-1.2169,-1.1425,-1.072,-1.0115,-0.9621,-0.9517,-0.8981,-0.8237,-0.7859,-0.6671,-0.5214,0.0,0.0,0.0,0.0,0.0,0.0,0.0,0.0,0.0,0.0,0.0,-1.0205,-1.0202,-1.0232,0.0,0.0,0.0,0.0,0.0,0.0,0.0,0.0,0.0,-1.0291,-1.0291,-1.158,-1.4132,-1.7998,-1.9688,-2.2272,-2.5633,-2.5092,-2.2848,-1.9098,-1.5295,-1.2552,0.0,0.0,0.0,-1.0796,-1.0796,0.0,0.0,0.0,0.0,0.0,-1.0628,-1.1069,0.0,-1.2837,-1.2996,-1.2895,0.0,0.0,0.0,0.0,-1.1445,-1.0149,-1.0613,-1.0945,-1.1055,-1.0639,-1.0519,-1.0507,-1.0507,-1.0206,-0.9919,-0.985,-0.9793,-0.9979,-1.0782,-1.1187,-1.2068,-1.4187,-1.5947,-1.8124,-2.1166,-2.3398,-2.4807,-2.5076,-2.4339,-2.3646,-2.3143,-2.186,-2.0803,-2.0208,-2.0146,-1.9661,-1.871,-1.8956,-1.8841,-1.8214,-1.7882,-1.7557,-1.7141,-1.6238,-1.5567,-1.5085,-1.4212,-1.3647,-1.342,-1.3314,-1.3314,-1.3266,-1.288,-1.2393,-1.1832,-1.0922,-1.032,-0.9932,-0.9569,-0.8771,-0.7812,-0.7646,-0.6406,-0.4783,0.0,0.0,0.0,0.0,0.0,0.0,0.0,0.0,0.0,0.0,0.0,0.0,0.0,0.0,0.0,0.0,0.0,0.0,0.0,0.0,0.0,0.0,-1.0305,-1.0486,-1.0878,-1.1484,-1.3901,-1.8203,-1.9873,-2.2379,-2.5627,-2.6633,-2.427,-1.8992,-1.4217,-1.1793,0.0,0.0,-1.1305,-1.1299,-1.1295,0.0,0.0,0.0,0.0,0.0,0.0,0.0,0.0,-1.3231,-1.3186,-1.2703,-1.4388,0.0,0.0,0.0,0.0,0.0,-1.0588,-1.1231,-1.1693,-1.1228,-1.1274,-1.1383,-1.1244,-1.0789,-1.0366,-1.0313,-1.0294,-1.0621,-1.1704,-1.3009,-1.4043,-1.4446,-1.6681,-1.9516,-2.2832,-2.5649,-2.6945,-2.5886,-2.5764,-2.5039,-2.3163,-2.1952,-2.1113,-2.0727,-2.0479,-2.0,-1.929,-1.9286,-1.903,-1.85,-1.8028,-1.7693,-1.7474,-1.6552,-1.5844,-1.5355,-1.4582,-1.3978,-1.3563,-1.3314,-1.3218,-1.3218,-1.3113,-1.2725,-1.2107,-1.1334,-1.0787,-1.0352,-0.9621,-0.8606,-0.7486,-0.7439,-0.6195,-0.446,0.0,0.0,0.0,0.0,0.0,0.0,0.0,0.0,0.0,0.0,0.0,0.0,0.0,0.0,0.0,0.0,0.0,0.0,0.0,0.0,0.0,-1.0305,-1.0305,-1.1306,-1.3476,-1.2988,-1.4802,-1.9091,-2.0781,-2.2966,-2.5634,-2.7316,-2.4901,-1.9076,-1.6127,-1.3164,-1.0396,-1.0407,-1.0401,-1.0399,-1.0347,0.0,0.0,0.0,0.0,0.0,0.0,0.0,0.0,-1.2403,-1.1912,-1.0904,-1.2631,0.0,0.0,0.0,0.0,0.0,-1.2746,-1.3894,-1.3825,-1.0995,-1.1343,-1.2185,-1.1456,-1.1717,-1.211,-1.211,-1.2097,-1.2808,-1.508,-1.5162,-1.5802,-1.8628,-2.0633,-2.2477,-2.436,-2.5023,-2.562,-2.6358,-2.5186,-2.4514,-2.5066,-2.3562,-2.2142,-2.1247,-2.1304,-2.0789,-1.9421,-1.9596,-1.9266,-1.8344,-1.8266,-1.8082,-1.776,-1.6938,-1.617,-1.5546,-1.4812,-1.4362,-1.4233,-1.3658,-1.3372,-1.3372,-1.3065,-1.2627,-1.2076,-1.141,-1.0854,-1.03,-0.9524,-0.8448,-0.732,-0.7182,-0.5928,-0.4236,0.0,0.0,0.0,0.0,0.0,0.0,0.0,0.0,0.0,0.0,0.0,0.0,0.0,0.0,0.0,0.0,0.0,0.0,0.0,0.0,-1.0877,-1.2294,-1.1898,-1.241,-1.406,-1.5117,-1.7753,-2.2069,-2.3769,-2.5661,-2.7654,-2.5698,-2.2539,-1.8373,-1.5331,-1.2837,-1.0892,-1.0909,-1.09,-1.0898,0.0,0.0,0.0,0.0,0.0,0.0,0.0,0.0,0.0,0.0,-1.2184,-1.2378,-1.2703,0.0,0.0,0.0,0.0,0.0,-1.1536,-1.2771,-1.3495,-1.2411,-1.4099,-1.5902,-1.5542,-1.5376,-1.5037,-1.4099,-1.3932,-1.4436,-1.6009,-1.6809,-1.8474,-2.2373,-2.3636,-2.4659,-2.6258,-2.6864,-2.7158,-2.7142,-2.6378,-2.5589,-2.4972,-2.3623,-2.2527,-2.1831,-2.1806,-2.1373,-2.0369,-2.0431,-2.002,-1.8985,-1.8831,-1.8461,-1.7908,-1.776,-1.712,-1.5996,-1.5197,-1.4536,-1.4046,-1.318,-1.2842,-1.3007,-1.2569,-1.2382,-1.2382,-1.1519,-1.1006,-1.0626,-0.9614,-0.8402,-0.7106,-0.6317,-0.5449,-0.468,0.0,0.0,0.0,0.0,0.0,0.0,0.0,0.0,0.0,0.0,0.0,0.0,0.0,0.0,0.0,0.0,0.0,0.0,0.0,0.0,-1.1174,-1.3382,-1.3432,-1.4196,-1.587,-1.7478,-2.0389,-2.4684,-2.6228,-2.7725,-2.9065,-2.4319,-2.0584,-1.7769,-1.453,-1.2394,-1.1226,-1.1222,-1.1208,-1.1203,0.0,0.0,0.0,0.0,0.0,0.0,0.0,0.0,0.0,0.0,0.0,0.0,0.0,0.0,0.0,-1.1993,-1.1147,-1.0554,-1.1158,-1.226,-1.3479,-1.4538,-1.6272,-1.7957,-1.8838,-1.819,-1.7215,-1.6477,-1.638,-1.6712,-1.7668,-1.9323,-2.1643,-2.4969,-2.5478,-2.5875,-2.711,-2.7853,-2.8,-2.7225,-2.6983,-2.6231,-2.4591,-2.3626,-2.2978,-2.2581,-2.2398,-2.2054,-2.1447,-2.1313,-2.0719,-1.9602,-1.9383,-1.8921,-1.8187,-1.8461,-1.7867,-1.6502,-1.5752,-1.4926,-1.3999,-1.2832,-1.2403,-1.2627,-1.2076,-1.2076,-1.2431,-1.1569,-1.1108,-1.0872,-0.9762,-0.8396,-0.6956,-0.5773,-0.5234,-0.5128,0.0,0.0,0.0,0.0,0.0,0.0,0.0,0.0,0.0,0.0,0.0,0.0,0.0,0.0,0.0,0.0,0.0,0.0,0.0,0.0,-1.0641,-1.1646,-1.3952,-1.7109,-2.1166,-1.9842,-2.1216,-2.5509,-2.6459,-2.7347,-2.8124,-2.4566,-2.1114,-1.7786,-1.5165,-1.2656,-1.0381,-1.0389,-1.0359,-1.0289,-1.0282,0.0,0.0,0.0,0.0,0.0,0.0,0.0,0.0,0.0,0.0,0.0,0.0,0.0,-1.2787,-1.2727,-1.2099,-1.1929,-1.4283,-1.5018,-1.5478,-1.7048,-1.5824,-1.5111,-1.8352,-1.7787,-1.7228,-1.9451,-1.998,-2.0508,-2.212,-2.3889,-2.5238,-2.5532,-2.5595,-2.5634,-2.5746,-2.5804,-2.5826,-2.574,-2.5526,-2.5226,-2.4889,-2.4398,-2.3964,-2.362,-2.3397,-2.3035,-2.2436,-2.1939,-2.1064,-1.9825,-1.9823,-1.9471,-1.8745,-1.8592,-1.8028,-1.7157,-1.6502,-1.5708,-1.4766,-1.3283,-1.253,-1.2412,-1.1918,-1.1828,-1.1927,-1.1728,-1.1318,-1.0744,-1.002,-0.8659,-0.7025,-0.6218,-0.5563,-0.5128,0.0,0.0,0.0,0.0,0.0,0.0,0.0,0.0,0.0,0.0,0.0,0.0,0.0,0.0,0.0,0.0,0.0,0.0,0.0,-1.0211,-1.1064,-1.3026,-1.4542,-1.6595,-1.9314,-2.1867,-2.4744,-2.7955,-2.8799,-2.8547,-2.7206,-2.3234,-1.9561,-1.6175,-1.3613,-1.1678,-1.0292,-1.0305,-1.0295,-1.0263,-1.0222,-1.018,0.0,0.0,0.0,0.0,0.0,0.0,0.0,0.0,-1.1483,-1.2303,-1.207,-1.2731,-1.3491,-1.2966,-1.2175,-1.1715,-1.2687,-1.4121,-1.5497,-1.6066,-1.6299,-1.7147,-2.0006,-2.0565,-2.0894,-2.2357,-2.232,-2.2228,-2.2901,-2.4433,-2.5593,-2.56,-2.5606,-2.559,-2.559,-2.5639,-2.5648,-2.5593,-2.5503,-2.5357,-2.5108,-2.4892,-2.4604,-2.4236,-2.41,-2.3792,-2.327,-2.271,-2.1877,-2.0782,-2.0456,-1.9969,-1.9221,-1.8907,-1.8433,-1.776,-1.6642,-1.5732,-1.4971,-1.3595,-1.2706,-1.2236,-1.176,-1.1669,-1.1728,-1.1065,-1.0744,-1.0525,-0.9176,-0.7919,-0.6912,-0.6218,-0.5559,-0.4956,0.0,0.0,0.0,0.0,0.0,0.0,0.0,0.0,0.0,0.0,0.0,0.0,0.0,0.0,0.0,0.0,0.0,0.0,-1.0191,-1.018,-1.1082,-1.3159,-1.4273,-1.5664,-1.7422,-2.2207,-2.569,-2.7757,-2.9101,-2.8311,-2.5499,-2.1737,-1.8591,-1.5978,-1.3151,-1.1751,-1.1462,-1.0936,-1.0555,-1.031,-1.0243,-1.0224,0.0,0.0,0.0,0.0,0.0,0.0,0.0,0.0,-1.144,-1.2375,-1.2344,-1.3144,-1.3984,-1.3389,-1.3171,-1.3076,-1.2785,-1.4223,-1.5853,-1.6068,-1.7029,-1.8574,-2.1066,-2.1888,-2.2578,-2.4217,-2.4173,-2.3835,-2.3883,-2.4826,-2.5605,-2.5602,-2.5604,-2.5604,-2.5621,-2.5657,-2.5668,-2.5632,-2.5629,-2.5566,-2.5389,-2.5267,-2.5033,-2.4657,-2.4507,-2.4282,-2.3858,-2.3356,-2.2633,-2.1669,-2.1238,-2.0651,-1.9849,-1.9325,-1.8779,-1.8263,-1.698,-1.5964,-1.5152,-1.3878,-1.2928,-1.2218,-1.171,-1.1528,-1.1519,-1.0761,-1.0344,-1.0064,-0.8659,-0.7605,-0.675,-0.6322,-0.5614,-0.4791,0.0,0.0,0.0,0.0,0.0,0.0,0.0,0.0,0.0,0.0,0.0,0.0,0.0,0.0,0.0,0.0,0.0,0.0,-1.0211,-1.0144,-1.049,-1.1354,-1.3006,-1.4694,-1.6399,-2.0512,-2.3144,-2.4215,-2.6668,-2.6146,-2.2803,-2.027,-1.8617,-1.7612,-1.4294,-1.3279,-1.3952,-1.2285,-1.1086,-1.0315,-1.0299,-1.0266,-1.0215,0.0,0.0,0.0,0.0,0.0,0.0,0.0,-1.1496,-1.1796,-1.3534,-1.4082,-1.4101,-1.4082,-1.5311,-1.6456,-1.5529,-1.5971,-1.6894,-1.7676,-1.7964,-1.8693,-2.1141,-2.1041,-2.1396,-2.4878,-2.5599,-2.5613,-2.559,-2.5602,-2.5605,-2.5601,-2.5593,-2.562,-2.5698,-2.5644,-2.5625,-2.5681,-2.5697,-2.5694,-2.5693,-2.5516,-2.5258,-2.4936,-2.4718,-2.4456,-2.4133,-2.3855,-2.3285,-2.2434,-2.2078,-2.15,-2.062,-1.9814,-1.9118,-1.8574,-1.7666,-1.6582,-1.5377,-1.4111,-1.312,-1.2365,-1.176,-1.1418,-1.1276,-1.1023,-1.03,-0.9361,-0.8837,-0.7765,-0.6588,-0.6588,-0.5773,-0.4743,0.0,0.0,0.0,0.0,0.0,0.0,0.0,0.0,0.0,0.0,0.0,0.0,0.0,0.0,0.0,0.0,0.0,0.0,-1.0133,-1.0112,-1.0223,-1.047,-1.2727,-1.3595,-1.2787,-1.5778,-1.9857,-2.4965,-2.4532,-2.2909,-2.0203,-1.8867,-1.6829,-1.427,-1.3874,-1.2858,-1.1381,-1.0898,-1.0897,-1.1165,-1.0553,-1.0638,-1.1045,0.0,0.0,0.0,0.0,0.0,0.0,0.0,0.0,0.0,-1.2114,-1.3116,-1.398,-1.3376,-1.355,-1.3762,-1.2878,-1.5026,-1.7316,-1.6386,-1.9316,-2.2476,-2.2647,-2.1975,-2.1949,-2.4213,-2.5668,-2.6334,-2.5715,-2.5605,-2.5599,-2.5593,-2.5598,-2.5617,-2.5629,-2.5644,-2.568,-2.57,-2.5703,-2.5673,-2.5632,-2.5578,-2.5389,-2.5077,-2.4898,-2.4629,-2.4266,-2.3998,-2.3617,-2.3117,-2.26,-2.1905,-2.1048,-2.0141,-1.939,-1.8817,-1.7854,-1.6837,-1.58,-1.4983,-1.4133,-1.3236,-1.257,-1.208,-1.1733,-1.0998,-1.0095,-0.9113,-0.8956,-0.8037,-0.6799,-0.6799,-0.5937,-0.4632,0.0,0.0,0.0,0.0,0.0,0.0,0.0,0.0,0.0,0.0,-0.9918,-0.9952,0.0,0.0,0.0,0.0,0.0,0.0,-1.0067,-1.0044,-1.0192,-1.055,-1.2035,-1.28,-1.2664,-1.4863,-1.7731,-2.1259,-2.0966,-1.9889,-1.8111,-1.8319,-1.7482,-1.5845,-1.6393,-1.5394,-1.3309,-1.2988,-1.2362,-1.1578,-1.1398,-1.1409,-1.1453,0.0,0.0,0.0,0.0,0.0,0.0,0.0,0.0,0.0,-1.1425,-1.2253,-1.321,-1.3653,-1.4526,-1.5375,-1.5504,-1.769,-1.9848,-1.9495,-2.162,-2.3742,-2.3613,-2.341,-2.3547,-2.4598,-2.564,-2.6225,-2.5703,-2.5574,-2.5558,-2.5515,-2.5511,-2.5537,-2.556,-2.5609,-2.5645,-2.5689,-2.5701,-2.5681,-2.5634,-2.5629,-2.5485,-2.5197,-2.5057,-2.485,-2.4556,-2.4337,-2.4137,-2.3971,-2.3017,-2.2192,-2.1485,-2.0412,-1.9441,-1.8574,-1.8054,-1.7214,-1.6044,-1.5591,-1.4744,-1.3616,-1.2764,-1.203,-1.1316,-1.0897,-1.0035,-0.9008,-0.8962,-0.8203,-0.7182,-0.6907,-0.6041,-0.4952,0.0,0.0,0.0,0.0,0.0,0.0,0.0,0.0,0.0,-0.9888,-0.9838,-0.985,0.0,0.0,0.0,-0.9968,-0.9993,-0.9995,-0.9982,-0.9941,-1.032,-1.1239,-1.1301,-1.241,-1.4734,-1.6215,-1.6213,-1.475,-1.6554,-1.7115,-1.6527,-1.8271,-1.9469,-2.0167,-2.0233,-1.9251,-1.7499,-1.6522,-1.4373,-1.1657,-1.2457,-1.2278,-1.1527,-1.1566,0.0,0.0,0.0,0.0,0.0,0.0,0.0,0.0,-1.1297,-1.1592,-1.2033,-1.4289,-1.6804,-1.9157,-2.0603,-2.1919,-2.3234,-2.476,-2.4171,-2.3435,-2.4227,-2.5019,-2.5561,-2.5499,-2.5535,-2.5605,-2.559,-2.5539,-2.5473,-2.5398,-2.5401,-2.5426,-2.5479,-2.5493,-2.5546,-2.5676,-2.5689,-2.5681,-2.5691,-2.5642,-2.5517,-2.5321,-2.5177,-2.503,-2.493,-2.4785,-2.4756,-2.482,-2.3404,-2.2433,-2.1961,-2.0671,-1.9391,-1.8224,-1.8252,-1.753,-1.6231,-1.5932,-1.5039,-1.3606,-1.2589,-1.1501,-1.0474,-1.0694,-1.0087,-0.9008,-0.8857,-0.8368,-0.7616,-0.6966,-0.6199,-0.5437,0.0,0.0,0.0,0.0,0.0,0.0,0.0,0.0,-0.9808,-0.9828,-0.9815,-0.9815,-0.9849,-0.9835,0.0,-0.9837,-0.9837,-0.9869,-0.9923,-0.9946,-1.0347,-1.1186,-1.239,-1.3341,-1.3934,-1.364,-1.3031,-1.212,-1.3825,-1.4976,-1.5616,-1.7359,-1.8278,-1.8445,-1.8442,-1.7146,-1.4779,-1.2593,-1.1621,-1.1543,-1.1775,-1.1769,-1.157,-1.1541,-1.1001,0.0,0.0,0.0,0.0,0.0,0.0,0.0,-1.124,-1.1513,-1.1622,-1.2153,-1.4134,-1.6075,-1.5734,-1.8705,-2.1998,-2.2358,-2.3718,-2.5005,-2.5208,-2.5392,-2.5336,-2.4702,-2.5111,-2.5588,-2.5531,-2.5507,-2.548,-2.5418,-2.5404,-2.5404,-2.5421,-2.5464,-2.5537,-2.5617,-2.5609,-2.5638,-2.5696,-2.5645,-2.5547,-2.5386,-2.5207,-2.5061,-2.4986,-2.4911,-2.4892,-2.4953,-2.3731,-2.2883,-2.2435,-2.0857,-1.9743,-1.9087,-1.8305,-1.7476,-1.6642,-1.6083,-1.4971,-1.3457,-1.29,-1.19,-1.0744,-1.0812,-1.0146,-0.9008,-0.9061,-0.8521,-0.767,-0.7658,-0.6745,-0.5618,0.0,0.0,0.0,0.0,0.0,0.0,0.0,0.0,-0.9801,-0.9805,-0.978,-0.9754,-0.9743,-0.9747,0.0,0.0,-0.9805,-0.9828,-0.9888,-0.9937,-1.0313,-1.1118,-1.2712,-1.3242,-1.2474,-1.2388,-1.1805,-1.0682,-1.1542,-1.2689,-1.408,-1.5447,-1.6518,-1.7306,-1.775,-1.651,-1.405,-1.3136,-1.2261,-1.1536,-1.1992,-1.1913,-1.1541,-1.1551,-1.103,-1.0293,-1.0253,0.0,0.0,0.0,0.0,0.0,0.0,0.0,-1.1176,-1.2384,-1.3665,-1.5121,-1.7136,-1.96,-2.1891,-2.3118,-2.4438,-2.5447,-2.5454,-2.5447,-2.5329,-2.4904,-2.5206,-2.5546,-2.5512,-2.5473,-2.5449,-2.5404,-2.5369,-2.5351,-2.5351,-2.5376,-2.543,-2.554,-2.555,-2.5583,-2.5641,-2.5622,-2.5563,-2.5505,-2.5348,-2.5252,-2.528,-2.5158,-2.5148,-2.5281,-2.4155,-2.3359,-2.2998,-2.1434,-2.018,-1.9256,-1.844,-1.7504,-1.6386,-1.5466,-1.4514,-1.3542,-1.3122,-1.2089,-1.0804,-1.0863,-1.0146,-0.9113,-0.9008,-0.8685,-0.8209,-0.783,-0.7182,-0.6376,0.0,0.0,0.0,0.0,0.0,0.0,0.0,0.0,0.0,-0.9798,-0.9747,-0.971,-0.971,-0.9706,-0.9725,0.0,0.0,0.0,-0.9868,-1.0019,-1.04,-1.1068,-1.256,-1.2721,-1.1337,-1.1828,-1.1467,-1.0182,-1.0043,-1.09,-1.2695,-1.3632,-1.5057,-1.6833,-1.7153,-1.6202,-1.4326,-1.4459,-1.325,-1.1343,-1.2222,-1.2049,-1.1306,-1.1503,-1.1035,-1.0283,-1.0287,-1.0254,-1.0202,-1.0263,0.0,0.0,0.0,0.0,-1.0697,-1.2817,-1.3691,-1.4892,-1.9035,-2.0746,-2.2007,-2.4724,-2.5389,-2.537,-2.5369,-2.5367,-2.5385,-2.5393,-2.5456,-2.5493,-2.5498,-2.5456,-2.5406,-2.5398,-2.5341,-2.5293,-2.5293,-2.5274,-2.5321,-2.5473,-2.549,-2.5527,-2.5605,-2.5619,-2.5598,-2.561,-2.549,-2.5471,-2.56,-2.5447,-2.5432,-2.5593,-2.4544,-2.3843,-2.3537,-2.1756,-2.0337,-1.9334,-1.8503,-1.745,-1.612,-1.4846,-1.4118,-1.3768,-1.3112,-1.2089,-1.0905,-1.0905,-1.0336,-0.9361,-0.9113,-0.8962,-0.8804,-0.8049,-0.7509,-0.7074,0.0,0.0,0.0,0.0,0.0,0.0,0.0,0.0,0.0,0.0,-0.9747,-0.971,-0.971,-0.9706,-0.9706,-0.971,-0.971,-0.9736,-0.9805,0.0,0.0,-1.1108,-1.1982,-1.2368,-1.2138,-1.1569,-1.1168,-1.0942,-1.0256,-1.0808,-1.2547,-1.3542,-1.5349,-1.7622,-1.5488,-1.4795,-1.5037,-1.2128,-1.0684,-1.0459,-1.1328,-1.1159,-1.0456,-1.1223,-1.0964,-1.0208,-1.0208,-1.0203,-1.0193,-1.0201,-1.0245,0.0,0.0,0.0,-1.0275,-1.0621,-1.229,-1.3985,-1.3911,-1.7111,-2.1278,-2.457,-2.5351,-2.5313,-2.5313,-2.5303,-2.5341,-2.5387,-2.5448,-2.5507,-2.5507,-2.5448,-2.5406,-2.5398,-2.5332,-2.5282,-2.522,-2.5212,-2.5264,-2.5406,-2.5413,-2.5488,-2.5673,-2.5624,-2.5621,-2.5673,-2.5613,-2.559,-2.5603,-2.5573,-2.5564,-2.56,-2.4725,-2.4201,-2.4091,-2.095,-1.9672,-2.0208,-1.8058,-1.6967,-1.6824,-1.532,-1.4329,-1.3721,-1.254,-1.1819,-1.1418,-1.1418,-1.0947,-1.0218,-1.0087,-0.9732,-0.9263,-0.8949,-0.8037,-0.6907,0.0,0.0,0.0,0.0,0.0,0.0,0.0,0.0,0.0,0.0,0.0,-0.9669,-0.9597,-0.9612,-0.9628,-0.9586,-0.9612,-0.9665,-0.9691,-1.0057,-1.0265,-1.0265,-1.0636,-1.0837,-1.0848,-1.0532,-1.038,-1.0363,-1.005,-1.0784,-1.2515,-1.2944,-1.3817,-1.491,-1.3264,-1.2523,-1.2351,-1.0331,-0.947,-0.9496,-0.9716,-1.0558,-1.1581,-1.0998,-1.1729,-1.2814,-1.09,-1.0201,-1.0199,-1.0199,-1.0248,-1.0298,-1.0293,0.0,0.0,0.0,-0.9975,-1.1111,-1.4037,-1.785,-2.1725,-2.4666,-2.5351,-2.5313,-2.5351,-2.5361,-2.5369,-2.5448,-2.5484,-2.5511,-2.5511,-2.5451,-2.5379,-2.5351,-2.5292,-2.5239,-2.5198,-2.5198,-2.5243,-2.5387,-2.5425,-2.5512,-2.5627,-2.5641,-2.5663,-2.5701,-2.5668,-2.5652,-2.5655,-2.5613,-2.5601,-2.5598,-2.5127,-2.4861,-2.4823,-2.1657,-1.9467,-1.8338,-1.7571,-1.7118,-1.6892,-1.5241,-1.4147,-1.3585,-1.2579,-1.1719,-1.1015,-1.1116,-1.0744,-1.0167,-0.9925,-0.9621,-0.9242,-0.8765,-0.7978,-0.7032,0.0,0.0,0.0,0.0,0.0,0.0,0.0,0.0,0.0,0.0,0.0,-0.9641,-0.9517,0.0,0.0,0.0,-0.9375,-0.9281,-0.9242,-0.9466,-0.9601,-0.9575,-0.9654,-0.9692,-0.9692,-0.9771,-0.9793,-0.9806,-0.985,-1.098,-1.3102,-1.2903,-1.3213,-1.3882,-1.2607,-1.1466,-1.0468,-0.9591,-0.9234,-0.9245,-0.9477,-1.0763,-1.2542,-1.2236,-1.3703,-1.5486,-1.2065,-1.0984,-1.1025,-1.0168,-1.0049,-1.0239,-1.0036,-0.953,0.0,0.0,0.0,-0.8566,-1.4057,-1.7225,-1.9876,-2.3537,-2.4389,-2.4524,-2.5235,-2.5224,-2.5153,-2.5414,-2.5298,-2.5232,-2.5445,-2.5423,-2.537,-2.5313,-2.5241,-2.5187,-2.5184,-2.5195,-2.5239,-2.5351,-2.5426,-2.5515,-2.5595,-2.565,-2.5683,-2.5691,-2.57,-2.5703,-2.5703,-2.5643,-2.5613,-2.558,-2.5413,-2.5333,-2.5346,-2.2413,-1.9374,-1.6316,-1.7107,-1.738,-1.7031,-1.5363,-1.4242,-1.358,-1.2444,-1.1501,-1.0659,-1.0659,-1.0498,-1.0174,-0.9821,-0.9518,-0.9226,-0.8588,-0.7804,-0.6979,0.0,0.0,0.0,0.0,0.0,0.0,0.0,0.0,0.0,0.0,0.0,-0.9641,-0.9517,-0.9557,-0.9573,-0.9508,-0.8871,-0.8403,-0.8275,-0.9117,-0.9575,-0.9506,-0.962,0.0,-0.9692,-0.9761,-0.9803,-0.9806,-0.9806,-1.1516,-1.476,-1.3997,-1.4958,-1.7229,-1.4837,-1.2908,-1.1372,-1.0498,-1.0141,-1.0273,-1.186,-1.2262,-1.2359,-1.6019,-1.7528,-1.7219,-1.3794,-1.3106,-1.3311,-1.0061,-0.9518,-1.0061,-0.93,-0.9035,-0.8829,0.0,0.0,0.0,-1.1728,-1.2421,-1.3518,-2.0157,-2.1751,-2.2359,-2.483,-2.4769,-2.4408,-2.5228,-2.4791,-2.4509,-2.5266,-2.5404,-2.5369,-2.5313,-2.5241,-2.5184,-2.5107,-2.5175,-2.5203,-2.5217,-2.5322,-2.5461,-2.5593,-2.5605,-2.5637,-2.5703,-2.5703,-2.5699,-2.5703,-2.5691,-2.5644,-2.5517,-2.543,-2.5438,-2.5492,-2.2758,-1.9311,-1.5306,-1.6799,-1.7557,-1.7585,-1.6046,-1.4835,-1.3843,-1.176,-1.0889,-1.082,-1.0285,-1.0387,-1.0761,-1.0079,-0.9685,-0.9479,-0.8699,-0.7666,-0.6573,0.0,0.0,0.0,0.0,0.0,0.0,0.0,0.0,0.0,0.0,0.0,0.0,0.0,-0.9403,-0.9188,-0.8654,-0.7924,-0.7662,-0.8057,-0.8356,-0.8744,-0.9295,-0.9386,-0.9482,-0.9575,-0.9649,-0.9692,-0.9745,-0.9773,-1.1014,-1.335,-1.3064,-1.3721,-1.5119,-1.4289,-1.3287,-1.2142,-1.019,-0.9358,-0.9474,-1.0638,-1.263,-1.5492,-2.0734,-2.2745,-2.23,-1.8871,-1.642,-1.4565,-1.2762,-1.1312,-1.0118,-0.9261,-0.8618,-0.7886,-0.6451,-0.6198,-0.7086,-1.0238,-1.1244,-1.2513,-1.7176,-1.9538,-2.1128,-2.2612,-2.3978,-2.5045,-2.5395,-2.5213,-2.5062,-2.534,-2.5404,-2.537,-2.5253,-2.519,-2.5141,-2.5095,-2.5125,-2.5145,-2.519,-2.5321,-2.5446,-2.5585,-2.5597,-2.5627,-2.5684,-2.5703,-2.5676,-2.5637,-2.56,-2.5078,-2.3999,-2.3879,-2.2585,-1.993,-1.9399,-1.7634,-1.4653,-1.5588,-1.5979,-1.5811,-1.4336,-1.3455,-1.2962,-1.1273,-1.0474,-1.0336,-1.0072,-1.002,-1.0035,-0.9769,-0.9365,-0.8919,-0.8387,-0.73,-0.5992,0.0,0.0,0.0,0.0,0.0,0.0,0.0,0.0,0.0,-0.8479,0.0,0.0,0.0,0.0,-0.9037,-0.8237,-0.7715,-0.75,-0.7622,-0.7605,-0.784,-0.84,-0.8514,-0.8732,-0.9085,-0.8901,-0.8949,-0.9303,-0.9077,-1.0025,-1.2064,-1.2053,-1.2839,-1.4181,-1.3372,-1.2746,-1.216,-1.0468,-0.9591,-0.9504,-1.1504,-1.3868,-1.6774,-2.2474,-2.4099,-2.3016,-2.045,-1.8266,-1.6394,-1.5225,-1.3949,-1.245,-1.0443,-0.8441,-0.6607,-0.5449,-0.5509,-0.6399,-0.8379,-0.9289,-1.064,-1.4621,-1.6471,-1.8112,-2.1235,-2.2579,-2.3598,-2.5042,-2.5062,-2.4909,-2.5188,-2.5234,-2.5212,-2.5141,-2.508,-2.5025,-2.4999,-2.5063,-2.5115,-2.5157,-2.5293,-2.5439,-2.5556,-2.5574,-2.5593,-2.5683,-2.5676,-2.564,-2.5566,-2.5459,-2.4625,-2.2959,-2.2996,-2.1002,-1.678,-1.7999,-1.7106,-1.4075,-1.5499,-1.5517,-1.4257,-1.4103,-1.3361,-1.2242,-1.099,-1.0379,-1.0174,-0.9755,-0.9555,-0.951,-0.9302,-0.8843,-0.8316,-0.7983,-0.6911,-0.5525,0.0,0.0,0.0,0.0,0.0,0.0,0.0,0.0,-0.8486,-0.841,0.0,0.0,0.0,0.0,0.0,-0.8404,-0.8278,-0.7848,-0.6962,-0.6931,-0.6938,-0.6902,-0.7016,-0.7468,-0.8272,-0.7573,-0.7616,-0.8501,-0.7687,-0.8616,-1.1112,-1.1125,-1.2471,-1.4741,-1.2343,-1.1273,-1.1311,-1.1292,-1.0872,-1.0594,-1.4724,-1.599,-1.5961,-2.0972,-2.1372,-1.918,-1.8332,-1.8519,-1.8924,-1.7225,-1.7101,-1.6943,-1.2637,-0.8447,-0.5091,-0.51,-0.5097,-0.5283,0.0,0.0,0.0,-1.2435,-1.2507,-1.3273,-2.0623,-2.0431,-1.9858,-2.4029,-2.4176,-2.3871,-2.4746,-2.4896,-2.491,-2.4974,-2.4942,-2.487,-2.4804,-2.4962,-2.5091,-2.5094,-2.5271,-2.5412,-2.5486,-2.5486,-2.5547,-2.5676,-2.5629,-2.5556,-2.5479,-2.5253,-2.431,-2.256,-2.2821,-2.093,-1.6624,-1.8849,-1.7853,-1.3716,-1.6617,-1.6368,-1.3351,-1.5531,-1.4801,-1.1826,-1.099,-1.0592,-1.0498,-0.9302,-0.904,-0.9309,-0.8633,-0.8177,-0.7848,-0.7522,-0.6476,-0.526,0.0,0.0,0.0,0.0,0.0,-0.7298,-0.7518,-0.8101,-0.8454,0.0,0.0,0.0,-0.9385,-0.8886,-0.8689,-0.9002,-0.7465,-0.6585,-0.6812,-0.6263,-0.6189,-0.6808,-0.6818,-0.7236,-0.813,-0.744,-0.7507,-0.8429,-0.7617,-0.7939,-0.9324,-0.9357,-1.0095,-1.1344,-1.0671,-1.0044,-0.9476,-0.8888,-0.959,-1.1239,-1.3034,-1.5483,-1.8335,-2.103,-2.2745,-2.3686,-2.34,-2.2267,-2.083,-2.034,-1.7899,-1.4306,-1.0005,-0.7023,-0.5091,-0.5106,-0.5093,-0.5149,-0.5337,0.0,0.0,0.0,0.0,0.0,-1.4558,-1.5765,-1.7336,-2.135,-2.1559,-2.1806,-2.4358,-2.4723,-2.4632,-2.4693,-2.4731,-2.4768,-2.4802,-2.4851,-2.4929,-2.5069,-2.5176,-2.5274,-2.5354,-2.5352,-2.5367,-2.5418,-2.5401,-2.535,-2.5286,-2.3932,-2.2923,-2.2374,-2.1044,-1.9137,-1.6607,-1.6916,-1.6477,-1.5326,-1.5799,-1.5558,-1.4717,-1.4716,-1.346,-1.1215,-1.0705,-1.0458,-1.0379,-0.9361,-0.8896,-0.8784,-0.8527,-0.7974,-0.7338,-0.6996,-0.6108,-0.5005,0.0,0.0,-0.6526,-0.694,-0.7684,-0.8248,-0.8273,-0.8975,-0.9338,0.0,0.0,0.0,-0.9403,-0.9553,-0.957,-0.9365,-0.7787,-0.6833,-0.6881,-0.6091,-0.5705,-0.5873,-0.6164,-0.6745,-0.7614,-0.6896,-0.6941,-0.7866,-0.7044,-0.6958,-0.7525,-0.793,-0.8394,-0.8907,-0.8571,-0.8356,-0.8183,-0.7008,-0.7979,-1.0568,-1.3546,-1.5623,-1.7304,-2.0781,-2.2397,-2.2914,-2.3923,-2.2887,-2.1255,-2.2607,-1.9419,-1.4428,-1.1571,-0.8532,-0.5889,-0.524,-0.5492,-0.5819,-0.5139,-0.5456,-0.6175,-0.7084,0.0,0.0,-1.3516,-1.4692,-1.6366,-2.1362,-2.2056,-2.2332,-2.4214,-2.4508,-2.4442,-2.4442,-2.4461,-2.453,-2.4629,-2.4704,-2.4691,-2.4512,-2.4529,-2.4624,-2.4744,-2.4764,-2.4915,-2.5275,-2.5266,-2.5159,-2.4927,-2.3344,-2.24,-2.2296,-2.126,-1.943,-1.6731,-1.7871,-1.764,-1.5974,-1.737,-1.6847,-1.4621,-1.5317,-1.369,-1.0332,-1.0016,-0.9984,-1.0042,-0.9069,-0.8718,-0.8679,-0.8421,-0.7792,-0.6959,-0.6795,-0.6033,-0.5084,0.0,0.0,-0.749,-0.8366,-0.9319,-1.0005,-1.0149,-1.0735,-1.0909,0.0,-1.0059,-1.0005,-0.9998,-1.1026,-1.1186,-0.9864,-0.8806,-0.7863,-0.7056,-0.6247,-0.5436,-0.4622,-0.5349,-0.6138,-0.6949,-0.6188,-0.6202,-0.7059,-0.6185,-0.5832,-0.6005,-0.6775,-0.7175,-0.7232,-0.6512,-0.6572,-0.7141,-0.582,-0.6728,-0.9529,-1.4782,-1.5919,-1.5031,-2.0469,-2.1339,-1.9961,-2.2163,-2.2036,-2.1205,-2.3781,-2.106,-1.6365,-1.509,-1.1645,-0.7705,-0.5807,-0.6043,-0.666,-0.5473,-0.6223,-0.7542,-0.8235,-0.7358,0.0,-1.4414,-1.4703,-1.5373,-2.1455,-2.2629,-2.2683,-2.3051,-2.3288,-2.3342,-2.3161,-2.3492,-2.3916,-2.4336,-2.4526,-2.4369,-2.3674,-2.3638,-2.3751,-2.3966,-2.3976,-2.4341,-2.5202,-2.5139,-2.4841,-2.4414,-2.3179,-2.2465,-2.243,-2.2656,-2.091,-1.7025,-2.0266,-1.9992,-1.6184,-2.0031,-1.9133,-1.4218,-1.6735,-1.48,-0.9467,-0.9269,-0.9373,-0.9522,-0.8689,-0.8497,-0.8672,-0.8233,-0.7506,-0.6614,-0.6515,-0.5945,-0.513,-0.661,-0.7343,-0.8259,-0.914,-1.054,-1.1773,-1.2442,-1.2672,-1.2905,-1.3327,-1.3286,-1.3347,-1.378,-1.255,-1.1777,-1.1951,-0.9653,-0.7863,-0.7056,-0.6186,-0.5365,-0.4549,-0.5193,-0.5944,-0.6747,-0.6032,-0.6032,-0.6857,-0.5506,-0.5215,-0.5924,-0.6095,-0.624,-0.6356,-0.6237,-0.5934,-0.5546,-0.6524,-0.8405,-1.0827,-1.199,-1.463,-1.8104,-2.0505,-2.2418,-2.3893,-2.4449,-2.4358,-2.38,-2.2353,-2.058,-1.823,-1.4117,-1.2873,-1.2121,-0.7977,-0.601,-0.5402,-0.6402,-0.7221,-0.7592,-0.6798,-0.6897,0.0,-0.8015,-0.791,-0.8761,-1.255,-1.2822,-1.3172,-1.5812,-1.6817,-1.7064,-1.6551,-1.9042,-2.1825,-2.4007,-2.4248,-2.4039,-2.3578,-2.3539,-2.3651,-2.3888,-2.3866,-2.4179,-2.4998,-2.4453,-2.3948,-2.37,-2.2785,-2.2577,-2.332,-2.3244,-2.1531,-1.8128,-1.9948,-1.9815,-1.7702,-1.9964,-1.9717,-1.7312,-1.7704,-1.4944,-0.9774,-0.9502,-0.9174,-0.8783,-0.8671,-0.8454,-0.8202,-0.7616,-0.6864,-0.6064,-0.5363,-0.4746,-0.4272,-0.7242,-0.8013,-0.9053,-1.0329,-1.1953,-1.3386,-1.4253,-1.4684,-1.4901,-1.4899,-1.5106,-1.489,-1.4008,-1.3298,-1.256,-1.167,-0.9887,-0.8433,-0.7602,-0.6762,-0.5936,-0.5128,-0.5798,-0.6398,-0.6851,-0.6481,-0.6492,-0.6906,-0.5722,-0.5195,-0.5302,-0.5678,-0.6573,-0.7817,-0.6263,-0.6244,-0.7345,-0.6508,-0.735,-0.9543,-1.29,-1.6469,-2.0024,-2.2066,-2.3658,-2.4809,-2.4883,-2.4795,-2.4343,-2.222,-2.0299,-1.8444,-1.6361,-1.5037,-1.3665,-1.0621,-0.9269,-0.8645,-0.8221,-0.8334,-0.8362,-0.7382,-0.7196,0.0,0.0,-0.8011,-0.8747,-1.2261,-1.2392,-1.2462,-1.4523,-1.4938,-1.4958,-1.4988,-1.7563,-1.9613,-1.98,-2.2264,-2.3713,-2.2756,-2.2749,-2.2881,-2.3088,-2.3125,-2.3613,-2.4762,-2.4515,-2.4204,-2.4009,-2.3742,-2.3607,-2.3651,-2.3491,-2.1977,-1.8971,-2.0507,-2.0403,-1.8674,-2.0582,-1.9785,-1.6605,-1.6811,-1.3843,-0.8517,-0.8446,-0.8179,-0.7845,-0.7845,-0.7809,-0.7706,-0.7557,-0.6882,-0.5896,-0.5353,-0.4805,-0.4304,-0.7831,-0.8541,-0.9565,-1.1088,-1.2812,-1.4281,-1.5156,-1.5914,-1.6215,-1.5745,-1.6384,-1.6185,-1.4381,-1.4691,-1.4242,-1.2281,-1.1272,-1.0176,-0.8841,-0.8003,-0.726,-0.6551,-0.6727,-0.7064,-0.7577,-0.7152,-0.6865,-0.6716,-0.5879,-0.5203,-0.4697,-0.527,-0.67,-0.8678,-0.6719,-0.7073,-0.9034,-0.6957,-0.7195,-0.9436,-1.485,-1.7968,-1.9689,-2.2712,-2.388,-2.3933,-2.4457,-2.451,-2.4094,-2.2263,-2.017,-1.8322,-1.8032,-1.6742,-1.4816,-1.2401,-1.2529,-1.2833,-0.9882,-0.9199,-0.9081,-0.82,-0.7652,-0.7705,0.0,0.0,0.0,-1.2609,-1.2753,-1.2537,-1.3177,-1.2974,-1.2839,-1.3214,-1.5479,-1.6469,-1.4423,-1.8708,-2.168,-2.052,-2.1261,-2.185,-2.184,-2.2538,-2.336,-2.427,-2.4538,-2.4538,-2.4228,-2.4195,-2.3929,-2.343,-2.3095,-2.1756,-1.9328,-2.0875,-2.0803,-1.9113,-2.105,-1.9548,-1.5055,-1.5643,-1.2682,-0.7144,-0.7328,-0.7288,-0.7127,-0.7108,-0.719,-0.7337,-0.7485,-0.6813,-0.5735,-0.5436,-0.4905,-0.4291,-0.8303,-0.8867,-0.9376,-1.0285,-1.1949,-1.337,-1.406,-1.4994,-1.5789,-1.6248,-1.7593,-1.8608,-1.8825,-1.85,-1.8093,-1.7627,-1.6389,-1.4325,-1.1311,-1.0425,-0.9858,-0.9531,-0.7597,-0.753,-0.9616,-0.7746,-0.6381,-0.5668,-0.4978,-0.4624,-0.4606,-0.4629,-0.4908,-0.5461,-0.8076,-0.8359,-0.7031,-0.9326,-1.2082,-1.4998,-1.5759,-1.5321,-1.4754,-1.9448,-2.1228,-2.1507,-2.365,-2.4338,-2.3859,-2.1449,-2.0225,-1.8986,-1.5027,-1.6297,-1.7968,-1.1386,-1.2512,-1.4892,-1.0268,-0.9146,-0.8956,-0.7498,-0.7659,-0.7662,-0.5723,0.0,-0.6118,-0.5795,0.0,-0.5622,-0.5725,0.0,0.0,-0.5753,-0.8856,-1.1023,-1.0034,-1.2966,-1.5243,-1.5319,-1.8636,-2.0749,-2.0225,-2.293,-2.4271,-2.3191,-2.3768,-2.3878,-2.3201,-2.1906,-2.155,-2.2344,-2.138,-2.0131,-1.8632,-1.9866,-1.9885,-1.869,-2.0361,-1.9041,-1.5193,-1.5674,-1.2759,-0.727,-0.7379,-0.7308,-0.7188,-0.7384,-0.744,-0.7405,-0.6753,-0.5946,-0.5144,-0.4638,-0.3899,-0.323,-0.7626,-0.8088,-0.8767,-1.0471,-1.1455,-1.2582,-1.4206,-1.6037,-1.7185,-1.6993,-1.8449,-1.9393,-1.9174,-1.8372,-1.7838,-1.7745,-1.6711,-1.4896,-1.2141,-1.1356,-1.0343,-0.8912,-0.7827,-0.7546,-0.818,-0.7217,-0.6347,-0.5617,-0.4823,-0.4497,-0.4604,-0.4534,-0.5859,-0.8306,-0.9143,-1.0402,-1.1837,-1.1059,-1.1599,-1.3048,-1.3499,-1.3306,-1.3447,-2.0296,-2.2839,-2.29,-2.3842,-2.404,-2.368,-2.2522,-2.0491,-1.8518,-1.8893,-1.7879,-1.6102,-1.3859,-1.3718,-1.3489,-0.9956,-1.006,-1.0563,-0.8127,-0.8496,-0.8716,-0.5884,-0.5168,-0.5105,-0.5126,0.0,0.0,0.0,0.0,0.0,0.0,-0.7514,-0.8876,-0.7174,-1.1416,-1.4427,-1.3721,-1.5311,0.0,-1.8215,-1.9907,-2.1235,-2.1971,-2.1004,-2.0909,-2.2127,-2.1562,-2.1258,-2.1376,-2.0615,-1.9752,-1.8802,-1.9146,-1.9194,-1.8954,-1.975,-1.8587,-1.5748,-1.6251,-1.4223,-1.0261,-0.9355,-0.8929,-0.88,-0.7763,-0.8154,-0.9363,-0.8828,-0.8315,-0.7773,-0.6951,-0.6226,-0.5439,-0.6735,-0.7324,-0.8155,-1.0032,-1.0696,-1.1682,-1.3826,-1.5696,-1.6888,-1.6975,-1.8376,-1.9321,-1.9257,-1.8803,-1.8525,-1.8652,-1.8025,-1.663,-1.4297,-1.2961,-1.1916,-1.1101,-0.8951,-0.8163,-0.8985,-0.7456,-0.6324,-0.5644,-0.481,-0.4573,-0.4874,-0.4622,-0.6162,-0.915,-0.9555,-1.1642,-1.4721,-1.276,-1.2484,-1.3381,-1.3844,-1.4568,-1.5962,-2.1313,-2.3676,-2.4135,-2.3981,-2.3717,-2.3361,-2.2571,-2.0347,-1.8325,-2.0625,-1.8728,-1.5715,-1.6093,-1.551,-1.405,-1.0828,-1.1235,-1.1759,-0.8425,-0.8487,-0.867,-0.5991,-0.5283,-0.5277,-0.5552,-0.5477,0.0,0.0,0.0,0.0,0.0,0.0,-0.7195,-0.5239,-0.91,-1.1829,-1.1066,-1.1943,0.0,0.0,-1.6772,-1.813,-1.9813,-1.8189,-1.8346,-2.1188,-2.1257,-2.1023,-2.0588,-2.0004,-1.9468,-1.9026,-1.8824,-1.8911,-1.9306,-1.9513,-1.8432,-1.6254,-1.6748,-1.5029,-1.1592,-1.0375,-0.9563,-0.9008,-0.8254,-0.9015,-1.0838,-1.1932,-1.2165,-1.1582,-0.9054,-0.7372,-0.5965,-0.5888,-0.6843,-0.7704,-0.8379,-0.9401,-1.0681,-1.2321,-1.2644,-1.3478,-1.566,-1.6959,-1.8356,-2.0166,-2.1191,-2.1906,-2.2315,-2.2297,-2.1285,-1.8926,-1.6092,-1.5807,-1.8721,-1.17,-0.979,-1.4263,-0.9193,-0.6178,-0.5505,-0.4755,-0.4805,-0.5546,-0.484,-0.4647,-0.5066,-0.9063,-1.1435,-1.2537,-1.4709,-1.7122,-1.9482,-1.9054,-2.0699,-2.3238,-2.1403,-2.2099,-2.3996,-2.3795,-2.3445,-2.2792,-2.0551,-1.9555,-1.8927,-1.7007,-1.7837,-1.9089,-1.6853,-1.7843,-1.8605,-1.3709,-1.254,-1.1741,-0.7821,-0.6914,-0.6571,-0.4926,-0.5671,-0.6503,-0.5753,-0.6612,-0.7291,-0.6587,0.0,0.0,0.0,0.0,0.0,0.0,-0.4382,-0.4867,-0.5739,0.0,0.0,0.0,-1.4488,-1.6081,0.0,-1.5862,-1.7117,-2.0451,-2.0394,-2.0173,-2.0027,-1.9237,-1.8913,-1.9099,-1.901,-1.9182,-1.958,-1.9794,-1.8722,-1.6594,-1.701,-1.4387,-0.9475,-0.924,-0.8122,-0.6687,-0.8838,-1.0029,-1.0982,-1.5711,-1.7319,-1.6219,-1.0019,-0.5731,-0.3023,-0.6103,-0.6643,-0.728,-0.824,-0.88,-0.9801,-1.1864,-1.3548,-1.524,-1.6918,-1.8063,-1.9482,-2.1507,-2.1856,-2.2411,-2.3472,-2.3076,-2.1797,-1.9475,-1.6778,-1.5741,-1.6761,-1.1439,-0.963,-1.2226,-0.8914,-0.6811,-0.6092,-0.5405,-0.5451,-0.6162,-0.5038,-0.5076,-0.6216,-0.9178,-1.1908,-1.4367,-1.5656,-1.7284,-1.8996,-1.8878,-2.019,-2.2254,-2.2645,-2.3265,-2.3896,-2.3566,-2.3353,-2.3069,-2.2038,-2.0633,-1.9502,-2.0361,-1.9164,-1.7557,-1.8141,-1.7809,-1.6847,-1.4927,-1.5721,-1.5868,-1.0889,-1.0608,-1.0456,-0.6307,-0.573,-0.5987,-0.5654,-0.6278,-0.6796,-0.6554,0.0,0.0,0.0,0.0,0.0,0.0,0.0,-0.4214,0.0,0.0,0.0,0.0,0.0,0.0,0.0,-1.5088,0.0,-1.9248,-1.9289,-1.9309,-1.9532,-1.9055,-1.8824,-1.8895,-1.8928,-1.9086,-1.9411,-1.9651,-1.942,-1.8795,-1.8968,-1.7241,-1.4032,-1.2715,-1.1741,-1.1071,-1.0606,-1.2148,-1.5019,-1.6682,-1.6029,-1.387,-1.149,-0.9766,-0.8117,-0.6339,-0.6743,-0.728,-0.8142,-0.8872,-0.9943,-1.1711,-1.4034,-1.617,-1.7826,-1.8984,-2.037,-2.2333,-2.2442,-2.2809,-2.3884,-2.3472,-2.2123,-1.9739,-1.7904,-1.692,-1.688,-1.3194,-1.2032,-1.3939,-1.0801,-0.8768,-0.7994,-0.6752,-0.6375,-0.6792,-0.5474,-0.5528,-0.6799,-0.8404,-1.1212,-1.4781,-1.592,-1.7825,-2.0057,-2.0223,-2.0972,-2.2135,-2.3264,-2.3386,-2.2973,-2.3209,-2.3212,-2.3028,-2.2747,-2.1703,-2.078,-2.2306,-2.0906,-1.8918,-2.0251,-1.9564,-1.8132,-1.6948,-1.7949,-1.8172,-1.3447,-1.3277,-1.3018,-0.8101,-0.7596,-0.8014,-0.7364,-0.746,-0.8016,-0.9288,0.0,0.0,0.0,0.0,0.0,0.0,-0.3906,0.0,0.0,0.0,0.0,0.0,0.0,0.0,0.0,0.0,0.0,0.0,-1.8699,-1.8929,-1.924,-1.9093,-1.9043,-1.9107,-1.9213,-1.9313,-1.9447,-1.9663,-1.9797,-1.9862,-1.9858,-1.8203,-1.5254,-1.4021,-1.2991,-1.2122,-1.1808,-1.3734,-1.6966,-1.785,-1.6965,-1.4949,-1.289,-1.0741,-0.8217,-0.6561,-0.7114,-0.7783,-0.81,-0.9538,-1.0928,-1.1827,-1.3887,-1.6146,-1.8286,-1.9563,-2.0948,-2.2712,-2.3084,-2.3366,-2.3751,-2.3683,-2.2588,-2.0063,-1.9515,-1.9313,-1.932,-1.6787,-1.6581,-1.9127,-1.4528,-1.1707,-1.0963,-0.8632,-0.7465,-0.7372,-0.6103,-0.5869,-0.6554,-0.6841,-0.9443,-1.3724,-1.5579,-1.8818,-2.2738,-2.2977,-2.3042,-2.3014,-2.3206,-2.2429,-2.1363,-2.2752,-2.3003,-2.2685,-2.2598,-2.2535,-2.2497,-2.2561,-2.2747,-2.2876,-2.2893,-2.2893,-2.2339,-1.975,-1.9258,-1.8706,-1.5431,-1.49,-1.4154,-1.0267,-1.1155,-1.2358,-1.0728,-1.0165,-1.0943,-1.4198,-1.0704,0.0,0.0,0.0,0.0,0.0,0.0,0.0,0.0,0.0,0.0,0.0,0.0,0.0,0.0,0.0,0.0,0.0,-1.8606,-1.8998,-1.9193,-1.9316,-1.949,-1.9663,-1.9821,-1.9813,-1.9712,-1.9828,-1.9847,-1.9757,-1.9638,-1.7301,-1.3327,-1.3271,-1.2034,-1.0212,-1.2594,-1.4807,-1.6914,-1.9275,-1.9992,-1.91,-1.4021,-0.8683,-0.3771,-0.7149,-0.8019,-0.8819,-0.891,-0.9487,-1.055,-1.2367,-1.4097,-1.6165,-1.8963,-2.0472,-2.2065,-2.4081,-2.4345,-2.4572,-2.5058,-2.4583,-2.3759,-2.2606,-2.0502,-1.9843,-2.1021,-1.7285,-1.6348,-1.8853,-1.4231,-1.1794,-1.1789,-0.8916,-0.7486,-0.7443,-0.6077,-0.5518,-0.574,-0.6345,-0.9225,-1.3712,-1.5399,-1.8761,-2.2995,-2.2868,-2.2191,-2.1376,-2.2558,-2.213,-2.1079,-2.2345,-2.2747,-2.2659,-2.2281,-2.2169,-2.2226,-2.2415,-2.2579,-2.2668,-2.2605,-2.2738,-2.266,-2.1552,-2.1627,-2.1326,-1.8512,-1.7714,-1.6851,-1.3979,-1.3823,-1.407,-1.3447,-1.3503,-1.3263,-1.1966,-1.0462,0.0,0.0,0.0,0.0,0.0,0.0,0.0,0.0,0.0,0.0,0.0,0.0,0.0,0.0,0.0,0.0,0.0,0.0,-1.9119,-1.9132,-1.9346,-1.9423,-1.932,-1.956,-1.9668,-1.963,-1.9656,-1.9593,-1.943,-1.9351,-1.7799,-1.5209,-1.5352,-1.5188,-1.4897,-1.5689,-1.7294,-1.9308,-1.9846,-1.8922,-1.6813,-1.2906,-0.9437,-0.6292,-0.7897,-0.9208,-1.0294,-1.0327,-1.1215,-1.2471,-1.4072,-1.4913,-1.6499,-1.958,-2.0703,-2.1811,-2.3347,-2.4366,-2.5056,-2.5362,-2.5153,-2.4324,-2.2719,-2.1988,-2.1332,-2.0755,-1.9246,-1.9041,-2.0339,-1.6918,-1.4615,-1.3596,-1.0727,-0.8669,-0.7393,-0.5991,-0.5358,-0.5391,-0.6135,-0.8521,-1.222,-1.583,-1.894,-2.1509,-2.2367,-2.2246,0.0,-2.2461,-2.2211,-2.148,-2.1987,-2.2337,-2.2446,-2.1982,-2.1895,-2.1969,-2.2077,-2.2304,-2.248,-2.2371,-2.2436,-2.2473,-2.2084,-2.2254,-2.2165,-2.067,-2.0357,-1.9647,-1.6735,-1.645,-1.6603,-1.58,-1.5282,-1.4967,-1.5009,-1.2121,-0.8573,0.0,0.0,0.0,0.0,0.0,0.0,0.0,0.0,0.0,0.0,0.0,0.0,0.0,0.0,0.0,0.0,0.0,-1.7749,-1.8802,-1.8413,-1.8519,-1.9188,-1.8749,-1.879,-1.9343,-1.939,-1.9298,-1.9073,-1.8957,-1.7765,-1.583,-1.6098,-1.6261,-1.642,-1.6846,-1.8184,-1.9918,-1.9663,-1.8779,-1.7234,-1.3938,-1.0205,-0.6372,-0.8762,-1.054,-1.1969,-1.17,-1.3485,-1.5266,-1.6233,-1.636,-1.7375,-2.0205,-2.091,-2.1403,-2.2122,-2.3866,-2.5013,-2.4974,-2.5278,-2.4406,-2.1973,-2.3444,-2.3091,-2.0155,-2.1798,-2.2739,-2.2598,-2.0539,-1.8145,-1.5462,-1.2844,-1.0013,-0.7022,-0.5841,-0.5247,-0.5182,-0.6025,-0.7956,-1.097,-1.6697,-1.9332,-1.9889,-2.1893,-2.2712,-2.2694,-2.2561,-2.2354,-2.2051,-2.1642,-2.1774,-2.2091,-2.1642,-2.1615,-2.1708,-2.1678,-2.1961,-2.2248,-2.2113,-2.2068,-2.201,-2.1811,-2.1911,-2.2039,-2.1911,-2.2326,-2.1936,-1.8937,-1.8994,-1.9307,-1.7963,-1.6629,-1.6593,-1.9593,-1.4202,-0.8256,-0.4874,0.0,0.0,0.0,0.0,0.0,0.0,0.0,0.0,0.0,0.0,0.0,0.0,0.0,0.0,0.0,0.0,-1.606,-1.8304,-1.7322,-1.7387,-1.8749,-1.777,-1.7753,-1.8667,-1.8952,-1.8998,-1.8771,-1.855,-1.7566,-1.6064,-1.6362,-1.6516,-1.6597,-1.721,-1.8287,-1.9509,-1.9115,-1.902,-1.8775,-1.6215,-1.153,-0.6104,-0.9595,-1.1917,-1.3244,-1.1318,-1.3633,-1.6251,-1.7602,-1.8655,-1.97,-2.0907,-2.2636,-2.3802,-2.3966,-2.4309,-2.4502,-2.4451,-2.4508,-2.4233,-2.3523,-2.383,-2.3642,-2.2833,-2.3141,-2.3406,-2.3538,-2.0737,-1.796,-1.5334,-1.2351,-0.9087,-0.5641,-0.54,-0.4972,-0.4459,-0.5744,-0.9267,-1.4476,-1.7798,-2.0208,-2.1915,-2.2478,-2.2517,-2.2209,-2.2198,-2.1953,-2.1568,-2.1166,-2.1229,-2.1415,-2.1055,-2.1119,-2.1325,-2.1433,-2.1509,-2.1601,-2.1811,-2.1807,-2.1731,-2.1598,-2.1658,-2.179,-2.1811,-2.1764,-2.1615,-2.1192,-2.1102,-2.099,-2.0515,-2.0093,-1.9289,-1.7392,0.0,0.0,-0.7067,0.0,0.0,0.0,0.0,0.0,0.0,0.0,0.0,0.0,0.0,0.0,0.0,0.0,0.0,0.0,0.0,-1.675,0.0,-1.7905,-1.7504,0.0,0.0,-1.7786,-1.6882,-1.8057,-1.8661,-1.8715,-1.8348,-1.8079,-1.7923,-1.7999,-1.8346,-1.8908,-1.8868,-1.8973,-1.9161,-1.8937,-1.8681,-1.8428,-1.8313,-1.5238,-1.0593,-1.3188,-1.4255,-1.4932,-1.4502,-1.6174,-1.7952,-1.9021,-2.051,-2.1416,-2.1185,-2.1743,-2.2214,-2.2319,-2.3325,-2.4048,-2.4261,-2.4302,-2.4449,-2.4761,-2.456,-2.4318,-2.4029,-2.4032,-2.3958,-2.3786,-2.1888,-1.9214,-1.5818,-1.3065,-0.9719,-0.5802,-0.5071,-0.4535,-0.4313,-0.6843,-1.0049,-1.3822,-1.7317,-1.9504,-2.073,-2.1895,-2.2198,-2.1982,-2.1895,-2.1582,-2.1197,-2.0926,-2.0811,-2.0778,-2.0695,-2.0794,-2.1006,-2.1087,-2.115,-2.126,-2.1415,-2.143,-2.1383,-2.1306,-2.1337,-2.1383,-2.1385,-2.1446,-2.1462,-2.137,-2.1354,-2.1213,-2.078,-2.0697,-1.975,-1.6671,-1.3524,0.0,0.0,0.0,0.0,0.0,0.0,0.0,0.0,0.0,0.0,0.0,0.0,0.0,0.0,0.0,0.0,0.0,0.0,-1.4686,0.0,0.0,0.0,-1.6509,0.0,-1.6681,-1.7292,-1.7934,-1.82,-1.8135,-1.7881,-1.7653,-1.7479,-1.7703,-1.7959,-1.8269,-1.8249,-1.8376,-1.8485,-1.7931,-1.7589,-1.7479,-1.7959,-1.6034,-1.2773,-1.6413,-1.6543,-1.6848,-1.7563,-1.8693,-1.9638,-2.0045,-2.1671,-2.2556,-2.1618,-2.1045,-2.0764,-2.0921,-2.2416,-2.361,-2.3967,-2.4009,-2.4343,-2.5107,-2.4839,-2.4571,-2.4542,-2.4526,-2.4398,-2.4127,-2.3075,-2.0705,-1.6917,-1.4247,-1.0833,-0.674,-0.5328,-0.4992,-0.5704,-0.8495,-1.1092,-1.3602,-1.699,-1.8876,-1.9715,-2.1351,-2.1911,-2.1764,-2.1552,-2.1244,-2.0878,-2.0745,-2.0494,-2.022,-2.0308,-2.0512,-2.0728,-2.0662,-2.0747,-2.091,-2.0959,-2.091,-2.0846,-2.0926,-2.0926,-2.0926,-2.091,-2.1071,-2.1134,-2.0747,-2.0813,-2.0813,-2.0239,-2.0239,-1.961,-1.7212,-1.4767,0.0,0.0,0.0,0.0,0.0,0.0,0.0,0.0,0.0,0.0,0.0,0.0,0.0,0.0,0.0,0.0,0.0,0.0,0.0,0.0,0.0,-1.4168,-1.5794,0.0,-1.5499,-1.7245,-1.7429,-1.7451,-1.7323,-1.7124,-1.6856,-1.6543,-1.6788,-1.6938,-1.7025,-1.7255,-1.7495,-1.7659,-1.6962,-1.6614,-1.6537,-1.6987,-1.5697,-1.3546,-1.6803,-1.8089,-1.8917,-1.749,-1.924,-2.0654,-2.0175,-2.1671,-2.2875,-2.2731,-2.2672,-2.2627,-2.2657,-2.2831,-2.2978,-2.3023,-2.3023,-2.3231,-2.3767,-2.3767,-2.3975,-2.457,-2.461,-2.4753,-2.5163,-2.3759,-2.1681,-1.8935,-1.5493,-1.1901,-0.8254,-0.6855,-0.7594,-1.0104,-1.0381,-1.3109,-1.7571,-1.821,-1.9634,-2.1486,-2.1857,-2.1794,-2.1401,-2.1213,-2.091,-2.0527,-2.0392,-2.0135,-1.9859,-1.9859,-2.0154,-2.0494,-2.0239,-2.017,-2.0239,-2.0478,-2.0243,-2.0,-2.0273,-2.0357,-2.0392,-2.0527,-2.0494,-2.0323,-1.9965,-2.005,-2.005,-1.9588,-1.9675,-1.9793,-1.9567,-1.8475,-1.6387,0.0,0.0,0.0,0.0,0.0,-0.8957,0.0,0.0,0.0,0.0,0.0,0.0,0.0,0.0,0.0,0.0,0.0,0.0,-1.2754,-1.2777,-1.2394,-1.1594,-1.3985,-1.4985,-1.4491,-1.5443,-1.6095,-1.639,-1.586,-1.5836,-1.6233,-1.6006,-1.6238,-1.6747,-1.7023,-1.7016,-1.6813,-1.6671,-1.6412,-1.62,-1.6545,-1.5069,-1.292,-2.0688,-2.0369,-2.0273,-2.0351,-2.0421,-2.077,-2.167,-2.241,-2.2888,-2.2888,-2.2888,-2.2888,-2.2888,-2.2888,-2.3023,-2.3319,-2.3053,-2.3231,-2.3952,-2.3681,-2.3709,-2.4271,-2.4214,-2.442,-2.4942,-2.3506,-2.1832,-1.9852,-1.5813,-1.2447,-0.9738,-0.8605,-0.9576,-1.2321,-1.3573,-1.5583,-1.8071,-1.9348,-2.0439,-2.1323,-2.1308,-2.1182,-2.1007,-2.0828,-2.053,-2.0254,-2.0065,-1.9818,-1.953,-1.9332,-1.953,-1.9833,-1.9726,-1.969,-1.969,-1.9797,-1.9726,-1.9581,-1.9581,-1.9581,-1.9566,-1.9449,-1.95,-1.9493,-1.9184,-1.9244,-1.9281,-1.8907,-1.9161,-1.9398,-1.9398,-1.7758,-1.6106,-1.5167,0.0,0.0,0.0,0.0,0.0,0.0,0.0,0.0,0.0,0.0,0.0,0.0,0.0,0.0,0.0,0.0,0.0,-0.884,0.0,-1.1957,-1.0644,-1.2871,-1.3915,-1.374,-1.4327,-1.4686,-1.4775,-1.4433,-1.4459,-1.483,-1.4718,-1.5125,-1.5783,-1.5007,-1.4941,-1.5224,-1.4273,-1.4126,-1.4501,-1.4639,-1.4139,-1.3404,-2.342,-2.2211,-2.1647,-2.2714,-2.1796,-2.1394,-2.2685,-2.2888,-2.2888,-2.2888,-2.2888,-2.2888,-2.2888,-2.2888,-2.3023,-2.3348,-2.3098,-2.3201,-2.3839,-2.348,-2.3421,-2.3767,-2.3724,-2.3864,-2.4348,-2.3274,-2.2207,-2.1198,-1.7162,-1.4339,-1.2613,-1.108,-1.1862,-1.4616,-1.6145,-1.7468,-1.8734,-2.0114,-2.0763,-2.0894,-2.073,-2.0695,-2.0662,-2.0444,-2.022,-1.9975,-1.9732,-1.9493,-1.9213,-1.8898,-1.8912,-1.9078,-1.9228,-1.9213,-1.9176,-1.9339,-1.9339,-1.9228,-1.9176,-1.9139,-1.9049,-1.8869,-1.8921,-1.8884,-1.85,-1.8602,-1.8755,-1.8539,-1.8745,-1.8898,-1.8898,-1.7277,-1.5977,-1.6028,0.0,-1.3239,0.0,-1.2663,0.0,0.0,-1.0818,-0.9217,-0.7516,0.0,0.0,0.0,0.0,0.0,0.0,0.0,0.0,0.0,0.0,0.0,-1.0254,-1.1733,-1.2638,-1.2929,-1.3038,-1.3128,-1.3121,-1.3187,-1.3205,-1.3208,-1.3478,-1.3923,-1.4389,-1.3152,-1.3078,-1.3586,-1.2372,-1.2246,-1.2781,-1.2926,-1.2979,-1.2951,-2.3824,-2.3354,-2.3107,-2.376,-2.3339,-2.2873,-2.2888,-2.2888,-2.2888,-2.2888,-2.2888,-2.2888,-2.2888,-2.2888,-2.2888,-2.2902,-2.2888,-2.2888,-2.2947,-2.2902,-2.2978,-2.3127,-2.3127,-2.326,-2.3595,-2.3186,-2.3121,-2.3367,-2.0141,-1.8179,-1.7352,-1.449,-1.4732,-1.7537,-1.7496,-1.8578,-2.0364,-2.0395,-2.041,-2.041,-2.041,-2.041,-2.0376,-2.017,-1.9925,-1.969,-1.9487,-1.9176,-1.886,-1.8669,-1.845,-1.8307,-1.876,-1.8784,-1.8707,-1.9228,-1.9176,-1.8988,-1.9302,-1.9265,-1.9101,-1.9101,-1.8921,-1.8588,-1.8094,-1.8305,-1.8592,-1.85,-1.85,-1.85,-1.85,-1.808,-1.6975,-1.4633,-1.4893,-1.4413,-1.1715,-1.0861,0.0,-1.1355,-0.9071,-0.7887,-0.9071,0.0,0.0,0.0,0.0,0.0,0.0,0.0,0.0,-0.8946,-0.9463,0.0,-0.9921,-1.0658,-1.1222,-1.1633,-1.1348,-1.1322,-1.1556,-1.2201,-1.2153,-1.1564,-1.2448,-1.2726,-1.2492,-1.1874,-1.1789,-1.1999,-1.1627,-1.1397,-1.1278,-1.1809,-1.1609,-1.1069,-2.5276,-2.5023,-2.4675,-2.4007,-2.3717,-2.3441,-2.296,-2.2888,-2.2888,-2.2888,-2.2888,-2.2888,-2.2888,-2.2888,-2.2888,-2.2888,-2.2888,-2.2888,-2.2888,-2.2872,-2.2826,-2.2783,-2.2692,-2.2799,-2.3172,-2.2597,-2.2551,-2.301,-2.0246,-1.8561,-1.7929,-1.6573,-1.7188,-1.9431,-1.917,-1.9406,-1.998,-1.9782,-1.9726,-1.9726,-1.9726,-1.9726,-1.9726,-1.9654,-1.9435,-1.9161,-1.9101,-1.8874,-1.8581,-1.8386,-1.8189,-1.8043,-1.8189,-1.8175,-1.8149,-1.8347,-1.8307,-1.8214,-1.8121,-1.8068,-1.7988,-1.7828,-1.7828,-1.7828,-1.7516,-1.7557,-1.772,-1.7948,-1.8028,-1.8028,-1.8028,-1.7908,-1.7424,-1.6219,-1.5685,-1.5053,-1.3982,-1.2973,-1.2295,-1.2176,-1.1036,-1.0191,0.0,-0.844,0.0,0.0,0.0,0.0,0.0,0.0,0.0,0.0,-0.9048,0.0,-0.7592,-0.9352,-0.9963,-0.937,-0.9485,-0.9651,-0.9837,-1.0578,-1.075,-1.0426,-1.0897,-1.0951,-1.0685,-1.0077,-1.0225,-1.0732,-0.9669,-0.9728,-1.0353,-1.0145,-1.0003,-0.9925,-2.6242,-2.5915,-2.5495,-2.4747,-2.4413,-2.4138,-2.367,-2.3598,-2.3525,-2.3325,-2.3296,-2.3163,-2.2917,-2.2888,-2.2888,-2.2888,-2.2888,-2.2888,-2.2888,-2.2675,-2.2491,-2.2324,-2.2231,-2.2263,-2.2406,-2.2305,-2.2411,-2.2753,-2.0812,-1.9436,-1.8631,-1.8208,-1.8725,-1.994,-1.9747,-1.9588,-1.9442,-1.9273,-1.9213,-1.9213,-1.9213,-1.9213,-1.9213,-1.9213,-1.8988,-1.8644,-1.8644,-1.8503,-1.8242,-1.8029,-1.7868,-1.7747,-1.7666,-1.7625,-1.7666,-1.7842,-1.7882,-1.7882,-1.7693,-1.757,-1.7475,-1.7295,-1.7282,-1.7282,-1.7115,-1.7115,-1.7199,-1.7434,-1.7557,-1.7557,-1.7516,-1.7516,-1.7352,-1.6876,-1.5847,-1.5031,-1.498,-1.3753,-1.2883,-1.2861,0.0,0.0,0.0,-0.9424,-0.8207,0.0,0.0,0.0,0.0,0.0,-0.837,-0.756,-0.9338,-0.9431,-0.7588,-0.8699,-0.8844,-0.8005,-0.8292,-0.8456,-0.8529,-0.9173,-0.9412,-0.9284,-0.9464,-0.9503,-0.9397,-0.8765,-0.8903,-0.9404,-0.8309,-0.83,-0.8902,-0.8927,-0.8805,-0.8721,-2.6727,-2.6145,-2.5712,-2.5792,-2.5328,-2.4921,-2.48,-2.4785,-2.4583,-2.4036,-2.3963,-2.3717,-2.3033,-2.296,-2.2946,-2.2888,-2.2902,-2.2902,-2.2843,-2.2417,-2.2044,-2.1746,-2.1746,-2.1602,-2.1361,-2.2203,-2.2663,-2.2694,-2.1724,-2.0671,-1.9567,-1.9479,-1.945,-1.945,-1.945,-1.9234,-1.8898,-1.886,-1.886,-1.886,-1.886,-1.886,-1.8874,-1.8874,-1.8567,-1.8163,-1.8149,-1.8043,-1.7828,-1.7557,-1.7434,-1.7393,-1.724,-1.7157,-1.724,-1.7666,-1.7842,-1.7842,-1.7788,-1.7611,-1.7447,-1.7308,-1.7128,-1.6905,-1.6918,-1.696,-1.7002,-1.7002,-1.7073,-1.7157,-1.7002,-1.696,-1.6876,-1.6675,-1.543,-1.4541,-1.4787,-1.3435,-1.265,-1.3207,0.0,0.0,-1.1111,-0.9973,-0.8944,0.0,0.0,0.0,0.0,0.0,-0.8422,-0.9612,-0.9991,-0.9864,-0.9204,-0.8496,-0.7931,-0.7482,-0.7648,-0.7731,-0.7592,-0.8039,-0.8162,-0.8088,-0.8162,-0.8333,-0.848,-0.7866,-0.7802,-0.8064,-0.7466,-0.7181,-0.719,-0.8075,-0.7921,-0.744,-2.6111,-2.6332,-2.6335,-2.5879,-2.5662,-2.54,-2.4858,-2.4785,-2.4791,-2.4675,-2.4631,-2.437,-2.3731,-2.3659,-2.347,-2.2931,-2.2872,-2.2629,-2.2231,-2.1996,-2.165,-2.1042,-2.1055,-2.0957,-2.0809,-2.1396,-2.2016,-2.2694,-2.1513,-2.1116,-2.1524,-2.0539,-2.0068,-2.0068,-1.988,-1.9464,-1.8912,-1.8697,-1.8581,-1.8581,-1.8581,-1.8503,-1.8386,-1.8386,-1.8189,-1.7922,-1.7625,-1.7489,-1.7407,-1.7201,-1.6964,-1.6765,-1.6808,-1.665,-1.6491,-1.6892,-1.7157,-1.724,-1.6748,-1.6947,-1.7102,-1.6367,-1.6269,-1.6398,-1.682,-1.6918,-1.6918,-1.6918,-1.696,-1.696,-1.6918,-1.6582,-1.6269,-1.6175,-1.5118,-1.4253,-1.3945,-1.3211,-1.2508,-1.2018,-1.1799,-1.1431,-1.0639,-0.9787,-0.9156,0.0,0.0,-0.6765,-0.8228,-0.7146,-0.7009,-0.8154,-0.8829,-0.8829,-0.807,-0.7912,-0.7538,-0.7034,-0.737,-0.7147,-0.6573,-0.7245,-0.7238,-0.6771,-0.7078,-0.7133,-0.7014,-0.6787,-0.7003,-0.7399,-0.6888,-0.6815,-0.7056,-0.7196,-0.6882,-0.6462,-2.5839,-2.6111,-2.6265,-2.6249,-2.6242,-2.6126,-2.5778,-2.572,-2.5633,-2.5342,-2.5284,-2.5038,-2.4413,-2.4326,-2.4065,-2.3426,-2.2999,-2.2704,-2.2385,-2.1793,-2.1237,-2.0795,-2.0547,-2.0346,-2.0258,-2.1019,-2.1608,-2.2053,-2.1383,-2.1169,-2.1383,-2.0649,-2.0174,-1.9872,-1.9755,-1.9333,-1.8697,-1.8542,-1.8517,-1.8478,-1.84,-1.8189,-1.7975,-1.7841,-1.7557,-1.724,-1.7076,-1.6909,-1.6795,-1.6795,-1.6595,-1.6392,-1.6497,-1.638,-1.6188,-1.6262,-1.6522,-1.665,-1.6275,-1.6448,-1.6565,-1.5888,-1.5656,-1.57,-1.6032,-1.6306,-1.6436,-1.6207,-1.6367,-1.6454,-1.6207,-1.592,-1.5688,-1.5591,-1.4533,-1.3691,-1.3593,-1.2747,-1.2018,-1.1726,-1.1689,-1.1431,-1.084,-1.0118,-0.9451,-0.8958,-0.7556,0.0,-0.8005,-0.7308,-0.7225,-0.8062,-0.8349,-0.8218,-0.7621,-0.7377,-0.6956,-0.6398,-0.6562,-0.6295,-0.5551,-0.593,-0.6058,-0.6095,-0.6204,-0.6428,-0.6653,-0.6581,-0.6568,-0.6645,-0.6499,-0.6217,-0.5936,-0.6335,-0.6083,-0.5578,-2.5605,-2.5701,-2.592,-2.6674,-2.6779,-2.6779,-2.6779,-2.6779,-2.6591,-2.601,-2.5937,-2.5705,-2.5096,-2.4994,-2.4718,-2.4094,-2.3285,-2.2744,-2.2552,-2.1541,-2.0845,-2.061,-2.0093,-1.9786,-1.9759,-2.0759,-2.1356,-2.1457,-2.1344,-2.1105,-2.0667,-2.0569,-2.0189,-1.9573,-1.9489,-1.9112,-1.8526,-1.8428,-1.8386,-1.84,-1.8189,-1.7895,-1.7503,-1.7284,-1.6879,-1.6479,-1.6552,-1.6392,-1.6156,-1.6349,-1.6262,-1.61,-1.6207,-1.6163,-1.6025,-1.5792,-1.5881,-1.6013,-1.6069,-1.6025,-1.5925,-1.5724,-1.5367,-1.5108,-1.5198,-1.5603,-1.5856,-1.5457,-1.5688,-1.5864,-1.5389,-1.522,-1.5038,-1.465,-1.3725,-1.3057,-1.3053,-1.2146,-1.1611,-1.1875,-1.1848,-1.1659,-1.1327,-1.0654,-0.986,-0.9067,-0.834,-0.7746,-0.7335,-0.7587,-0.7912,-0.8267,-0.8095,-0.7799,-0.7308,-0.6823,-0.6319,-0.5787,-0.5787,-0.5394,-0.4648,-0.4613,-0.4913,-0.5508,-0.5394,-0.5836,-0.6526,-0.6447,-0.6136,-0.5802,-0.6014,-0.5514,-0.4728,-0.5538,-0.5392,-0.4844,-2.5021,-2.5536,-2.6056,-2.6674,-2.6779,-2.6779,-2.6779,-2.6779,-2.675,-2.6649,-2.662,-2.6373,-2.572,-2.5647,-2.54,-2.4791,-2.3581,-2.2491,-2.152,-2.1042,-2.0459,-1.9668,-1.9303,-1.9251,-1.9473,-2.0409,-2.1307,-2.2044,-2.1569,-2.1527,-2.1889,-2.1414,-2.0851,-2.0334,-1.9874,-1.9257,-1.8547,-1.8099,-1.7922,-1.7922,-1.7801,-1.7434,-1.685,-1.668,-1.6479,-1.6231,-1.6001,-1.5925,-1.5881,-1.6044,-1.5869,-1.5647,-1.5824,-1.5659,-1.5447,-1.5402,-1.5345,-1.5289,-1.5402,-1.521,-1.5108,-1.5768,-1.5513,-1.5198,-1.5614,-1.5748,-1.5836,-1.5748,-1.5647,-1.5546,-1.5457,-1.4971,-1.4005,-1.2413,-1.277,-1.2605,-1.0818,-1.1583,-1.2194,-1.1931,-1.1889,-1.1857,-1.1814,-1.1128,-1.0482,-0.9924,-0.8799,-0.8062,-0.7795,-0.7335,-0.7118,-0.7231,-0.721,-0.6917,-0.6392,-0.6215,-0.6002,-0.5787,-0.5744,-0.513,-0.4037,-0.4439,-0.4443,-0.4228,-0.4574,-0.4836,-0.4961,-0.4923,-0.4836,-0.4661,-0.4799,-0.4833,-0.4794,-0.4923,-0.4786,-0.4494,-2.4781,-2.5245,-2.5701,-2.6621,-2.6779,-2.6779,-2.6779,-2.6779,-2.6779,-2.6779,-2.6779,-2.6558,-2.5912,-2.583,-2.5588,-2.4961,-2.4352,-2.3612,-2.2837,-2.1587,-2.061,-1.9875,-1.9695,-1.985,-2.0258,-2.061,-2.1299,-2.2324,-2.1949,-2.1764,-2.1746,-2.147,-2.0873,-2.0046,-1.9814,-1.9158,-1.8283,-1.8257,-1.792,-1.7475,-1.7503,-1.7021,-1.6343,-1.6107,-1.5856,-1.5603,-1.5647,-1.5614,-1.557,-1.5836,-1.5736,-1.5513,-1.5603,-1.548,-1.5312,-1.539,-1.53,-1.521,-1.521,-1.4926,-1.48,-1.5198,-1.5017,-1.4789,-1.5017,-1.5244,-1.5334,-1.5108,-1.5051,-1.4994,-1.4743,-1.4326,-1.3712,-1.2829,-1.2933,-1.2715,-1.1716,-1.1912,-1.2115,-1.192,-1.179,-1.1747,-1.1747,-1.079,-1.0074,-0.9853,-0.854,-0.7739,-0.7621,-0.7202,-0.6859,-0.6634,-0.6768,-0.6732,-0.6489,-0.6093,-0.5744,-0.5404,-0.5096,-0.4482,-0.3653,-0.3693,-0.3873,-0.4096,-0.4092,-0.4399,-0.4879,-0.4836,-0.4439,-0.3913,-0.4399,-0.4132,-0.3473,-0.373,-0.3673,-0.3485,-2.4724,-2.5007,-2.5356,-2.6606,-2.6779,-2.6779,-2.6779,-2.6779,-2.6727,-2.6621,-2.6621,-2.6394,-2.5948,-2.5893,-2.5751,-2.535,-2.5075,-2.4727,-2.4366,-2.2688,-2.1389,-2.0718,-2.0423,-2.0584,-2.1188,-2.0944,-2.1348,-2.2417,-2.2137,-2.1793,-2.1423,-2.1264,-2.0682,-1.9713,-1.9571,-1.9042,-1.8216,-1.8429,-1.807,-1.7407,-1.7238,-1.6789,-1.609,-1.5671,-1.5322,-1.5108,-1.5379,-1.539,-1.5345,-1.5614,-1.5647,-1.5468,-1.5468,-1.539,-1.5312,-1.5435,-1.539,-1.5255,-1.5198,-1.5062,-1.488,-1.488,-1.4743,-1.4616,-1.4616,-1.488,-1.5017,-1.4651,-1.4593,-1.4536,-1.415,-1.381,-1.3476,-1.3062,-1.2995,-1.2892,-1.2469,-1.2294,-1.2202,-1.2202,-1.1945,-1.1721,-1.1721,-1.0579,-0.9742,-0.9579,-0.8419,-0.7659,-0.7412,-0.7238,-0.6888,-0.6416,-0.6392,-0.6361,-0.6361,-0.5964,-0.5529,-0.5053,-0.4661,-0.4096,-0.3398,-0.3123,-0.3341,-0.3961,-0.3653,-0.3917,-0.4613,-0.4661,-0.4176,-0.3473,-0.4001,-0.347,-0.2457,-0.2716,-0.2746,-0.2626,-2.4724,-2.5007,-2.5356,-2.6606,-2.6779,-2.6779,-2.6779,-2.6779,-2.6621,-2.6056,-2.5948,-2.5948,-2.5893,-2.5893,-2.6096,-2.6602,-2.5659,-2.4962,-2.492,-2.4287,-2.3353,-2.221,-2.1136,-2.0957,-2.1698,-2.1237,-2.1431,-2.2417,-2.1746,-2.1423,-2.1375,-2.0908,-2.0333,-1.9762,-1.9258,-1.8981,-1.8783,-1.8317,-1.8078,-1.7944,-1.7248,-1.665,-1.6209,-1.5429,-1.5108,-1.5108,-1.5255,-1.5312,-1.5312,-1.5468,-1.5513,-1.5468,-1.5345,-1.5312,-1.5312,-1.5312,-1.5312,-1.53,-1.5424,-1.5468,-1.5424,-1.5424,-1.5345,-1.521,-1.521,-1.5165,-1.5108,-1.5062,-1.4697,-1.4419,-1.4384,-1.3952,-1.3072,-1.1355,-1.2361,-1.2787,-1.1094,-1.2165,-1.3117,-1.3117,-1.2551,-1.2162,-1.2162,-1.1151,-1.0258,-0.9582,-0.9004,-0.8356,-0.7538,-0.7482,-0.7224,-0.6683,-0.5867,-0.5394,-0.5394,-0.561,-0.548,-0.5009,-0.4966,-0.4399,-0.3398,-0.3078,-0.2943,-0.2987,-0.2987,-0.2987,-0.3075,-0.3527,-0.3575,-0.3394,-0.3123,-0.2943,-0.281,-0.2322,-0.2319,-0.2522,-2.3917,-2.4483,-2.5106,-2.592,-2.615,-2.6394,-2.6727,-2.615,-2.5756,-2.5893,-2.5591,-2.5203,-2.4808,-2.4808,-2.5034,-2.5646,-2.5246,-2.5338,-2.6074,-2.5523,-2.439,-2.2719,-2.161,-2.1091,-2.1299,-2.1348,-2.1396,-2.1396,-2.141,-2.1068,-2.0409,-2.0207,-1.9798,-1.9279,-1.9083,-1.8802,-1.8484,-1.8573,-1.8239,-1.7677,-1.754,-1.7048,-1.6256,-1.5858,-1.5487,-1.5108,-1.5255,-1.5345,-1.5435,-1.5468,-1.5558,-1.557,-1.5357,-1.5312,-1.5312,-1.5312,-1.5345,-1.5424,-1.5468,-1.5379,-1.5289,-1.5345,-1.53,-1.521,-1.5267,-1.521,-1.5108,-1.5108,-1.4834,-1.4558,-1.4419,-1.4104,-1.359,-1.271,-1.3119,-1.3279,-1.26,-1.2991,-1.3314,-1.3314,-1.3025,-1.2745,-1.252,-1.1499,-1.0634,-1.0081,-0.8935,-0.8095,-0.775,-0.7426,-0.6911,-0.6105,-0.593,-0.5892,-0.597,-0.5275,-0.4966,-0.5053,-0.4447,-0.3928,-0.3534,-0.3214,-0.3211,-0.3388,-0.3167,-0.3258,-0.3524,-0.3575,-0.3265,-0.2726,-0.2679,-0.2279,-0.1743,-0.1564,-0.1611,-0.1875,-2.3726,-2.4471,-2.5151,-2.573,-2.5896,-2.6056,-2.6447,-2.5646,-2.5077,-2.5328,-2.4964,-2.4567,-2.4118,-2.4131,-2.435,-2.4951,-2.5007,-2.5356,-2.6204,-2.5422,-2.4433,-2.3188,-2.1903,-2.1237,-2.1237,-2.1153,-2.1006,-2.0795,-2.0858,-2.051,-1.9798,-1.9656,-1.9344,-1.8987,-1.8987,-1.8794,-1.8446,-1.8792,-1.8533,-1.7893,-1.7946,-1.7376,-1.6539,-1.6279,-1.5753,-1.5153,-1.5267,-1.5345,-1.5379,-1.5379,-1.548,-1.5537,-1.53,-1.5255,-1.5255,-1.5255,-1.53,-1.5379,-1.5379,-1.5244,-1.5153,-1.53,-1.5255,-1.521,-1.5267,-1.521,-1.5108,-1.5108,-1.488,-1.4662,-1.4512,-1.4291,-1.4057,-1.3905,-1.3763,-1.3716,-1.3716,-1.3563,-1.3467,-1.3467,-1.3218,-1.2832,-1.2403,-1.1461,-1.0628,-1.0043,-0.8837,-0.7996,-0.776,-0.7284,-0.6748,-0.6085,-0.597,-0.6028,-0.6276,-0.5222,-0.4753,-0.4884,-0.4192,-0.3755,-0.3578,-0.3262,-0.3211,-0.3432,-0.3211,-0.33,-0.3568,-0.3578,-0.3265,-0.2682,-0.246,-0.1967,-0.1386,-0.1164,-0.1254,-0.1523,-2.4226,-2.5004,-2.5657,-2.6295,-2.6106,-2.5893,-2.5893,-2.537,-2.4794,-2.4176,-2.4131,-2.4073,-2.4073,-2.4073,-2.435,-2.4951,-2.5007,-2.5007,-2.5007,-2.3852,-2.334,-2.3684,-2.2083,-2.1382,-2.1793,-2.0646,-2.0245,-2.0795,-2.0105,-1.9798,-1.9798,-1.9239,-1.8987,-1.8987,-1.8987,-1.8987,-1.8987,-1.8987,-1.8987,-1.8939,-1.8295,-1.7656,-1.7133,-1.6515,-1.5916,-1.5312,-1.5312,-1.521,-1.5108,-1.5108,-1.5165,-1.5267,-1.5153,-1.5108,-1.5108,-1.5108,-1.5108,-1.5108,-1.5108,-1.5108,-1.5153,-1.5424,-1.539,-1.5312,-1.5312,-1.521,-1.5108,-1.5108,-1.488,-1.4708,-1.4708,-1.4512,-1.4373,-1.4373,-1.415,-1.402,-1.402,-1.3773,-1.3621,-1.361,-1.3016,-1.2365,-1.1665,-1.1015,-1.0187,-0.9296,-0.8763,-0.818,-0.7452,-0.7056,-0.6917,-0.6912,-0.5867,-0.5518,-0.5973,-0.5507,-0.5005,-0.4412,-0.4408,-0.4104,-0.3578,-0.3126,-0.2898,-0.2898,-0.2898,-0.2898,-0.2943,-0.3398,-0.3581,-0.349,-0.2502,-0.2099,-0.201,-0.1343,-0.1299,-0.1614,-2.3644,-2.4951,-2.5999,-2.5855,-2.5522,-2.5425,-2.5839,-2.4624,-2.3767,-2.406,-2.3721,-2.3424,-2.3424,-2.3424,-2.3662,-2.4279,-2.435,-2.4567,-2.4951,-2.4232,-2.3593,-2.32,-2.1826,-2.0845,-2.0396,-2.0396,-2.0156,-1.954,-1.9695,-1.9604,-1.9251,-1.9093,-1.8987,-1.8987,-1.8987,-1.8987,-1.8987,-1.8987,-1.8987,-1.8975,-1.8754,-1.8103,-1.7181,-1.6978,-1.6326,-1.5379,-1.5006,-1.4903,-1.496,-1.4858,-1.4628,-1.4398,-1.464,-1.4926,-1.5255,-1.5255,-1.5153,-1.5108,-1.5108,-1.5108,-1.5153,-1.53,-1.5255,-1.5165,-1.5267,-1.521,-1.5108,-1.5108,-1.5017,-1.488,-1.4558,-1.4419,-1.428,-1.3905,-1.3763,-1.3716,-1.3716,-1.3668,-1.342,-1.2957,-1.2716,-1.2227,-1.1292,-1.0821,-1.0383,-0.9811,-0.8923,-0.812,-0.7448,-0.6989,-0.6542,-0.6049,-0.5653,-0.5385,-0.5241,-0.4723,-0.4539,-0.467,-0.4012,-0.3619,-0.3442,-0.3306,-0.3262,-0.3262,-0.348,-0.3612,-0.3612,-0.366,-0.348,-0.3126,-0.2591,-0.2192,-0.1835,-0.1433,-0.1478,-0.1748,-2.4304,-2.5328,-2.6128,-2.5882,-2.5339,-2.5021,-2.5481,-2.4163,-2.3258,-2.3662,-2.3365,-2.3078,-2.3017,-2.3078,-2.3198,-2.3497,-2.3543,-2.3721,-2.4163,-2.3568,-2.3041,-2.2646,-2.1472,-2.0489,-1.9901,-2.0016,-1.9708,-1.8987,-1.9291,-1.9291,-1.8987,-1.8987,-1.8987,-1.8987,-1.8987,-1.8987,-1.8987,-1.8987,-1.8987,-1.8987,-1.8987,-1.8298,-1.7302,-1.7302,-1.6563,-1.5513,-1.4994,-1.4801,-1.4766,-1.4525,-1.4351,-1.4269,-1.449,-1.4869,-1.521,-1.5267,-1.521,-1.5108,-1.5108,-1.5108,-1.5108,-1.521,-1.5165,-1.5108,-1.521,-1.5165,-1.5108,-1.5108,-1.4926,-1.464,-1.4373,-1.4082,-1.3847,-1.3515,-1.3362,-1.3266,-1.316,-1.3016,-1.2764,-1.2267,-1.2209,-1.1873,-1.0939,-1.0677,-1.0269,-0.942,-0.8896,-0.8193,-0.7194,-0.6918,-0.653,-0.5908,-0.5585,-0.5303,-0.5149,-0.4435,-0.4222,-0.4471,-0.3705,-0.3314,-0.3262,-0.322,-0.322,-0.322,-0.3575,-0.3615,-0.353,-0.3571,-0.3347,-0.2904,-0.2502,-0.2146,-0.188,-0.1657,-0.1703,-0.1884,-2.5805,-2.6055,-2.6191,-2.6252,-2.5401,-2.4738,-2.4951,-2.3872,-2.3078,-2.3078,-2.3078,-2.3017,-2.2909,-2.2957,-2.2969,-2.2739,-2.2739,-2.28,-2.2909,-2.2437,-2.2138,-2.2089,-2.12,-2.0473,-2.0028,-1.9485,-1.9117,-1.8999,-1.8999,-1.8987,-1.8987,-1.8987,-1.8987,-1.8987,-1.8987,-1.8987,-1.8987,-1.8987,-1.8987,-1.8987,-1.8987,-1.8386,-1.7484,-1.7436,-1.6739,-1.5686,-1.5062,-1.4755,-1.456,-1.4061,-1.4176,-1.4569,-1.4617,-1.4812,-1.5062,-1.5267,-1.521,-1.5108,-1.5062,-1.5062,-1.5108,-1.5062,-1.5062,-1.5062,-1.5108,-1.5062,-1.5017,-1.5017,-1.4547,-1.4129,-1.4071,-1.36,-1.316,-1.3122,-1.2919,-1.2667,-1.2414,-1.211,-1.1864,-1.1566,-1.1516,-1.1266,-1.0568,-1.0466,-0.9902,-0.858,-0.8745,-0.8256,-0.6864,-0.6932,-0.6744,-0.6176,-0.5575,-0.5275,-0.5388,-0.4517,-0.4063,-0.3986,-0.3416,-0.3066,-0.2946,-0.2907,-0.2868,-0.2868,-0.322,-0.3176,-0.2912,-0.3176,-0.3084,-0.2732,-0.2235,-0.201,-0.1966,-0.1792,-0.1794,-0.1884,-2.6796,-2.7197,-2.7454,-2.7116,-2.5656,-2.4567,-2.4738,-2.3708,-2.2969,-2.2969,-2.2969,-2.2909,-2.2739,-2.28,-2.28,-2.2848,-2.2969,-2.3017,-2.3078,-2.2965,-2.2714,-2.2276,-2.2026,-2.1381,-2.0167,-1.9548,-1.9182,-1.917,-1.9052,-1.8987,-1.8987,-1.8987,-1.8987,-1.8987,-1.8987,-1.8987,-1.8987,-1.8987,-1.8987,-1.8987,-1.8987,-1.8602,-1.7989,-1.7568,-1.6967,-1.6206,-1.4912,-1.4387,-1.4247,-1.318,-1.342,-1.4118,-1.4003,-1.4305,-1.4743,-1.5165,-1.521,-1.5017,-1.4651,-1.4834,-1.5017,-1.4651,-1.4558,-1.4651,-1.5017,-1.4628,-1.4258,-1.4362,-1.4118,-1.3732,-1.3198,-1.2957,-1.2832,-1.2666,-1.2384,-1.2159,-1.211,-1.1864,-1.1458,-1.0864,-1.0813,-1.0559,-0.9865,-0.951,-0.9211,-0.8903,-0.8315,-0.783,-0.7509,-0.7031,-0.6521,-0.6034,-0.5788,-0.5341,-0.4658,-0.4214,-0.402,-0.3986,-0.323,-0.2745,-0.2457,-0.264,-0.264,-0.246,-0.2993,-0.304,-0.2732,-0.2593,-0.2324,-0.201,-0.152,-0.1298,-0.1298,-0.1029,-0.094,-0.0895,-2.7797,-2.7841,-2.7852,-2.7684,-2.6095,-2.4877,-2.498,-2.3769,-2.28,-2.28,-2.28,-2.2739,-2.2555,-2.2616,-2.2678,-2.2665,-2.2726,-2.2787,-2.2909,-2.2969,-2.2892,-2.2723,-2.2401,-2.1873,-2.1131,-2.0379,-1.9679,-1.9105,-1.904,-1.8987,-1.8987,-1.8987,-1.8987,-1.8987,-1.8987,-1.8987,-1.8987,-1.8987,-1.8987,-1.8987,-1.8987,-1.8674,-1.8169,-1.7893,-1.746,-1.6788,-1.5247,-1.4169,-1.342,-1.2715,-1.2939,-1.3494,-1.3447,-1.3742,-1.4129,-1.449,-1.4501,-1.4316,-1.4093,-1.4176,-1.4316,-1.3988,-1.3742,-1.3732,-1.4501,-1.4165,-1.3742,-1.3742,-1.3341,-1.2948,-1.256,-1.2276,-1.2049,-1.1918,-1.176,-1.1592,-1.1342,-1.1141,-1.083,-1.0218,-1.0115,-0.9917,-0.9361,-0.9106,-0.885,-0.8421,-0.815,-0.7723,-0.702,-0.6541,-0.6004,-0.5424,-0.5053,-0.4674,-0.4287,-0.3929,-0.3723,-0.3711,-0.3013,-0.2587,-0.2395,-0.2488,-0.2418,-0.2284,-0.2773,-0.264,-0.2103,-0.2146,-0.1832,-0.1251,-0.0984,-0.0895,-0.0895,-0.076,-0.0716,-0.0582,-2.8759,-2.8352,-2.7989,-2.8121,-2.6467,-2.521,-2.5329,-2.3841,-2.2678,-2.2678,-2.2678,-2.2555,-2.2359,-2.2555,-2.2555,-2.242,-2.242,-2.2555,-2.269,-2.28,-2.2909,-2.3017,-2.2474,-2.2129,-2.2043,-2.1308,-2.037,-1.9185,-1.9131,-1.9083,-1.8987,-1.8987,-1.8987,-1.8987,-1.8987,-1.8987,-1.8987,-1.8987,-1.8987,-1.8987,-1.8987,-1.8734,-1.8326,-1.8229,-1.7929,-1.7313,-1.571,-1.4042,-1.2627,-1.2529,-1.2657,-1.2871,-1.2919,-1.3208,-1.3515,-1.3684,-1.3695,-1.3563,-1.3467,-1.3515,-1.3515,-1.3314,-1.2909,-1.2803,-1.3684,-1.3505,-1.317,-1.3064,-1.257,-1.212,-1.208,-1.1651,-1.1276,-1.1167,-1.1116,-1.0913,-1.036,-1.0205,-0.9991,-0.951,-0.9406,-0.9256,-0.8956,-0.8844,-0.8474,-0.7777,-0.7883,-0.7503,-0.6204,-0.5928,-0.5443,-0.4684,-0.418,-0.4009,-0.4122,-0.3688,-0.3364,-0.3164,-0.2683,-0.2431,-0.2257,-0.2209,-0.2069,-0.1948,-0.2262,-0.1938,-0.1254,-0.1564,-0.1206,-0.0493,-0.0493,-0.0448,-0.0448,-0.0358,-0.0313,-0.0089,-2.9462,-2.8984,-2.8563,-2.8623,-2.6619,-2.509,-2.521,-2.3659,-2.242,-2.242,-2.242,-2.2359,-2.2247,-2.2359,-2.242,-2.242,-2.2555,-2.2678,-2.269,-2.2739,-2.2739,-2.2739,-2.2677,-2.2346,-2.1689,-2.1545,-2.0928,-1.9861,-1.9739,-1.9444,-1.8987,-1.8987,-1.8987,-1.8987,-1.8987,-1.8987,-1.8987,-1.8987,-1.8987,-1.8987,-1.8987,-1.8951,-1.8831,-1.8374,-1.8157,-1.7814,-1.5834,-1.3983,-1.2529,-1.2372,-1.2274,-1.2314,-1.2677,-1.2861,-1.3016,-1.3515,-1.361,-1.3515,-1.3016,-1.316,-1.3314,-1.2812,-1.257,-1.2414,-1.2463,-1.2393,-1.2314,-1.2472,-1.2197,-1.1819,-1.1469,-1.1368,-1.1124,-1.0608,-1.0336,-0.9976,-0.9465,-0.9099,-0.8837,-0.8732,-0.8633,-0.8527,-0.8474,-0.8103,-0.783,-0.7723,-0.6966,-0.6367,-0.6036,-0.5521,-0.4976,-0.4519,-0.4546,-0.4268,-0.368,-0.3738,-0.3231,-0.2168,-0.2112,-0.1824,-0.1401,-0.1652,-0.1372,-0.0755,-0.1038,-0.0925,-0.0582,-0.0358,-0.0045,0.0269,0.0449,0.0494,0.0584,0.1075,0.1341,0.1604,-2.9602,-2.9392,-2.9072,-2.8657,-2.6902,-2.538,-2.5058,-2.343,-2.2309,-2.2309,-2.2309,-2.2247,-2.2197,-2.2247,-2.2111,-2.1714,-2.2223,-2.2359,-2.1975,-2.242,-2.269,-2.269,-2.2616,-2.2372,-2.2068,-2.1946,-2.1584,-2.0752,-2.0137,-1.966,-1.942,-1.9131,-1.8987,-1.8987,-1.8987,-1.8987,-1.8987,-1.8987,-1.8987,-1.8987,-1.8987,-1.8987,-1.8975,-1.863,-1.8558,-1.8246,-1.612,-1.4215,-1.2682,-1.2407,-1.2224,-1.2126,-1.2353,-1.2403,-1.2452,-1.2696,-1.2745,-1.2706,-1.2452,-1.2501,-1.2501,-1.2197,-1.1999,-1.19,-1.1801,-1.171,-1.1669,-1.1751,-1.166,-1.1519,-1.1318,-1.1326,-1.1116,-1.0506,-1.0293,-0.9976,-0.9316,-0.8988,-0.8725,-0.8521,-0.8421,-0.8315,-0.8043,-0.783,-0.745,-0.6912,-0.648,-0.5987,-0.5441,-0.4889,-0.4453,-0.4128,-0.3904,-0.3683,-0.3466,-0.3408,-0.3019,-0.2296,-0.2071,-0.1692,-0.1092,-0.1249,-0.1122,-0.0835,-0.0865,-0.0707,-0.0416,-0.0226,0.009,0.0405,0.0539,0.0854,0.1257,0.1524,0.1832,0.2359]},{"header":{"parameterUnit":"m.s-1","parameterCategory":1,"la1":30.6,"la2":28.766,"lo1":-90.7593,"lo2":-88.6598,"dx":0.0162,"dy":0.0183,"nx":116,"ny":114,"refTime":"2022-12-08T18:00:00:Z","depth":0,"parameterNumber":3,"parameterNumberName":"V-component_of_WINDS"},"data":[0.0,0.0,0.0,0.0,0.0,0.0,0.0,0.0,0.0,0.0,0.0,0.0,0.0,0.0,0.0,0.0,0.0,0.0,0.0,0.0,0.0,0.0,0.0,0.0,0.0,0.0,0.0,0.0,0.0,0.0,0.0,0.0,0.0,0.0,0.0,0.0,0.0,0.0,0.0,0.0,0.0,0.0,0.0,0.0,0.0,0.0,0.0,0.0,0.0,0.0,0.0,0.0,0.0,0.0,0.0,0.0,0.0,0.0,0.0,0.0,0.0,0.0,0.0,0.0,0.0,0.0,0.0,0.0,0.0,0.0,0.0,0.0,0.0,0.0,0.0,0.0,0.0,0.0,0.0,0.0,0.0,0.0,0.0,0.0,0.0,0.0,0.0,0.0,0.0,0.0,0.0,0.0,0.0,0.0,0.0,0.0,0.0,0.0,0.0,0.0,0.0,0.0,0.0,0.0,0.0,0.0,0.0,0.0,0.0,0.0,0.0,0.0,0.0,0.0,0.0,0.0,0.0,0.0,0.0,0.0,0.0,0.0,0.0,0.0,0.0,0.0,0.0,0.0,0.0,0.0,0.0,0.0,0.0,0.0,0.0,0.0,0.0,0.0,0.0,0.0,0.0,0.0,0.0,0.0,0.0,0.0,0.0,0.0,0.0,0.0,0.0,0.0,0.0,0.0,0.0,0.0,0.0,0.0,0.0,0.0,0.0,0.0,0.0,0.0,0.0,0.0,0.0,0.0,0.0,0.0,0.0,0.0,0.0,0.0,0.0,0.0,0.0,0.0,0.0,0.0,0.0,0.0,0.0,0.0,0.0,0.0,0.0,0.0,0.0,0.0,0.0,0.0,0.0,0.0,0.0,0.0,0.0,0.0,0.0,0.0,0.0,0.0,0.0,0.0,0.0,0.0,0.0,0.0,0.0,0.0,0.0,0.0,0.0,0.0,0.0,0.0,0.0,0.0,0.0,0.0,0.0,0.0,0.0,0.0,0.0,0.0,0.0,0.0,0.0,0.0,0.0,0.0,0.0,0.0,0.0,0.0,0.0,0.0,0.0,0.0,0.0,0.0,0.0,0.0,0.0,0.0,0.0,0.0,0.0,0.0,0.0,0.0,0.0,0.0,0.0,0.0,0.0,0.0,0.0,0.0,0.0,0.0,0.0,0.0,0.0,0.0,0.0,0.0,0.0,0.0,0.0,0.0,0.0,0.0,0.0,0.0,0.0,0.0,0.0,0.0,0.0,0.0,0.0,0.0,0.0,0.0,0.0,0.0,0.0,0.0,0.0,0.0,0.0,0.0,0.0,0.0,0.0,0.0,0.0,0.0,0.0,0.0,0.0,0.0,0.0,0.0,0.0,0.0,0.0,0.0,0.0,0.0,0.0,0.0,0.0,0.0,0.0,0.0,0.0,0.0,0.0,0.0,0.0,0.0,0.0,0.0,0.0,0.0,0.0,0.0,0.0,0.0,0.0,0.0,0.0,0.0,0.0,0.0,0.0,0.0,0.0,0.0,0.0,0.0,0.0,0.0,0.0,0.0,0.0,0.0,0.0,0.0,0.0,0.0,0.0,0.0,0.0,0.0,0.0,0.0,0.0,0.0,0.0,0.0,0.0,0.0,0.0,0.0,0.0,0.0,0.0,0.0,0.0,0.0,0.0,0.0,0.0,0.0,0.0,0.0,0.0,0.0,0.0,0.0,0.0,0.0,0.0,0.0,0.0,0.0,0.0,0.0,0.0,0.0,0.0,0.0,0.0,0.0,0.0,0.0,0.0,0.0,0.0,0.0,0.0,0.0,0.0,0.0,0.0,0.0,0.0,0.0,0.0,0.0,0.0,0.0,0.0,0.0,0.0,0.0,0.0,0.0,0.0,0.0,0.0,0.0,0.0,0.0,0.0,0.0,0.0,0.0,0.0,0.0,0.0,0.0,0.0,0.0,0.0,0.0,0.0,0.0,0.0,0.0,0.0,0.0,0.0,0.0,0.0,0.0,0.0,0.0,0.0,0.0,0.0,0.0,0.0,0.0,0.0,0.0,0.0,0.0,0.0,0.0,0.0,0.0,0.0,0.0,0.0,0.0,0.0,0.0,0.0,0.0,0.0,0.0,0.0,0.0,0.0,0.0,0.0,0.0,0.0,0.0,0.0,0.0,0.0,0.0,0.0,0.0,0.0,0.0,0.0,0.0,0.0,0.0,0.0,0.0,0.0,0.0,0.0,0.0,0.0,0.0,0.0,0.0,0.0,0.0,0.0,0.0,0.0,0.0,0.0,0.0,0.0,0.0,0.0,0.0,0.0,0.0,0.0,0.0,0.0,0.0,0.0,0.0,0.0,0.0,0.0,0.0,0.0,0.0,0.0,0.0,0.0,0.0,0.0,0.0,0.0,0.0,0.0,0.0,0.0,0.0,0.0,0.0,0.0,0.0,0.0,0.0,0.0,0.0,0.0,0.0,0.0,0.0,0.0,0.0,0.0,0.0,0.0,0.0,0.0,0.0,0.0,0.0,0.0,0.0,0.0,0.0,0.0,0.0,0.0,0.0,0.0,0.0,0.0,0.0,0.0,0.0,0.0,0.0,0.0,0.0,0.0,0.0,0.0,0.0,0.0,0.0,0.0,0.0,0.0,0.0,0.0,0.0,0.0,0.0,0.0,0.0,0.0,0.0,0.0,0.0,0.0,0.0,0.0,0.0,0.0,0.0,0.0,0.0,0.0,0.0,0.0,0.0,0.0,0.0,0.0,0.0,0.0,0.0,0.0,0.0,0.0,0.0,0.0,0.0,0.0,0.0,0.0,0.0,0.0,0.0,0.0,0.0,0.0,0.0,0.0,0.0,0.0,0.0,0.0,0.0,0.0,0.0,0.0,0.0,0.0,0.0,0.0,0.0,0.0,0.0,0.0,0.0,0.0,0.0,0.0,0.0,0.0,0.0,0.0,0.0,0.0,0.0,0.0,0.0,0.0,0.0,0.0,0.0,0.0,0.0,0.0,0.0,0.0,0.0,0.0,0.0,0.0,0.0,0.0,0.0,0.0,0.0,0.0,0.0,0.0,0.0,0.0,0.0,0.0,0.0,0.0,0.0,0.0,0.0,0.0,0.0,0.0,0.0,0.0,0.0,0.0,0.0,0.0,0.0,0.0,0.0,0.0,0.0,0.0,0.0,0.0,0.0,0.0,0.0,0.0,0.0,0.0,0.0,0.0,0.0,0.0,0.0,0.0,0.0,0.0,0.0,0.0,0.0,0.0,0.0,0.0,0.0,0.0,0.0,0.0,0.0,0.0,0.0,0.0,0.0,0.0,0.0,0.0,0.0,0.0,0.0,0.0,0.0,0.0,0.0,0.0,0.0,0.0,0.0,0.0,0.0,0.0,0.0,0.0,0.0,0.0,0.0,0.0,0.0,0.0,0.0,0.0,0.0,0.0,0.0,0.0,0.0,0.0,0.0,0.0,0.0,0.0,0.0,0.0,0.0,0.0,0.0,0.0,0.0,0.0,0.0,0.0,0.0,0.0,0.0,0.0,0.0,0.0,0.0,0.0,0.0,0.0,0.0,0.0,0.0,0.0,0.0,0.0,0.0,0.0,0.0,0.0,0.0,0.0,0.0,0.0,0.0,0.0,0.0,0.0,0.0,0.0,0.0,0.0,0.0,0.0,0.0,0.0,0.0,0.0,0.0,0.0,0.0,0.0,0.0,0.0,0.0,0.0,0.0,0.0,0.0,0.0,0.0,0.0,0.0,0.0,0.0,0.0,0.0,0.0,0.0,0.0,0.0,0.0,0.0,0.0,0.0,0.0,0.0,0.0,0.0,0.0,0.0,0.0,0.0,0.0,0.0,0.0,0.0,0.0,0.0,0.0,0.0,0.0,0.0,0.0,0.0,0.0,0.0,0.0,0.0,0.0,0.0,0.0,0.0,0.0,0.0,0.0,0.0,0.0,0.0,0.0,0.0,0.0,0.0,0.0,0.0,0.0,0.0,0.0,0.0,0.0,0.0,0.0,0.0,0.0,0.0,0.0,0.0,0.0,0.0,0.0,0.0,0.0,0.0,0.0,0.0,0.0,0.0,0.0,0.0,0.0,0.0,0.0,0.0,0.0,0.0,0.0,0.0,0.0,0.0,0.0,0.0,0.0,0.0,0.0,0.0,0.0,0.0,0.0,0.0,0.0,0.0,0.0,0.0,0.0,0.0,0.0,0.0,0.0,0.0,0.0,0.0,0.0,0.0,0.0,0.0,0.0,0.0,0.0,0.0,0.0,0.0,0.0,0.0,0.0,0.0,0.0,0.0,0.0,0.0,0.0,0.0,0.0,0.0,0.0,0.0,0.0,0.0,0.0,0.0,0.0,0.0,0.0,0.0,0.0,0.0,0.0,0.0,0.0,0.0,0.0,0.0,0.0,0.0,0.0,0.0,0.0,0.0,0.0,0.0,0.0,0.0,0.0,0.0,0.0,0.0,0.0,0.0,0.0,0.0,0.0,0.0,0.0,0.0,0.0,0.0,0.0,0.0,0.0,0.0,0.0,0.0,0.0,0.0,0.0,0.0,0.0,0.0,0.0,0.0,0.0,0.0,0.0,0.0,0.0,0.0,0.0,0.0,0.0,0.0,0.0,0.0,0.0,0.0,0.0,0.0,0.0,0.0,0.0,0.0,0.0,0.0,0.0,0.0,0.0,0.0,0.0,0.0,0.0,0.0,0.0,0.0,0.0,0.0,0.0,0.0,0.0,0.0,0.0,0.0,0.0,0.0,0.0,0.0,0.0,0.0,0.0,0.0,0.0,0.0,0.0,0.0,0.0,0.0,0.0,0.0,0.0,0.0,0.0,0.0,0.0,0.0,0.0,0.0,0.0,0.0,0.0,0.0,0.0,0.0,0.0,0.0,0.0,0.0,0.0,0.0,0.0,0.0,0.0,0.0,0.0,0.0,0.0,0.0,0.0,0.0,0.0,0.0,0.0,0.0,0.0,0.0,0.0,0.0,0.0,0.0,0.0,0.0,0.0,0.0,0.0,0.0,0.0,0.0,0.0,0.0,0.0,0.0,0.0,0.0,0.0,0.0,0.0,0.0,0.0,0.0,0.0,0.0,0.0,0.0,0.0,0.0,0.0,0.0,0.0,0.0,0.0,0.0,0.0,0.0,0.0,0.0,0.0,0.0,0.0,0.0,0.0,0.0,0.0,0.0,0.0,0.0,0.0,0.0,0.0,0.0,0.0,0.0,0.0,0.0,0.0,0.0,0.0,0.0,0.0,0.0,0.0,0.0,0.0,0.0,0.0,0.0,0.0,0.0,0.0,0.0,0.0,0.0,0.0,0.0,0.0,0.0,0.0,0.0,0.0,0.0,0.0,0.0,0.0,0.0,0.0,0.0,0.0,0.0,0.0,0.0,0.0,0.0,0.0,0.0,0.0,0.0,0.0,0.0,0.0,0.0,0.0,0.0,0.0,0.0,0.0,0.0,0.0,0.0,0.0,0.0,0.0,0.0,0.0,0.0,0.0,0.0,0.0,0.0,0.0,0.0,0.0,0.0,0.0,0.0,0.0,0.0,0.0,0.0,0.0,0.0,0.0,0.0,0.0,0.0,0.0,0.0,0.0,0.0,0.0,0.0,0.0,0.0,0.0,0.0,0.0,0.0,0.0,0.0,0.0,0.0,0.0,0.0,0.0,0.0,0.0,0.0,0.0,0.0,0.0,0.0,0.0,0.0,0.0,0.0,0.0,0.0,0.0,0.0,0.0,0.0,0.0,0.0,0.0,0.0,0.0,0.0,0.0,0.0,0.0,0.0,0.0,0.0,0.0,0.0,0.0,0.0,0.0,0.0,0.0,0.0,0.0,0.0,0.0,0.0,0.0,0.0,0.0,0.0,0.0,0.0,0.0,0.0,0.0,0.0,0.0,0.0,0.0,0.0,0.0,0.0,0.0,0.0,0.0,0.0,0.0,0.0,0.0,0.0,0.0,0.0,0.0,0.0,0.0,0.0,0.0,0.0,0.0,0.0,0.0,0.0,0.0,0.0,0.0,0.0,0.0,0.0,0.0,0.0,0.0,0.0,0.0,0.0,0.0,0.0,0.0,0.0,0.0,0.0,0.0,0.0,0.0,0.0,0.0,0.0,-0.8605,-0.7184,0.0,0.0,0.0,0.0,0.0,0.0,0.0,0.0,0.0,0.0,0.0,0.0,0.0,0.0,0.0,0.0,0.0,0.0,0.0,0.0,0.0,0.0,0.0,0.1099,0.0868,0.0804,0.0798,0.0,0.0,0.0,0.0,0.0,0.0,0.0,0.0,0.0,-0.1323,-0.2188,-0.1945,-0.2098,-0.2624,-0.2416,-0.185,-0.1029,0.0,0.0,0.0,0.0,0.0,0.0,0.0,0.0,0.0,0.0,0.0,0.0,0.0,0.0,0.0,0.0,0.0,0.0,0.0,0.0,0.0,0.0,0.0,0.0,0.0,0.0,0.0,0.0,0.0,0.0,0.0,0.0,0.0,0.0,0.0,0.0,0.0,0.0,0.0,0.0,0.0,0.0,0.0,0.0,0.0,0.0,0.0,0.0,0.0,0.0,0.0,0.0,0.0,0.0,0.0,0.0,0.0,0.0,0.0,0.0,0.0,0.0,0.0,0.0,0.0,0.0,0.0,0.0,0.0,0.0,-1.0829,-0.976,0.0,0.0,0.0,0.0,0.0,0.0,0.0,0.0,0.0,0.0,0.0,0.0,0.0,0.0,0.0,0.0,0.0,0.0,0.0,0.0,0.0,0.1277,0.1433,0.1154,0.0948,0.0893,0.078,0.0653,0.0491,0.0419,0.0,0.0,0.0,0.0,-0.0782,-0.086,-0.1675,-0.3266,-0.2944,-0.2936,-0.332,-0.3549,-0.3083,-0.2034,-0.1868,0.0,0.0,0.0,0.0,0.0,0.0,0.0,0.0,0.0,0.0,0.0,0.0,0.0,0.0,0.0,0.0,0.0,0.0,0.0,0.0,0.0,0.0,0.0,0.0,0.0,0.0,0.0,0.0,0.0,0.0,0.0,0.0,0.0,0.0,0.0,0.0,0.0,0.0,0.0,0.0,0.0,0.0,0.0,0.0,0.0,0.0,0.0,0.0,0.0,0.0,0.0,0.0,0.0,0.0,0.0,0.0,0.0,0.0,0.0,0.0,0.0,0.0,0.0,-1.3589,-1.4236,-1.4775,-1.4811,-1.5097,-1.5465,-1.3508,-1.2926,-1.3199,-1.0478,0.0,0.0,0.0,0.0,0.0,0.0,0.0,0.0,0.0,0.0,0.0,0.0,0.0,0.0,0.0,0.0,0.0,0.0,0.0,0.1271,0.125,0.0989,0.093,0.1218,0.07,0.0492,0.0816,0.0511,0.0,0.0,0.0,0.004,-0.0368,-0.0717,-0.1268,-0.2043,-0.2952,-0.3483,-0.3706,-0.3933,-0.3929,-0.373,-0.2922,-0.2474,-0.2265,0.0,0.0,0.0,0.0,0.0,0.0,0.0,0.0,0.0,0.0,0.0,0.0,0.0,0.0,0.0,0.0,0.0,0.0,0.0,0.0,0.0,0.0,0.0,0.0,0.0,0.0,0.0,0.0,0.0,0.0,0.0,0.0,0.0,0.0,0.0,0.0,0.0,0.0,0.0,0.0,0.0,-0.7483,-0.8333,0.0,0.0,0.0,0.0,0.0,0.0,0.0,0.0,0.0,0.0,0.0,0.0,0.0,-1.1918,-1.2685,-1.4705,-1.5733,-1.5842,-1.7164,-1.7832,-1.7896,-1.7745,-1.7866,-1.8179,-1.8127,0.0,-1.4194,-1.3456,0.0,0.0,0.0,0.0,0.0,0.0,0.0,0.0,0.0,0.0,0.0,0.0,0.0,0.0,0.0,0.0,0.0,0.0,0.0,0.0,0.0,0.1082,0.0864,0.0917,0.0421,0.0166,0.0281,0.0112,0.0,0.0,0.0047,-0.0147,-0.0511,-0.111,-0.1852,-0.2765,-0.3647,-0.4114,-0.4237,-0.4363,-0.4341,-0.4232,-0.3921,-0.3404,-0.2771,-0.2419,0.0,0.0,0.0,0.0,0.0,0.0,0.0,0.0,0.0,0.0,0.0,0.0,0.0,0.0,0.0,0.0,0.0,0.0,0.0,0.0,0.0,0.0,0.0,0.0,0.0,0.0,0.0,0.0,0.0,0.0,0.0,0.0,0.0,0.0,0.0,0.0,0.0,0.0,0.0,-0.7006,-0.8047,-0.8485,-0.8485,-0.805,0.0,0.0,0.0,0.0,0.0,0.0,0.0,0.0,0.0,-1.3746,-1.412,-1.4827,-1.5964,-1.7343,-1.8036,-1.8052,-1.9059,-1.9491,-1.9539,-1.9606,-1.9578,-1.9445,-1.9741,-1.8942,-1.733,-1.6092,-1.4919,-1.3751,0.0,0.0,0.0,0.0,-1.2806,-1.3152,0.0,0.0,0.0,0.0,0.0,0.0,0.0,0.0,0.0,0.0,0.0,0.0,0.1415,0.1036,0.0751,0.0577,0.0167,-0.0061,-0.0057,-0.0116,-0.0115,0.0,-0.0107,-0.0362,-0.0748,-0.1634,-0.2573,-0.3595,-0.4182,-0.4569,-0.4649,-0.4617,-0.4554,-0.4488,-0.4594,-0.4176,-0.3343,-0.3401,-0.2822,-0.1865,0.0,0.0,0.0,0.0,0.0,0.0,0.0,0.0,0.0,0.0,0.0,0.0,0.0,0.0,0.0,0.0,0.0,0.0,0.0,0.0,0.0,0.0,0.0,0.0,0.0,0.0,0.0,0.0,0.0,0.0,0.0,0.0,0.0,0.0,0.0,0.0,0.0,-0.7789,-0.8733,-0.8832,-0.9174,-0.8887,0.0,0.0,0.0,0.0,0.0,0.0,-1.2762,-1.332,-1.4584,-1.6711,-1.6801,-1.7455,-1.8714,-1.9269,-1.9549,-1.9564,-2.0058,-2.0304,-2.0304,-2.0662,-2.0607,-2.0286,-2.0678,-2.0699,-2.0293,-1.8529,-1.7624,-1.7205,-1.5776,-1.5092,-1.5072,-1.6078,-1.6547,-1.6927,0.0,0.0,0.0,0.0,0.0,0.0,0.0,0.0,0.0,0.0,0.0,0.1502,0.0998,0.0686,0.0513,0.0508,0.0035,-0.0102,0.0357,0.0082,-0.0067,0.0,-0.0252,-0.0543,-0.0877,-0.2163,-0.3164,-0.3768,-0.4289,-0.4577,-0.4721,-0.4673,-0.4673,-0.4666,-0.4824,-0.4673,-0.4308,-0.4062,-0.4028,-0.3992,-0.2124,0.0,0.0,0.0,0.0,0.0,0.0,0.0,0.0,0.0,0.0,0.0,0.0,0.0,0.0,0.0,0.0,0.0,0.0,0.0,0.0,0.0,0.0,0.0,0.0,0.0,0.0,0.0,0.0,0.0,0.0,0.0,0.0,0.0,0.0,0.0,0.0,0.0,0.0,-1.0007,-1.0625,0.0,0.0,0.0,0.0,-1.17,-1.285,-1.4162,-1.5529,-1.576,-1.6742,-1.8791,-1.905,-1.9487,-2.0196,-2.0243,-2.0258,-2.0258,-2.0289,-2.0304,-2.0304,-2.0662,-2.0845,-2.0975,-2.1622,-2.2017,-2.205,-2.0769,-1.9486,-1.8348,-1.8646,-1.8015,-1.7127,-1.8587,-1.9118,-1.9366,0.0,0.0,0.0,0.1359,0.1263,0.1195,0.1256,0.1331,0.1382,0.1362,0.1521,0.1455,0.1022,0.0698,0.0402,0.013,-0.021,-0.0321,-0.0115,-0.0153,-0.0299,-0.0561,-0.0668,-0.1232,-0.2341,-0.3349,-0.3989,-0.4275,-0.5177,-0.5279,-0.4691,-0.4959,-0.4959,-0.4691,-0.4846,-0.4834,-0.4707,-0.4729,-0.4471,-0.4036,-0.3203,-0.2492,0.0,0.0,0.0,0.0,0.0,0.0,0.0,0.0,0.0,0.0,0.0,0.0,0.0,0.0,0.0,0.0,0.0,0.0,0.0,0.0,0.0,0.0,0.0,0.0,0.0,0.0,0.0,0.0,0.0,0.0,0.0,0.0,0.0,0.0,0.0,0.0,0.0,-1.0699,-1.1611,0.0,-1.145,-1.2719,-1.3827,-1.4367,-1.533,-1.6419,-1.761,-1.7719,-1.8311,-1.9611,-1.971,-1.9936,-2.0304,-2.0304,-2.0304,-2.0304,-2.0304,-2.0304,-2.0304,-2.0877,-2.115,-2.1229,-2.1899,-2.2276,-2.2409,-2.2031,-2.1766,-2.1568,-2.1896,-2.1881,-2.1738,-2.2306,-2.2595,-2.2776,0.0,0.0,0.0,0.123,0.1173,0.1151,0.1217,0.1292,0.1336,0.1332,0.1442,0.1309,0.0791,0.0493,0.0133,-0.0284,-0.0414,-0.0533,-0.0647,-0.0418,-0.0533,-0.0998,-0.1193,-0.1935,-0.3263,-0.4112,-0.4603,-0.4791,-0.5719,-0.5773,-0.4904,-0.5171,-0.5062,-0.4632,-0.4846,-0.4897,-0.4893,-0.5111,-0.4865,-0.4353,-0.4021,-0.3472,-0.2713,0.0,0.0,0.0,0.0,0.0,0.0,0.0,0.0,0.0,0.0,0.0,0.0,0.0,0.0,0.0,0.0,0.0,0.0,0.0,0.0,0.0,0.0,0.0,0.0,0.0,0.0,0.0,0.0,0.0,0.0,0.0,0.0,0.0,0.0,-1.0586,-1.1746,-1.1327,-1.2677,-1.3401,-1.2774,-1.4345,-1.5674,-1.6245,-1.7334,-1.8243,-1.8791,-1.8996,-1.9346,-1.9904,-1.999,-2.0096,-2.022,-2.027,-2.0304,-2.0304,-2.0304,-2.0304,-2.0304,-2.0991,-2.1308,-2.1339,-2.2032,-2.2377,-2.2487,-2.2659,-2.2917,-2.3236,-2.3588,-2.3941,-2.4266,-2.4389,-2.4493,-2.4566,0.0,0.0,0.1253,0.1129,0.1157,0.1207,0.1277,0.1447,0.1482,0.1225,0.1248,0.0997,0.0288,0.0087,-0.0228,-0.0761,-0.0553,-0.0605,-0.105,-0.0718,-0.0759,-0.1307,-0.1857,-0.258,-0.3475,-0.4293,-0.4884,-0.5277,-0.5932,-0.5932,-0.5332,-0.5332,-0.5062,-0.4519,-0.4791,-0.4897,-0.4901,-0.5183,-0.5197,-0.506,-0.4554,-0.4061,-0.3623,0.0,0.0,0.0,0.0,0.0,0.0,0.0,0.0,0.0,0.0,0.0,0.0,0.0,0.0,0.0,0.0,0.0,0.0,0.0,0.0,0.0,0.0,0.0,0.0,0.0,0.0,0.0,0.0,0.0,0.0,0.0,0.0,0.0,-1.0105,-1.1484,-1.2405,-1.1951,-1.3877,-1.4898,-1.4066,-1.6044,-1.7385,-1.7348,-1.8783,-1.9457,-1.9101,-1.9508,-1.9762,-1.9762,-1.9975,-2.0065,-2.01,-2.022,-2.0304,-2.0304,-2.0304,-2.0304,-2.0304,-2.0991,-2.1308,-2.1339,-2.2061,-2.2377,-2.2405,-2.2685,-2.2867,-2.3045,-2.3566,-2.4001,-2.4336,-2.4591,-2.4645,-2.453,0.1192,0.1229,0.1281,0.1244,0.1025,0.0878,0.1001,0.0883,0.082,0.0843,0.0843,0.0705,0.0237,0.0172,-0.0045,-0.0457,-0.0372,-0.0468,-0.0927,-0.0674,-0.0947,-0.1988,0.0,-0.3366,-0.3691,-0.4474,-0.4965,-0.5164,-0.6317,-0.6534,-0.5932,-0.5932,-0.5664,-0.5062,-0.4849,-0.4743,-0.4743,-0.4959,-0.4984,-0.4923,-0.492,-0.483,-0.4652,0.0,0.0,0.0,0.0,0.0,0.0,0.0,0.0,0.0,0.0,0.0,0.0,0.0,0.0,0.0,0.0,0.0,0.0,0.0,0.0,0.0,0.0,0.0,0.0,0.0,0.0,0.0,0.0,0.0,0.0,0.0,-1.0599,-1.18,-1.1677,-1.3166,-1.4283,-1.4118,-1.5095,-1.5789,-1.5843,-1.6612,-1.7384,-1.7963,-1.8207,-1.8422,-1.8669,-1.8784,-1.8997,-1.9369,-1.9427,-1.966,-2.01,-2.015,-2.0185,-2.0304,-2.0304,-2.0304,-2.0304,-2.0745,-2.1071,-2.1323,-2.1781,-2.2135,-2.2405,-2.2542,-2.2747,-2.306,-2.3432,-2.3801,-2.4118,-2.4442,-2.458,-2.4582,0.1141,0.1181,0.1285,0.1326,0.1092,0.0935,0.0984,0.0746,0.0576,0.059,0.058,0.0428,0.0082,0.0044,-0.0091,-0.0368,-0.0518,-0.0698,-0.105,-0.1233,-0.1732,-0.2659,0.0,-0.3531,-0.3793,-0.4457,-0.4893,-0.5105,-0.6367,-0.6588,-0.5823,-0.61,-0.5773,-0.4952,-0.4798,-0.4691,-0.4691,-0.4846,-0.4897,-0.4889,-0.4962,-0.4964,-0.4868,-0.4515,-0.4369,-0.4333,-0.41,-0.3756,-0.3403,-0.3457,0.0,0.0,0.0,0.0,0.0,0.0,0.0,0.0,0.0,0.0,0.0,0.0,0.0,0.0,0.0,0.0,0.0,0.0,0.0,0.0,0.0,0.0,0.0,0.0,-1.2225,-1.346,-1.3592,-1.4525,-1.5255,-1.5334,-1.5828,-1.6293,-1.6541,-1.6894,-1.731,-1.7666,-1.7908,-1.8068,-1.8187,-1.8553,-1.8808,-1.8907,-1.9258,-1.9551,-1.9732,-1.996,-2.015,-2.022,-2.027,-2.0304,-2.0304,-2.0662,-2.0974,-2.1339,-2.1661,-2.2032,-2.2422,-2.246,-2.2659,-2.2952,0.0,0.0,0.0,0.0,-2.4493,-2.4613,0.1052,0.1096,0.1185,0.1296,0.1208,0.1096,0.1027,0.0803,0.0575,0.0391,0.037,0.0219,-0.0132,-0.018,-0.0228,-0.0331,-0.0811,-0.1163,-0.138,-0.2156,-0.2786,-0.3199,-0.3246,-0.3412,-0.3793,-0.4291,-0.4725,-0.505,-0.6253,-0.6367,-0.5496,-0.5991,-0.5664,-0.468,-0.4688,-0.4688,-0.4688,-0.4791,-0.4846,-0.4846,-0.4846,-0.4761,-0.467,-0.5249,-0.5151,-0.4697,-0.5084,-0.4692,-0.3933,-0.3584,0.0,0.0,0.0,0.0,0.0,0.0,0.0,0.0,0.0,0.0,0.0,0.0,0.0,0.0,0.0,0.0,0.0,0.0,0.0,0.0,0.0,0.0,0.0,0.0,-1.3973,-1.5372,-1.5475,-1.5517,-1.5629,-1.5822,-1.622,-1.6479,-1.6479,-1.6964,-1.7131,-1.6918,-1.7679,-1.8028,-1.776,-1.8461,0.0,0.0,0.0,-1.9442,-1.9207,-1.9732,-2.003,-2.01,-2.0254,-2.0304,-2.0339,-2.0662,-2.0974,-2.1308,-2.1631,-2.2003,-2.2377,-2.2487,-2.2632,-2.285,-2.32,-2.35,-2.3777,-2.4155,-2.4458,-2.4626,0.0584,0.0671,0.0803,0.0825,0.0671,0.0561,0.0539,0.0359,0.0176,0.0098,0.0067,0.0037,-0.0044,-0.0045,-0.0045,-0.0091,-0.0626,-0.1288,-0.2048,-0.2787,-0.3224,-0.3218,-0.3409,-0.3536,-0.3635,-0.3852,-0.4233,-0.478,-0.571,-0.6308,-0.6583,-0.6312,-0.61,-0.5828,-0.4956,-0.4519,-0.4519,-0.4574,-0.4463,-0.4356,-0.4632,-0.4995,-0.5329,-0.4883,-0.5336,-0.6115,-0.5153,-0.4958,-0.5096,-0.4721,-0.4043,-0.3415,-0.3695,-0.3335,0.0,0.0,0.0,0.0,0.0,0.0,0.0,0.0,0.0,0.0,0.0,0.0,0.0,0.0,0.0,0.0,0.0,0.0,0.0,-1.3192,-1.4304,-1.5284,-1.5936,-1.5985,-1.5972,-1.6127,-1.6299,-1.6436,-1.6436,-1.6663,-1.6833,-1.6876,-1.7115,-1.7282,-1.7323,-1.7475,-1.7679,-1.7908,-1.8108,-1.8525,-1.9207,-1.9427,-1.9747,-2.01,-2.0357,0.0,-2.046,-2.0695,-2.099,-2.1309,-2.1554,-2.1836,-2.2169,-2.2453,-2.2764,-2.3077,-2.3359,-2.3628,-2.3899,-2.4192,-2.4336,-2.4388,0.0337,0.0492,0.069,0.0781,0.0626,0.0471,0.0404,0.0225,0.0075,0.0,-0.0067,-0.0072,0.0,-0.0043,-0.0083,0.0,-0.0677,-0.1528,-0.2582,-0.2993,-0.3278,-0.3395,-0.352,-0.3585,-0.3585,-0.3694,-0.3855,-0.4236,-0.5054,-0.5496,-0.5555,-0.5605,-0.5496,-0.5175,-0.4515,-0.4242,-0.4242,-0.4242,-0.419,-0.4135,-0.4356,-0.4688,-0.5058,-0.5031,-0.5424,-0.591,-0.5449,-0.5277,-0.5221,-0.4854,-0.4353,-0.3983,-0.4358,-0.4193,-0.3818,0.0,0.0,0.0,0.0,0.0,0.0,0.0,0.0,0.0,0.0,0.0,0.0,0.0,0.0,-0.9905,-1.0879,0.0,-1.3306,-1.3875,-1.4575,-1.5175,-1.5567,-1.578,-1.6013,-1.6275,-1.6362,-1.6392,-1.6436,-1.6534,-1.6663,-1.6876,-1.6918,-1.7002,-1.7199,-1.7393,-1.7516,-1.7516,-1.7908,-1.8266,-1.8486,-1.9095,-1.9515,-1.9732,-2.017,-2.0441,-2.0494,-2.0595,-2.0893,-2.1309,-2.1507,-2.1836,-2.2226,-2.2668,-2.2995,-2.3217,-2.3417,-2.3624,-2.3816,-2.3943,-2.4099,-2.4265,0.0225,0.0381,0.058,0.0738,0.0625,0.047,0.0359,0.0202,0.0075,0.0,-0.0098,-0.0104,0.0,-0.0078,-0.0151,-0.0219,-0.0934,-0.183,0.0,-0.3064,-0.3281,-0.3572,-0.3585,-0.3585,-0.3585,-0.3585,-0.3635,-0.3744,-0.4512,-0.468,-0.4301,-0.4842,-0.4787,-0.4301,-0.4079,-0.4024,-0.4024,-0.4024,-0.3965,-0.3965,-0.4138,-0.4301,-0.4463,-0.5124,-0.5395,-0.5366,-0.5453,-0.5309,-0.4967,-0.4506,-0.431,-0.4321,-0.4631,-0.4791,-0.4821,-0.441,-0.436,0.0,0.0,0.0,0.0,0.0,0.0,0.0,0.0,-0.6116,-0.7186,-0.8875,-1.0168,-1.1364,-1.2634,-1.3299,-1.3783,-1.4245,-1.4654,-1.4915,-1.4915,-1.5289,-1.5691,-1.6163,-1.6306,-1.6392,-1.6479,-1.6479,-1.6607,-1.6833,-1.6876,-1.696,-1.7115,-1.7475,-1.7516,-1.7157,-1.7828,-1.8068,-1.7787,-1.8679,-1.9207,-1.9406,-1.996,-2.0323,-2.0561,-2.0595,-2.0893,-2.1402,-2.1658,-2.2027,-2.2453,-2.2927,-2.3217,-2.3313,-2.3448,-2.3594,-2.3692,-2.3735,-2.3939,-2.4173,0.0247,0.0269,0.0314,0.0292,0.0202,0.0157,0.0135,0.0112,0.0072,0.0,0.0,-0.003,0.0,0.0034,-0.0243,-0.1012,-0.1433,-0.2022,-0.2945,-0.3346,-0.3542,-0.3583,-0.3585,-0.3585,-0.3585,-0.3585,-0.3585,-0.3638,-0.4346,-0.4673,-0.4673,-0.4842,-0.4897,-0.4791,-0.4242,-0.4024,-0.4024,-0.4024,-0.391,-0.3852,-0.4079,-0.4138,-0.4076,-0.4463,-0.5014,-0.5487,-0.4669,-0.4605,-0.4829,-0.4128,-0.3872,-0.3837,-0.3798,-0.4283,-0.4862,-0.4619,-0.4615,-0.4596,-0.4275,-0.4181,-0.4434,-0.5436,-0.6075,-0.6989,0.0,-0.9426,-0.9705,-1.1124,-1.1926,-1.2619,-1.3347,-1.3883,-1.4244,-1.431,-1.4365,-1.4398,-1.4398,-1.4547,-1.4858,-1.5433,-1.5957,-1.6275,-1.6392,-1.6479,-1.6565,-1.6718,-1.6846,-1.6918,-1.6918,-1.7044,-1.7086,-1.7002,-1.7115,-1.7352,-1.7787,-1.8028,-1.8563,-1.9406,-1.9717,-2.0189,-2.0761,-2.0958,-2.1246,-2.1694,-2.2271,-2.2624,-2.2868,-2.3151,-2.3289,-2.3313,-2.3448,-2.3594,-2.3714,-2.3896,-2.3996,-2.4075,0.027,0.0247,0.0247,0.0315,0.0225,0.0157,0.0157,0.0135,0.0072,0.0,-0.0056,-0.0058,0.0032,0.012,-0.0145,-0.0892,-0.1331,-0.1933,-0.278,-0.324,-0.3509,-0.3583,-0.3585,-0.3585,-0.3585,-0.3585,-0.3585,-0.3585,-0.3962,-0.4181,-0.4181,-0.4236,-0.4239,-0.4236,-0.3913,-0.3749,-0.3749,-0.3749,-0.3802,-0.3796,-0.4024,-0.419,-0.4288,-0.4314,-0.4602,-0.4915,-0.4376,-0.4189,0.0,-0.4034,-0.3859,-0.3778,-0.4221,-0.4379,-0.438,-0.4481,-0.4616,-0.4884,-0.543,-0.5338,-0.5404,-0.6586,-0.7168,-0.7881,-0.9331,-0.9894,-1.0485,-1.1963,-1.2558,-1.309,-1.3865,-1.3896,-1.3789,-1.3894,-1.3884,-1.3941,-1.3988,-1.4269,-1.4766,-1.5445,-1.5724,-1.6001,-1.6436,-1.6479,-1.6565,-1.6675,-1.6761,-1.6803,-1.6876,-1.6918,-1.6918,-1.6918,-1.696,-1.7115,-1.7323,-1.7787,-1.8305,-1.8921,-1.9406,-1.9945,-2.0579,-2.0827,-2.1261,-2.1899,-2.2392,-2.2756,-2.3045,-2.3217,-2.3336,-2.3407,-2.3494,-2.3594,-2.3714,-2.3795,-2.3958,-2.4153,0.0315,0.027,0.027,0.0382,0.0292,0.0202,0.0202,0.0135,0.007,0.0,-0.008,-0.0054,0.0142,0.0183,-0.0024,-0.0586,-0.1173,-0.1799,-0.2454,-0.3048,-0.3441,-0.3528,-0.3566,-0.3585,-0.3585,-0.3585,-0.3585,-0.3585,-0.3691,-0.3744,-0.3744,-0.3744,-0.3744,-0.3744,-0.3638,-0.3585,-0.3585,-0.3585,-0.3616,-0.369,-0.386,-0.3999,-0.4167,-0.3909,-0.3901,-0.4048,-0.4046,-0.3829,-0.3531,-0.3712,-0.3625,-0.3542,-0.4065,-0.4122,-0.4043,-0.4244,-0.4497,-0.4914,-0.5749,-0.604,-0.642,-0.7578,-0.8321,-0.9017,-0.9838,-1.04,-1.1089,-1.2279,-1.2652,-1.3022,-1.3679,-1.3467,-1.318,-1.3334,-1.3334,-1.3392,-1.3583,-1.3905,-1.4455,-1.5311,-1.5412,-1.5668,-1.6423,-1.6522,-1.6522,-1.6633,-1.6675,-1.6718,-1.6791,-1.6833,-1.6846,-1.6876,-1.696,-1.7002,-1.7044,-1.7557,-1.8068,-1.863,-1.9035,-1.9645,-2.041,-2.0877,-2.1401,-2.2027,-2.2527,-2.2876,-2.3102,-2.3289,-2.3407,-2.3494,-2.3494,-2.3638,-2.3819,-2.3819,-2.3979,-2.421,0.0315,0.0292,0.0315,0.0382,0.0292,0.0202,0.0202,0.0135,0.0067,0.0,0.0045,0.0136,0.0273,0.0249,0.009,-0.0203,-0.0992,-0.1637,-0.2011,-0.2866,-0.3403,-0.3406,-0.352,-0.3585,-0.3585,-0.3585,-0.3585,-0.3585,-0.3585,-0.3585,-0.3585,-0.3585,-0.3585,-0.3585,-0.3585,-0.3585,-0.3585,-0.3585,-0.3515,-0.3406,-0.3567,-0.3545,-0.3382,-0.3071,-0.2913,-0.2935,-0.3416,-0.3493,-0.3249,-0.2866,-0.2878,-0.2972,-0.2652,-0.3269,-0.4089,-0.4008,-0.4306,-0.4647,-0.4871,-0.5925,-0.7259,-0.8446,-0.9808,-1.1007,-1.1657,-1.1855,-1.1963,-1.2246,-1.2304,-1.2363,-1.252,-1.252,-1.2578,-1.2725,-1.2725,-1.2832,-1.3075,-1.3133,-1.3583,-1.4766,-1.4903,-1.5355,-1.6392,-1.6522,-1.6522,-1.6522,-1.6633,-1.6633,-1.6522,-1.6633,-1.6761,-1.6876,-1.6876,-1.7002,-1.7199,-1.7199,-1.7679,-1.8592,-1.863,-1.9244,-2.0444,-2.1339,-2.1853,-2.2056,-2.2782,-2.3095,-2.3119,-2.3401,-2.3494,-2.3494,-2.3494,-2.3728,-2.4097,-2.4097,-2.4135,-2.4229,0.036,0.036,0.0382,0.0405,0.036,0.0292,0.0225,0.0135,0.009,0.0067,0.0157,0.0,0.0,0.0,0.0,0.0,-0.0677,-0.1229,-0.1951,-0.2406,-0.284,-0.3267,-0.3398,-0.3447,-0.3469,-0.3471,-0.3471,-0.3471,-0.3471,-0.3527,-0.3585,-0.3585,-0.3585,-0.3585,-0.3585,-0.3585,-0.358,-0.3607,-0.3548,-0.3556,-0.3576,-0.3408,-0.3022,-0.2864,-0.2576,-0.2253,0.0,-0.2302,-0.2524,-0.271,-0.2795,-0.2839,-0.2976,-0.304,-0.3114,-0.3438,-0.3996,-0.4725,-0.5627,-0.6432,-0.7399,-0.9048,-0.9869,-1.0541,-1.1519,-1.1828,-1.1977,-1.2126,-1.1962,-1.1909,-1.2423,-1.2214,-1.211,-1.2638,-1.2676,-1.2822,-1.3142,-1.3478,-1.4035,-1.4915,-1.5311,-1.5744,-1.6423,-1.6479,-1.6436,-1.6522,-1.6479,-1.6479,-1.6522,-1.6522,-1.662,-1.6761,-1.6846,-1.696,-1.7086,-1.7434,-1.7908,-1.8553,-1.9199,-1.9889,-2.061,-2.1103,-2.1642,-2.2164,-2.2678,-2.3042,-2.3241,-2.3453,-2.3539,-2.3517,-2.3616,-2.3813,-2.4057,-2.4192,-2.4338,-2.4479,0.0405,0.0405,0.0382,0.036,0.036,0.0,0.0,0.0,0.0,0.0,0.0,0.0,0.0,0.0,0.0,0.0,0.0,-0.0884,-0.1489,-0.1873,-0.2259,-0.2769,-0.2897,-0.2993,-0.3105,-0.3018,-0.3059,-0.3124,-0.319,-0.3232,-0.3408,-0.3408,-0.3441,-0.335,-0.3444,-0.3439,-0.3391,-0.3379,-0.3402,-0.3425,-0.3161,-0.2928,-0.264,-0.2142,-0.183,0.0,-0.1177,-0.1328,-0.1758,-0.2116,-0.2325,-0.2443,-0.262,-0.2593,-0.2604,-0.3404,-0.4166,-0.5086,-0.6562,-0.724,-0.7852,-0.9416,-0.9814,-1.0072,-1.0846,-1.1099,-1.12,-1.1301,-1.1099,-1.1006,-1.1447,-1.1528,-1.163,-1.2129,-1.2618,-1.3007,-1.3142,-1.3742,-1.4387,-1.496,-1.5433,-1.592,-1.6466,-1.6436,-1.6436,-1.6479,-1.6479,-1.6436,-1.6522,-1.6534,-1.662,-1.6761,-1.6876,-1.7044,-1.7282,-1.7639,-1.8108,-1.8769,-1.9617,-2.02,-2.061,-2.1039,-2.1582,-2.2181,-2.2704,-2.3091,-2.3313,-2.3517,-2.3562,-2.3517,-2.3616,-2.3792,-2.4016,-2.4154,-2.4373,-2.4629,0.0405,0.0405,0.0382,0.0,0.0,0.0,0.0,0.0,0.0,0.0,0.0,0.0,0.0,0.0,0.0,0.0,0.0,0.0,-0.0695,-0.1217,0.0,-0.206,-0.2069,-0.2235,-0.2548,-0.2367,-0.2386,-0.2689,-0.2723,-0.2835,-0.2992,-0.3099,-0.3049,-0.2863,-0.3064,-0.3049,-0.2941,-0.2934,-0.2992,-0.3053,-0.2362,-0.2119,-0.2104,-0.1098,-0.0727,-0.0731,-0.0477,-0.0665,-0.1002,-0.1148,-0.1544,-0.1953,-0.1811,-0.2133,-0.2798,-0.3973,-0.4815,-0.5733,-0.756,-0.8216,-0.864,-0.9575,-0.9658,-0.9614,-0.9762,-0.9814,-0.9806,-0.9923,-0.9819,-0.9736,-0.9719,-1.0463,-1.1076,-1.1227,-1.2451,-1.3334,-1.3172,-1.3978,-1.4652,-1.4903,-1.5377,-1.5864,-1.6423,-1.6436,-1.6436,-1.6522,-1.6522,-1.6522,-1.6522,-1.6633,-1.6761,-1.6876,-1.696,-1.7282,-1.7787,-1.7828,-1.833,-1.9244,-1.9762,-2.015,-2.0429,-2.1134,-2.1658,-2.2039,-2.2833,-2.3217,-2.3313,-2.3517,-2.3562,-2.3517,-2.3585,-2.3765,-2.3996,-2.4016,-2.4302,-2.4692,0.0,0.0,0.0,0.0,0.0,0.0,0.0,0.0,0.0,0.0,0.0,0.0,0.0,0.0,0.0,0.0,0.0,0.0,-0.054,-0.0798,0.0,0.0,0.0,0.0,0.0,0.0,0.0,-0.2234,-0.229,-0.244,-0.2687,-0.2732,-0.2625,-0.2447,-0.2518,-0.2377,-0.2119,-0.2163,-0.2139,-0.2046,-0.1866,-0.1549,-0.1137,-0.0806,-0.049,-0.021,-0.036,-0.0588,-0.0887,-0.119,-0.2012,-0.3075,-0.3827,-0.4331,-0.4791,-0.5614,-0.6525,-0.7482,-0.8341,-0.8724,-0.899,-0.9496,-0.9354,-0.9145,-0.9562,-0.9718,-0.9672,-0.9316,-0.9036,-0.8807,-0.8753,-0.9506,-1.0274,-1.0761,-1.2308,-1.3515,-1.3752,-1.4571,-1.5287,-1.5522,-1.5976,-1.6324,-1.6479,-1.6479,-1.6522,-1.6633,-1.6491,-1.6436,-1.6522,-1.6633,-1.6761,-1.6876,-1.696,-1.7282,-1.7787,-1.8486,-1.9095,-1.9639,-1.994,-2.017,-2.041,-2.0811,-2.1368,-2.2085,-2.2502,-2.2975,-2.3471,-2.3562,-2.3585,-2.3585,-2.3703,-2.3813,-2.3937,-2.4096,-2.4338,-2.4631,0.0,0.0,0.0,0.0,0.0,0.0,0.0,0.0,0.0,0.0,0.0,0.0,0.0,0.0,0.0,0.0,0.0,0.0,0.0,-0.0324,-0.0563,0.0,0.0,0.0,0.0,0.0,0.0,0.0,-0.1772,-0.1949,-0.2211,-0.229,-0.2218,-0.199,-0.2156,-0.2031,-0.1669,-0.1775,-0.1753,0.0,0.0,-0.1128,-0.0984,-0.0668,-0.0459,-0.0352,-0.0649,-0.1195,-0.1865,-0.258,-0.3189,-0.3777,-0.4719,-0.5179,-0.5567,-0.6678,-0.7624,-0.8483,-0.9391,-0.9479,-0.9399,-0.9562,-0.8988,-0.8423,-0.8396,-0.8448,-0.8283,-0.7659,-0.739,-0.7312,-0.7263,-0.8529,-0.9704,-1.0048,-1.2145,-1.3752,-1.3847,-1.4892,-1.5623,-1.5567,-1.6032,-1.6392,-1.6436,-1.6479,-1.6421,-1.6309,-1.6439,-1.6577,-1.665,-1.7033,-1.7132,-1.6973,-1.729,-1.7671,-1.8108,-1.902,-1.9603,-1.9884,-2.0045,-2.017,-2.0357,-2.0763,-2.129,-2.1943,-2.2432,-2.2933,-2.3407,-2.3539,-2.3585,-2.3607,-2.3725,-2.3789,-2.3831,-2.3976,-2.421,-2.4459,0.0,0.0,0.0,0.0,0.0,0.0,0.0,0.0,0.0,0.0118,0.0138,0.0225,0.0382,0.0247,0.0,0.0,0.0,0.0,0.0,0.0,-0.0116,0.0,0.0,0.0,0.0,-0.0718,-0.0841,-0.1038,-0.1319,-0.1525,-0.1637,-0.1813,-0.1775,-0.1543,-0.183,-0.1752,-0.1403,-0.1519,-0.1539,-0.1446,-0.0857,-0.0853,-0.1175,0.0,0.0,-0.076,-0.1086,-0.1957,-0.3145,-0.4386,-0.4577,-0.444,-0.528,-0.5573,-0.5917,-0.7487,-0.8386,-0.9079,-1.0293,-1.0171,-0.971,-0.9547,-0.8652,-0.7662,-0.6983,-0.6784,-0.6524,-0.5724,-0.5645,-0.5701,-0.5717,-0.7498,-0.909,-0.9408,-1.1996,-1.3914,-1.3768,-1.5085,-1.5856,-1.5457,-1.5869,-1.6207,-1.6293,-1.6293,-1.6141,-1.5739,-1.6211,-1.665,-1.6876,-1.7467,-1.7588,-1.7174,-1.7791,-1.8259,-1.8514,-1.9384,-1.9884,-2.0041,-2.008,-2.022,-2.0373,-2.0845,-2.129,-2.1715,-2.2415,-2.2908,-2.3265,-2.3453,-2.3539,-2.3585,-2.3634,-2.3678,-2.37,-2.3761,-2.3999,-2.4301,0.0,0.0,0.0,0.0,0.0,0.0,0.0,0.0,0.0,0.0,-0.0177,0.0135,0.0,0.0,0.0,0.0,0.0,0.0,0.0,0.0,0.0,-0.0092,0.0,0.0,-0.0275,-0.0407,-0.0572,-0.076,-0.1033,-0.1231,-0.1384,-0.1411,-0.1333,-0.1188,-0.1319,-0.1142,-0.0751,-0.077,-0.0892,-0.0998,-0.0701,-0.0746,-0.0948,0.0,0.0,0.0,-0.1158,-0.188,-0.2885,-0.4371,-0.5292,-0.6017,-0.7081,-0.7387,-0.7576,-0.8525,-0.91,-0.9531,-0.9921,-0.9764,-0.9377,-0.9023,-0.8184,-0.7374,-0.7164,-0.6824,-0.6296,-0.545,-0.5247,-0.5211,-0.5212,-0.6336,-0.7767,-0.9475,-1.1506,-1.3278,-1.4348,-1.5457,-1.6144,-1.6057,-1.6144,-1.6059,-1.5686,-1.5761,-1.5699,-1.5351,-1.544,-1.5942,-1.6866,-1.705,-1.7411,-1.7887,-1.8249,-1.8456,-1.85,-1.9457,-2.0061,-2.0235,-2.027,-2.0426,-2.0728,-2.0811,-2.115,-2.1642,-2.2091,-2.2537,-2.291,-2.3102,-2.3289,-2.3448,-2.3453,-2.3544,-2.37,-2.3652,-2.3919,-2.4282,0.0,0.0,0.0,0.0,0.0,0.0,0.0,0.0338,0.0272,0.0036,0.0103,0.0125,0.0,0.0097,0.0202,0.0,0.0,0.0,0.0,0.0,0.0,0.0,0.0,0.0,0.0,-0.027,-0.0449,-0.0538,0.0,-0.114,-0.1184,-0.1161,-0.1138,-0.1103,-0.1178,-0.1028,-0.0776,-0.0901,-0.0932,-0.0852,-0.0828,-0.0901,-0.105,0.0,0.0,0.0,-0.1309,-0.2154,-0.3334,-0.3947,-0.5447,-0.7173,-0.7923,-0.8114,-0.8174,-0.9071,-0.9572,-0.9866,-0.9914,-0.9802,-0.9467,-0.8849,-0.8103,-0.73,-0.6411,-0.6061,-0.5642,-0.4583,-0.4491,-0.4622,-0.4718,-0.6038,-0.7462,-0.8483,-1.0973,-1.3018,-1.3749,-1.5116,-1.5969,-1.5969,-1.5848,-1.5652,-1.5519,-1.5356,-1.5118,-1.4812,-1.4889,-1.5581,-1.6995,-1.7644,-1.8273,-1.8963,-1.929,-1.9302,-1.9033,-2.0012,-2.0411,-2.0185,-2.0323,-2.0494,-2.0662,-2.086,-2.1135,-2.1507,-2.1994,-2.2402,-2.273,-2.2977,-2.3168,-2.3313,-2.336,-2.3453,-2.3544,-2.3629,-2.3896,-2.4192,0.0,0.0,0.0,0.0,0.0,0.0,0.0,0.0425,0.0453,0.0471,0.0432,0.0201,-0.0267,0.0084,0.0364,0.0,0.0,0.0,0.0,0.0,0.0,0.0,0.0,0.0,0.0,0.0,0.0,-0.036,-0.0827,0.0,0.0,0.0,0.0,0.0,-0.1118,-0.1072,-0.0961,-0.1163,-0.1141,0.0,0.0,-0.1163,-0.1274,0.0,0.0,0.0,0.0,-0.2344,-0.3551,-0.3527,-0.5122,-0.7198,-0.7767,-0.8092,-0.8428,-0.9112,-0.9516,-0.9803,-0.9699,-0.9604,-0.932,-0.8606,-0.8,-0.7164,-0.5699,-0.5343,-0.5027,-0.3883,-0.3892,-0.4171,-0.4403,-0.5805,-0.7083,-0.7589,-1.0235,-1.245,-1.304,-1.4619,-1.566,-1.5647,-1.5435,-1.5254,-1.5227,-1.495,-1.461,-1.4354,-1.4889,-1.5824,-1.7175,-1.8414,-1.9316,-1.9786,-2.011,-2.0049,-1.9511,-2.051,-2.0716,-2.022,-2.0426,-2.0561,-2.0695,-2.0958,-2.1214,-2.1417,-2.1924,-2.2265,-2.2517,-2.2876,-2.307,-2.3144,-2.3289,-2.336,-2.3407,-2.3589,-2.3855,-2.4136,0.0,0.0,0.0,0.0,0.0,0.0,0.0,0.0489,0.047,0.0097,0.0421,0.0474,0.0,0.0105,0.0269,0.0,0.0,0.0,0.0,0.0,0.0,0.0,0.0,0.0,0.0,0.0,0.0,-0.0225,-0.0693,0.0,0.0,0.0,0.0,0.0,0.0,-0.105,-0.1072,-0.1116,0.0,0.0,0.0,0.0,0.0,0.0,0.0,0.0,0.0,-0.2078,-0.279,-0.3397,-0.4186,-0.5089,-0.6076,-0.7426,-0.8621,-0.8381,-0.8562,-0.8793,-0.8652,-0.8595,-0.8393,-0.7923,-0.7448,-0.6904,-0.5883,-0.5392,-0.4905,-0.4051,-0.4002,-0.4191,-0.4524,-0.4983,-0.5879,-0.7582,-0.9185,-1.0919,-1.2979,-1.4441,-1.5229,-1.5186,-1.5153,-1.4936,-1.4465,-1.4281,-1.412,-1.4051,-1.5865,-1.7124,-1.7432,-1.891,-1.9747,-1.9799,-2.011,-2.0049,-1.9511,-2.051,-2.0875,-2.066,-2.0543,-2.0761,-2.1214,-2.1135,-2.1199,-2.134,-2.1823,-2.201,-2.2084,-2.2561,-2.2816,-2.2944,-2.3095,-2.3193,-2.3313,-2.3471,-2.3798,-2.4192,0.0,0.0,0.0,0.0,0.0,0.0,0.0497,0.0608,0.0668,0.0678,0.0774,0.0824,0.0626,0.0532,0.0481,0.0398,0.0,0.0,0.0,0.0,0.0,0.0,0.0,0.0,0.0,0.0,-0.0337,-0.0202,-0.0671,0.0,0.0,0.0,0.0,0.0,0.0,-0.0961,-0.1116,-0.123,0.0,0.0,0.0,0.0,0.0,0.0,0.0,0.0,0.0,0.0,-0.2717,-0.2784,-0.3854,-0.5161,-0.5155,-0.6245,-0.7625,-0.8359,-0.8665,-0.8777,-0.8893,-0.8734,-0.8378,-0.7753,-0.7332,-0.6743,-0.5554,-0.5107,-0.4783,-0.4043,-0.4042,-0.4216,-0.44,-0.4979,-0.5752,-0.6609,-0.835,-1.0077,-1.1409,-1.2777,-1.3768,-1.4086,-1.4007,-1.4003,-1.4317,-1.4241,-1.4413,-1.5099,-1.7023,-1.8189,-1.8259,-1.9602,-2.0456,-2.0735,-2.1186,-2.1182,-2.0688,-2.14,-2.1404,-2.0827,-2.086,-2.1023,-2.1309,-2.1277,-2.1309,-2.1402,-2.1721,-2.1969,-2.2153,-2.249,-2.2799,-2.3028,-2.3168,-2.3265,-2.3313,-2.3494,-2.3813,-2.4155,0.0,0.0,0.0,0.0,0.0,0.0521,0.0626,0.0696,0.0838,0.1107,0.1056,0.1007,0.1036,0.0797,0.0595,0.0437,0.0375,0.0,0.0,0.0,0.0,0.0,0.0,0.0,0.0,0.0,-0.0387,-0.0372,-0.0784,-0.089,0.0,0.0,-0.0571,-0.0606,0.0,0.0,0.0,0.0,0.0,0.0,0.0,0.0,0.0,0.0,0.0,0.0,0.0,0.0,0.0,0.0,0.0,-0.4796,-0.434,-0.4974,-0.623,-0.791,-0.8415,-0.8459,-0.8837,-0.8718,-0.8315,-0.7628,-0.7171,-0.6529,-0.5296,-0.487,-0.4601,-0.3998,-0.3994,-0.4127,-0.4274,-0.4829,-0.5395,-0.582,-0.7499,-0.9124,-1.0211,-1.1745,-1.2875,-1.3237,-1.345,-1.3784,-1.4307,-1.457,-1.5012,-1.5737,-1.7544,-1.8576,-1.841,-1.9693,-2.0625,-2.1166,-2.1813,-2.1839,-2.119,-2.1909,-2.1797,-2.0926,-2.1087,-2.1246,-2.1464,-2.1495,-2.154,-2.1615,-2.1781,-2.2027,-2.2385,-2.2598,-2.285,-2.3126,-2.3289,-2.336,-2.3383,-2.3616,-2.3937,-2.4211,0.0,0.0,0.0,0.0,0.0,0.0,0.0701,0.0761,0.0923,0.1237,0.1075,0.0938,0.108,0.0729,0.0493,0.0491,0.0437,0.0,0.0,0.0,0.0,0.0,0.0,0.0,0.0,0.0,-0.0537,-0.0804,-0.1054,-0.1033,-0.0697,-0.0697,-0.0593,-0.0404,0.0,0.0,0.0,0.0,0.0,0.0,0.0,0.0,0.0,0.0,0.0,0.0,0.0,0.0,0.0,0.0,0.0,0.0,0.0,-0.3698,-0.4482,-0.6815,-0.7466,-0.7545,-0.8248,-0.8307,-0.8062,-0.7478,-0.6945,-0.6324,-0.5258,-0.4702,-0.4286,-0.3875,-0.3813,-0.3912,-0.4238,-0.4252,-0.4511,-0.5464,-0.6522,-0.7897,-0.985,-1.1786,-1.2963,-1.2827,-1.3933,-1.456,-1.4222,-1.5295,-1.5853,-1.5539,-1.7165,-1.8003,-1.7529,-1.8924,-2.0038,-2.0673,-2.1718,-2.1719,-2.0528,-2.1753,-2.192,-2.0991,-2.1198,-2.1464,-2.1781,-2.1738,-2.184,-2.2096,-2.1969,-2.2254,-2.279,-2.2799,-2.297,-2.3217,-2.3407,-2.3494,-2.3544,-2.386,-2.4174,-2.4424,0.0,0.0,0.0,0.0,0.0,0.0,0.0,0.0663,0.081,0.1079,0.0981,0.0931,0.0938,0.0733,0.0554,0.0492,0.0437,0.0,0.0,0.0,0.0,0.0,0.0,0.0,0.0,0.0,-0.0594,-0.0609,-0.0897,-0.091,-0.064,-0.0591,-0.0492,-0.0406,-0.0597,-0.0763,0.0,0.0,0.0,0.0,0.0,0.0,-0.141,0.0,0.0,0.0,0.0,0.0,0.0,0.0,0.0,0.0,0.0,0.0,0.0,-0.572,-0.6236,-0.6488,-0.7367,-0.7134,-0.6536,-0.611,-0.5616,-0.505,-0.4416,-0.4086,-0.3857,-0.3639,-0.3847,-0.4071,-0.4025,-0.4456,-0.5181,-0.6318,-0.7117,-0.8068,-0.9446,-1.0739,-1.1627,-1.1767,-1.3498,-1.4755,-1.4949,-1.5775,-1.6379,-1.6528,-1.7635,-1.8326,-1.8313,-1.9111,-1.9764,-2.0207,-2.0657,-2.0869,-2.0754,-2.1347,-2.149,-2.1198,-2.1464,-2.1678,-2.1869,-2.1797,-2.1811,-2.1882,-2.2039,-2.233,-2.2686,-2.2958,-2.3259,-2.3544,-2.3611,-2.366,-2.3728,-2.3937,-2.4192,-2.4489,0.0,0.0,0.0,0.0,0.0,0.0,0.0,0.0771,0.0848,0.0976,0.0948,0.093,0.0906,0.0702,0.057,0.0551,0.0462,0.0,0.0,0.0,0.0,0.0,0.0,0.0,-0.0246,-0.0447,-0.0693,-0.0954,-0.1171,-0.1224,-0.1068,-0.0985,-0.0797,-0.0632,-0.0702,-0.0805,0.0,0.0,0.0,0.0,0.0,0.0,-0.1541,0.0,0.0,0.0,0.0,0.0,0.0,0.0,0.0,0.0,0.0,0.0,0.0,0.0,-0.4737,-0.5004,-0.6239,-0.6234,-0.5758,-0.5305,-0.4829,-0.4377,-0.3989,-0.3728,-0.3525,-0.3471,-0.3668,-0.3877,-0.3923,-0.4192,-0.4738,-0.584,-0.627,-0.7027,-0.873,-0.9846,-1.1005,-1.2394,-1.3379,-1.4283,-1.5073,-1.5876,-1.6441,-1.6642,-1.7584,-1.8147,-1.8202,-1.875,-1.9124,-1.9224,-2.0006,-2.0409,-2.0404,-2.11,-2.1324,-2.1135,-2.1556,-2.1811,-2.194,-2.1869,-2.1899,-2.2015,-2.2084,-2.2385,0.0,-2.3045,-2.3382,-2.3743,-2.3725,-2.3813,-2.3939,-2.4097,-2.4352,-2.4685,0.0,0.0,0.0,0.0,0.0,0.0,0.0,0.1031,0.0988,0.1019,0.1004,0.0976,0.0907,0.0664,0.0541,0.0595,0.0,0.0,0.0,0.0,0.0,0.0,0.0,0.0,-0.0468,-0.0363,-0.0742,-0.1627,-0.1621,-0.1667,-0.1781,-0.1602,-0.1289,-0.0922,-0.0832,-0.0861,0.0,0.0,0.0,0.0,-0.1524,-0.161,0.0,0.0,0.0,0.0,0.0,0.0,0.0,0.0,0.0,0.0,0.0,0.0,0.0,0.0,0.0,0.0,0.0,-0.5439,-0.5444,-0.4824,-0.4416,-0.4123,-0.3876,-0.3536,0.0,-0.3359,-0.3357,-0.347,-0.3926,-0.3588,-0.3597,-0.4556,-0.4539,-0.5258,-0.7826,-0.9131,-1.0992,-1.4152,-1.3536,-1.3362,-1.481,-1.5591,-1.5959,-1.5966,-1.6954,-1.7503,-1.7338,-1.7908,-1.8147,-1.8042,-1.9612,-2.0185,-1.9575,-2.0877,-2.1292,-2.0893,-2.1509,-2.1869,-2.1998,-2.194,-2.2073,-2.2343,-2.2056,-2.2402,-2.3164,-2.3063,-2.3341,-2.3786,-2.3813,-2.3921,-2.4136,-2.4337,-2.4625,-2.4929,0.0,0.0,0.0,0.0,0.0,0.0,0.0,0.0,0.0,0.0,0.0981,0.0895,0.0842,0.0665,0.0552,0.0,0.0,0.0,0.0,0.0,0.0,0.0,0.0,0.0,-0.0269,-0.0328,-0.0577,-0.1024,-0.0749,-0.0656,-0.0747,-0.056,-0.0417,-0.0319,-0.0702,-0.0986,0.0,0.0,0.0,0.0,-0.1433,-0.1563,0.0,0.0,0.0,0.0,-0.194,-0.1929,0.0,0.0,0.0,0.0,0.0,0.0,0.0,0.0,-0.2909,-0.2683,-0.3027,0.0,-0.3656,-0.3273,-0.3123,-0.3053,0.0,-0.2999,-0.3018,-0.308,-0.3317,-0.3623,-0.3953,-0.3944,-0.4343,-0.5755,-0.6094,-0.6558,-0.7653,-0.8985,-1.0866,-1.351,-1.3402,-1.3682,-1.5157,-1.5029,-1.48,-1.4641,-1.5733,-1.6393,-1.6399,-1.706,-1.772,-1.8347,-1.8756,-1.9155,-1.9447,-2.0228,-2.0689,-2.0893,-2.1554,-2.1882,-2.1911,-2.1928,-2.194,-2.2044,-2.2192,-2.2529,-2.2915,-2.3253,-2.3544,-2.3813,-2.3855,-2.402,-2.4265,-2.4369,-2.4681,-2.5069,0.0,0.0,0.0,0.0,0.0,0.0,0.0,0.0,0.0,0.0,0.0,0.1005,0.1027,0.0918,0.0,0.0,0.0,0.0,0.0,0.0,0.0,0.0,0.0,0.018,-0.0202,-0.0202,-0.0493,-0.1022,-0.086,-0.0778,-0.0783,-0.0548,-0.0399,-0.0375,-0.0735,-0.1071,0.0,0.0,0.0,-0.1493,-0.1493,0.0,0.0,0.0,0.0,0.0,-0.1922,-0.1778,0.0,-0.1976,-0.1971,-0.1985,0.0,0.0,0.0,0.0,-0.2329,-0.2134,-0.2207,-0.2602,-0.2962,-0.2702,-0.2696,-0.2742,-0.2742,-0.2735,-0.2751,-0.2848,-0.3041,-0.3291,-0.366,-0.3743,-0.4126,-0.5164,-0.5336,-0.5845,-0.734,-0.8748,-1.0339,-1.2298,-1.2202,-1.2441,-1.37,-1.3594,-1.351,-1.363,-1.4437,-1.5155,-1.5561,-1.6478,-1.734,-1.8135,-1.8436,-1.8745,-1.9205,-1.9874,-2.0379,-2.0763,-2.137,-2.1735,-2.1899,-2.194,-2.194,-2.1969,-2.2198,-2.2473,-2.273,-2.3159,-2.3455,-2.3685,-2.3834,-2.4098,-2.4405,-2.4437,-2.4771,-2.5194,0.0,0.0,0.0,0.0,0.0,0.0,0.0,0.0,0.0,0.0,0.0,0.0,0.0,0.0,0.0,0.0,0.0,0.0,0.0,0.0,0.0,0.0,0.0405,0.0206,-0.0166,-0.0075,-0.0394,-0.1193,-0.1085,-0.1026,-0.0951,-0.0639,-0.0583,-0.0663,-0.0776,-0.1006,0.0,0.0,-0.1513,-0.1563,-0.1587,0.0,0.0,0.0,0.0,0.0,0.0,0.0,0.0,-0.1537,-0.1415,-0.1335,-0.1735,0.0,0.0,0.0,0.0,0.0,-0.2034,-0.249,-0.2834,-0.2592,-0.2655,-0.2785,-0.2777,-0.2665,-0.2585,-0.2715,-0.271,-0.2846,-0.3328,-0.3364,-0.3501,-0.404,-0.389,-0.455,-0.6817,-0.8026,-0.9212,-1.059,-1.0475,-1.0693,-1.1802,-1.2043,-1.2375,-1.2826,-1.3363,-1.4069,-1.4869,-1.5969,-1.6985,-1.7787,-1.8266,-1.8644,-1.8903,-1.9639,-2.0189,-2.0563,-2.1119,-2.1524,-2.1811,-2.194,-2.1998,-2.1998,-2.2152,-2.2377,-2.2651,-2.2982,-2.3265,-2.3526,-2.3813,-2.4136,-2.4487,-2.4522,-2.4845,-2.5293,0.0,0.0,0.0,0.0,0.0,0.0,0.0,0.0,0.0,0.0,0.0,0.0,0.0,0.0,0.0,0.0,0.0,0.0,0.0,0.0,0.0,0.0405,0.0405,0.0247,-0.0118,-0.0085,-0.0258,-0.0625,-0.0091,0.0351,0.0727,0.0656,0.0272,-0.0458,-0.0422,-0.0719,-0.123,-0.1301,-0.1346,-0.1369,-0.1593,0.0,0.0,0.0,0.0,0.0,0.0,0.0,0.0,-0.0976,-0.099,-0.1074,-0.1272,0.0,0.0,0.0,0.0,0.0,-0.2391,-0.2732,-0.2781,-0.2287,-0.2437,-0.2701,-0.2645,-0.2732,-0.2852,-0.2935,-0.2821,-0.2869,-0.3447,-0.3257,-0.3251,-0.4045,-0.4292,-0.4726,-0.5792,-0.6123,-0.6865,-0.8628,-0.8919,-0.9656,-1.1357,-1.1748,-1.2022,-1.2144,-1.3119,-1.3956,-1.4568,-1.5587,-1.6747,-1.7948,-1.8028,-1.824,-1.8553,-1.9229,-1.9879,-2.0444,-2.0958,-2.1293,-2.1402,-2.1751,-2.1928,-2.1928,-2.218,-2.2432,-2.2712,-2.301,-2.3277,-2.3549,-2.3873,-2.4192,-2.4516,-2.4639,-2.493,-2.5312,0.0,0.0,0.0,0.0,0.0,0.0,0.0,0.0,0.0,0.0,0.0,0.0,0.0,0.0,0.0,0.0,0.0,0.0,0.0,0.0,0.0689,0.051,0.0624,0.0542,0.0245,-0.0033,-0.0155,-0.0193,-0.0052,0.0392,0.1087,0.1122,0.0935,0.0481,-0.0134,-0.0617,-0.1001,-0.1219,-0.129,-0.1314,0.0,0.0,0.0,0.0,0.0,0.0,0.0,0.0,0.0,0.0,-0.0745,-0.0784,-0.1139,0.0,0.0,0.0,0.0,0.0,-0.206,-0.2367,-0.2532,-0.2272,-0.2804,-0.3344,-0.3056,-0.2989,-0.2991,-0.2997,-0.274,-0.2708,-0.3403,-0.3191,-0.3091,-0.3694,-0.3955,-0.4348,-0.5045,-0.51,-0.5525,-0.683,-0.713,-0.7823,-0.9337,-0.9725,-1.0148,-1.0885,-1.1533,-1.2278,-1.3102,-1.4373,-1.5712,-1.7094,-1.7407,-1.7828,-1.8383,-1.8472,-1.9014,-2.0019,-2.0632,-2.115,-2.1526,-2.2044,-2.2243,-2.2192,-2.2443,-2.2569,-2.2569,-2.2977,-2.3206,-2.3318,-2.3795,-2.4229,-2.4579,-2.4874,-2.5099,-2.5253,0.0,0.0,0.0,0.0,0.0,0.0,0.0,0.0,0.0,0.0,0.0,0.0,0.0,0.0,0.0,0.0,0.0,0.0,0.0,0.0,0.0904,0.0672,0.0822,0.0806,0.052,0.0267,0.0222,0.0431,0.0343,0.0726,0.146,0.1647,0.1575,0.1243,0.0159,-0.046,-0.0736,-0.1031,-0.1178,-0.1227,0.0,0.0,0.0,0.0,0.0,0.0,0.0,0.0,0.0,0.0,0.0,0.0,0.0,0.0,0.0,-0.1181,-0.1369,-0.153,-0.1717,-0.1997,-0.2286,-0.2466,-0.3089,-0.3531,-0.3279,-0.3126,-0.3035,-0.3054,-0.2704,-0.2609,-0.3275,-0.3104,-0.2897,-0.3066,-0.3241,-0.3521,-0.3991,-0.4039,-0.4247,-0.4862,-0.5306,-0.5936,-0.6993,-0.762,-0.842,-0.9585,-1.0148,-1.0876,-1.1949,-1.3253,-1.4711,-1.623,-1.6701,-1.7338,-1.8108,-1.7828,-1.8341,-1.9579,-2.0162,-2.0829,-2.1556,-2.2226,-2.249,-2.2432,-2.2712,-2.2712,-2.2542,-2.2952,-2.3157,-2.3183,-2.3714,-2.4211,-2.4663,-2.5006,-2.5164,-2.5206,0.0,0.0,0.0,0.0,0.0,0.0,0.0,0.0,0.0,0.0,0.0,0.0,0.0,0.0,0.0,0.0,0.0,0.0,0.0,0.0,0.0954,0.0891,0.0945,0.0822,0.0508,0.091,0.1205,0.1393,0.185,0.2272,0.2584,0.2636,0.2219,0.1283,0.0563,0.0,-0.0453,-0.0658,-0.0815,-0.0945,-0.1194,0.0,0.0,0.0,0.0,0.0,0.0,0.0,0.0,0.0,0.0,0.0,0.0,0.0,-0.081,-0.0834,-0.0846,-0.1017,-0.1785,-0.2044,-0.2279,-0.2968,-0.2826,-0.2596,-0.2866,-0.2937,-0.296,-0.3168,-0.2941,-0.2837,-0.301,-0.288,-0.2597,-0.2178,-0.2127,-0.213,-0.2196,-0.2428,-0.2601,-0.2479,-0.3474,-0.4278,-0.4613,-0.6367,-0.7844,-0.8714,-0.9811,-1.0864,-1.1929,-1.2859,-1.4141,-1.577,-1.6053,-1.6629,-1.7557,-1.772,-1.8266,-1.9139,-1.9579,-2.0196,-2.0991,-2.189,-2.2375,-2.2508,-2.2773,-2.2842,-2.279,-2.2893,-2.3077,-2.3307,-2.3606,-2.4118,-2.4704,-2.494,-2.5094,-2.5206,0.0,0.0,0.0,0.0,0.0,0.0,0.0,0.0,0.0,0.0,0.0,0.0,0.0,0.0,0.0,0.0,0.0,0.0,0.0,0.1299,0.1236,0.1025,0.1176,0.1233,0.1266,0.1433,0.173,0.2262,0.271,0.2875,0.274,0.2596,0.2229,0.1557,0.0743,0.0178,-0.0157,-0.0405,-0.0607,-0.0785,-0.1029,-0.1227,0.0,0.0,0.0,0.0,0.0,0.0,0.0,0.0,0.02,0.0188,-0.0132,-0.0278,-0.0383,-0.0765,-0.0878,-0.0999,-0.1305,-0.1484,-0.1663,-0.2008,-0.2037,-0.2181,-0.2901,-0.3119,-0.3169,-0.3291,-0.2988,-0.2631,-0.2407,-0.2191,-0.1902,-0.151,-0.1398,-0.1341,-0.1341,-0.1512,-0.1681,-0.1902,-0.2287,-0.2945,-0.4033,-0.5008,-0.6192,-0.77,-0.8357,-0.9252,-1.0543,-1.1571,-1.2887,-1.4485,-1.5206,-1.6027,-1.7005,-1.7325,-1.7801,-1.8472,-1.9485,-2.0227,-2.0797,-2.1652,-2.2231,-2.2537,-2.2833,-2.2902,-2.2893,-2.3199,-2.3307,-2.3364,-2.3905,-2.4371,-2.4716,-2.494,-2.5075,-2.5201,0.0,0.0,0.0,0.0,0.0,0.0,0.0,0.0,0.0,0.0,0.0,0.0,0.0,0.0,0.0,0.0,0.0,0.0,0.1296,0.1521,0.1558,0.1296,0.1532,0.175,0.2023,0.2285,0.2587,0.2917,0.338,0.3413,0.2905,0.2621,0.2283,0.1926,0.092,0.041,0.0275,-0.0167,-0.0484,-0.0676,-0.0784,-0.1007,0.0,0.0,0.0,0.0,0.0,0.0,0.0,0.0,0.035,0.0432,-0.0054,-0.0115,-0.0122,-0.0497,-0.0575,-0.0514,-0.0446,-0.0652,-0.09,-0.0912,-0.1191,-0.1707,-0.2633,-0.2979,-0.3123,-0.3242,-0.2808,-0.2295,-0.1722,-0.1355,-0.1006,-0.0447,-0.0279,-0.0279,-0.0447,-0.0616,-0.0896,-0.1287,-0.1343,-0.1732,-0.2837,-0.3495,-0.4583,-0.6377,-0.7143,-0.8125,-0.9458,-1.0399,-1.1594,-1.3084,-1.4057,-1.5073,-1.6145,-1.6799,-1.7435,-1.7947,-1.9192,-2.007,-2.0665,-2.1472,-2.2057,-2.2502,-2.2859,-2.2995,-2.2977,-2.3342,-2.3508,-2.3566,-2.4118,-2.4491,-2.476,-2.4893,-2.5063,-2.5233,0.0,0.0,0.0,0.0,0.0,0.0,0.0,0.0,0.0,0.0,0.0,0.0,0.0,0.0,0.0,0.0,0.0,0.0,0.1299,0.1743,0.192,0.1722,0.2031,0.236,0.2707,0.3571,0.3821,0.3403,0.4045,0.3966,0.3205,0.2849,0.2534,0.2241,0.1094,0.0754,0.0945,0.008,-0.0411,-0.0586,-0.0517,-0.074,-0.1096,0.0,0.0,0.0,0.0,0.0,0.0,0.0,0.0427,0.0129,0.0177,0.0061,-0.0092,0.0,0.0234,0.0539,0.0746,0.0418,0.0037,0.0077,-0.0431,-0.1184,-0.1943,-0.2351,-0.2674,-0.2834,-0.2521,-0.1903,-0.0894,-0.0447,0.0112,0.1118,0.1285,0.1119,0.0505,0.0168,-0.0112,-0.0336,-0.0561,-0.0673,-0.0729,-0.1896,-0.3269,-0.4678,-0.622,-0.7652,-0.8903,-0.9517,-1.0367,-1.1554,-1.2619,-1.3763,-1.4982,-1.6188,-1.7063,-1.7626,-1.8616,-1.9588,-2.0499,-2.1319,-2.1943,-2.2422,-2.2833,-2.3028,-2.3119,-2.3241,-2.3549,-2.3917,-2.4115,-2.4441,-2.4804,-2.4804,-2.5006,-2.5282,0.0,0.0,0.0,0.0,0.0,0.0,0.0,0.0,0.0,0.0,0.0,0.0,0.0,0.0,0.0,0.0,0.0,0.0,0.1809,0.192,0.1964,0.1917,0.2044,0.2306,0.2689,0.3174,0.368,0.4178,0.416,0.368,0.2615,0.2275,0.188,0.1374,0.094,0.0589,0.0348,0.0095,-0.0166,-0.039,-0.053,-0.0744,-0.1039,0.0,0.0,0.0,0.0,0.0,0.0,0.0,0.0,0.0,0.0608,0.0487,0.0366,0.0292,0.0355,0.0451,0.0562,0.0623,0.0529,0.0179,-0.0084,-0.0441,-0.1137,-0.1826,-0.2307,-0.2438,-0.2415,-0.1957,-0.0617,-0.0056,0.0559,0.1621,0.1846,0.1847,0.168,0.1008,0.0448,0.0393,-0.0112,-0.0728,-0.1287,-0.1845,-0.3005,-0.4875,-0.5806,-0.7004,-0.8474,-0.9152,-0.9843,-1.0596,-1.1828,-1.3032,-1.413,-1.5525,-1.6634,-1.7394,-1.8408,-1.9369,-2.0224,-2.0812,-2.1352,-2.1919,-2.233,-2.2599,-2.2781,-2.3188,-2.3638,-2.4054,-2.4113,-2.4373,-2.4727,-2.4727,-2.4968,-2.5302,0.0,0.0,0.0,0.0,0.0,0.0,0.0,0.0,0.0,0.0,0.2681,0.2551,0.0,0.0,0.0,0.0,0.0,0.0,0.2048,0.2158,0.2213,0.2123,0.2367,0.2721,0.3216,0.3602,0.385,0.394,0.3697,0.315,0.2344,0.2087,0.1837,0.1526,0.1039,0.0706,0.0552,0.0113,-0.0162,-0.0303,-0.0423,-0.0623,-0.0851,0.0,0.0,0.0,0.0,0.0,0.0,0.0,0.0,0.0,0.0674,0.0562,0.0577,0.0716,0.0857,0.1041,0.1391,0.1509,0.1475,0.1192,0.0944,0.0622,-0.0052,-0.1124,-0.2008,-0.2098,-0.1793,-0.1145,0.0,0.0781,0.1563,0.2569,0.2794,0.274,0.2517,0.1959,0.14,0.0841,0.0336,-0.0336,-0.1231,-0.168,-0.2679,-0.4443,-0.5269,-0.6253,-0.7391,-0.8084,-0.8547,-0.8606,-1.0672,-1.2175,-1.2973,-1.5035,-1.6604,-1.7626,-1.8212,-1.9035,-2.008,-2.041,-2.0959,-2.1685,-2.222,-2.2625,-2.2947,-2.3236,-2.3642,-2.4094,-2.4132,-2.4338,-2.4639,-2.4697,-2.4923,-2.5182,0.0,0.0,0.0,0.0,0.0,0.0,0.0,0.0,0.0,0.2859,0.2891,0.2848,0.0,0.0,0.0,0.2485,0.2468,0.2376,0.2167,0.2433,0.2525,0.2363,0.287,0.3413,0.3948,0.4383,0.408,0.3034,0.2845,0.2558,0.2249,0.2162,0.2175,0.2253,0.1282,0.1009,0.1185,0.018,-0.0251,-0.0254,-0.0299,-0.0429,-0.0604,-0.0606,0.0,0.0,0.0,0.0,0.0,0.0,0.0,0.0,0.0518,0.0481,0.0657,0.1156,0.1544,0.1971,0.2712,0.274,0.2596,0.2657,0.2274,0.169,0.1217,-0.0218,-0.1507,-0.156,-0.078,0.0112,0.0894,0.1842,0.279,0.3683,0.3796,0.363,0.3072,0.2961,0.246,0.1177,0.0841,0.0336,-0.0785,-0.1456,-0.2345,-0.3671,-0.4666,-0.5492,-0.5928,-0.6583,-0.6691,-0.6131,-0.9278,-1.1123,-1.1616,-1.4609,-1.6782,-1.7987,-1.8014,-1.8717,-1.9955,-2.012,-2.0699,-2.1668,-2.2364,-2.2943,-2.3387,-2.333,-2.362,-2.4094,-2.417,-2.4303,-2.4528,-2.47,-2.4864,-2.5041,0.0,0.0,0.0,0.0,0.0,0.0,0.0,0.0,0.3187,0.3122,0.3165,0.3165,0.3058,0.3101,0.0,0.3031,0.3031,0.2923,0.2659,0.2572,0.258,0.2686,0.3262,0.3637,0.3766,0.3655,0.3279,0.2631,0.2781,0.2573,0.1987,0.2055,0.1921,0.1614,0.1411,0.1199,0.0872,0.033,0.0101,0.0076,-0.0257,-0.0437,-0.053,-0.0706,-0.0577,0.0,0.0,0.0,0.0,0.0,0.0,0.0,0.0811,0.083,0.094,0.1143,0.1548,0.1938,0.2281,0.2754,0.3043,0.2696,0.2284,0.1913,0.1818,0.1386,0.0885,0.0485,0.0548,0.0949,0.1953,0.2456,0.2903,0.3685,0.391,0.391,0.3799,0.3352,0.274,0.1847,0.1342,0.0559,-0.0617,-0.14,-0.2235,-0.3342,-0.4388,-0.5156,-0.5597,-0.5751,-0.5747,-0.5475,-0.8287,-1.0069,-1.0761,-1.4135,-1.6275,-1.7186,-1.7988,-1.8741,-1.9485,-1.9949,-2.0797,-2.1853,-2.2231,-2.2738,-2.3307,-2.3319,-2.3616,-2.4094,-2.4074,-2.4229,-2.4512,-2.4474,-2.4741,-2.5082,0.0,0.0,0.0,0.0,0.0,0.0,0.0,0.0,0.3208,0.3257,0.3272,0.3287,0.326,0.3309,0.0,0.0,0.3257,0.3122,0.2859,0.2756,0.2788,0.3031,0.3495,0.3703,0.3547,0.3494,0.3108,0.2441,0.2532,0.238,0.1979,0.176,0.1663,0.1628,0.1241,0.1046,0.0952,0.0459,0.0321,0.0403,0.0,-0.0156,-0.0201,-0.0504,-0.0337,0.0045,0.0157,0.0,0.0,0.0,0.0,0.0,0.0,0.0,0.088,0.1192,0.1527,0.1857,0.2408,0.2973,0.3369,0.3352,0.3217,0.3012,0.2956,0.2843,0.2662,0.2398,0.2094,0.2011,0.24,0.2959,0.3463,0.391,0.4132,0.4242,0.4242,0.3962,0.3461,0.2516,0.1955,0.1061,-0.0392,-0.1063,-0.1788,-0.285,-0.3619,-0.3999,-0.3947,-0.4549,-0.4604,-0.4061,-0.7098,-0.8908,-0.9292,-1.2943,-1.5345,-1.6519,-1.7652,-1.8688,-1.9702,-2.0431,-2.1118,-2.1777,-2.2056,-2.2616,-2.3301,-2.3295,-2.3616,-2.4054,-2.4094,-2.4191,-2.4357,-2.4461,-2.4639,-2.4879,0.0,0.0,0.0,0.0,0.0,0.0,0.0,0.0,0.0,0.3278,0.3309,0.3296,0.3296,0.3366,0.3372,0.0,0.0,0.0,0.2994,0.2968,0.3056,0.3278,0.3602,0.3678,0.3466,0.3532,0.3234,0.2515,0.2342,0.2267,0.2238,0.1644,0.1549,0.1844,0.1087,0.0955,0.119,0.0631,0.055,0.0743,0.0347,0.021,0.0222,-0.0125,0.0048,0.0449,0.0337,0.0627,0.1027,0.0785,0.0,0.0,0.0,0.0,0.0748,0.1178,0.1469,0.1796,0.2506,0.3101,0.3633,0.4082,0.4249,0.4245,0.4132,0.4018,0.3907,0.3852,0.3408,0.2961,0.2736,0.3408,0.4024,0.4193,0.4411,0.4574,0.4574,0.457,0.4181,0.3128,0.2623,0.1729,-0.0056,-0.0559,-0.1174,-0.2184,-0.2623,-0.2621,-0.2071,-0.3012,-0.3292,-0.2577,-0.5779,-0.7518,-0.7704,-1.1874,-1.4573,-1.5726,-1.733,-1.8712,-1.9995,-2.091,-2.1432,-2.1612,-2.2039,-2.2616,-2.3253,-2.3253,-2.3491,-2.3917,-2.4054,-2.4132,-2.419,-2.441,-2.4561,-2.467,0.0,0.0,0.0,0.0,0.0,0.0,0.0,0.0,0.0,0.0,0.3309,0.3296,0.3296,0.3366,0.3366,0.3296,0.3415,0.34,0.3257,0.0,0.0,0.3211,0.3492,0.3634,0.3653,0.3509,0.3282,0.3009,0.27,0.267,0.2868,0.2266,0.1919,0.1813,0.156,0.1425,0.1349,0.0981,0.0911,0.1007,0.0668,0.0536,0.0525,0.0416,0.0527,0.0736,0.0736,0.0803,0.0914,0.0825,0.0761,0.0,0.0,0.0,0.0876,0.0953,0.1346,0.181,0.1924,0.271,0.3608,0.4056,0.4356,0.4463,0.4463,0.4405,0.4298,0.4021,0.3747,0.3471,0.3471,0.3747,0.4024,0.4193,0.4467,0.4743,0.4959,0.4901,0.4512,0.3627,0.3289,0.2454,0.0728,0.0168,-0.0447,-0.1233,-0.1623,-0.1677,-0.1454,-0.1284,-0.1452,-0.2071,-0.4193,-0.5699,-0.6455,-1.2034,-1.4623,-1.4215,-1.7514,-1.9177,-1.9354,-2.0516,-2.1244,-2.1642,-2.2392,-2.2825,-2.3028,-2.3028,-2.3212,-2.35,-2.362,-2.3789,-2.3976,-2.4095,-2.4373,-2.4697,0.0,0.0,0.0,0.0,0.0,0.0,0.0,0.0,0.0,0.0,0.0,0.3472,0.3612,0.357,0.3528,0.3584,0.357,0.3541,0.3527,0.3487,0.3484,0.3484,0.3482,0.3495,0.3525,0.3295,0.3124,0.3045,0.2787,0.2764,0.3005,0.2604,0.2281,0.1963,0.1746,0.1538,0.1325,0.1109,0.1079,0.1187,0.0765,0.0761,0.0962,0.0625,0.082,0.1206,0.0906,0.0825,0.0847,0.0847,0.0717,0.054,0.063,0.0,0.0,0.0,0.0939,0.134,0.2004,0.2787,0.3538,0.4072,0.4356,0.4463,0.4356,0.4301,0.4132,0.3747,0.3638,0.3585,0.3585,0.386,0.419,0.4356,0.4688,0.4963,0.5069,0.5069,0.4736,0.4021,0.3347,0.24,0.0951,0.0392,-0.0224,-0.1066,-0.0896,-0.0784,-0.0672,-0.0783,-0.1118,-0.1846,-0.3364,-0.444,-0.505,-1.0621,-1.4603,-1.6877,-1.8275,-1.9095,-1.9347,-2.0503,-2.1272,-2.1635,-2.2347,-2.2876,-2.3223,-2.3175,-2.3307,-2.3522,-2.3667,-2.3813,-2.3921,-2.3601,-2.3672,-2.393,0.0,0.0,0.0,0.0,0.0,0.0,0.0,0.0,0.0,0.0,0.0,0.3605,0.3869,0.0,0.0,0.0,0.3646,0.3563,0.3664,0.3681,0.371,0.3723,0.3514,0.3408,0.3408,0.3175,0.3041,0.2998,0.2848,0.2942,0.3236,0.2979,0.2748,0.2479,0.2053,0.1637,0.1285,0.122,0.1236,0.1299,0.1017,0.1108,0.1374,0.1097,0.135,0.1764,0.1241,0.1058,0.1037,0.0979,0.0769,0.0559,0.068,0.0625,0.0,0.0,0.0,0.09,0.2007,0.2613,0.3104,0.3833,0.4191,0.4324,0.4223,0.4051,0.3871,0.3572,0.3555,0.3602,0.3633,0.3913,0.4245,0.4463,0.4849,0.5124,0.5238,0.5183,0.4963,0.447,0.363,0.2569,0.1229,0.084,0.0168,-0.0785,-0.0393,-0.0056,0.0112,-0.028,-0.0783,-0.1509,-0.2615,-0.3448,-0.3901,-0.9227,-1.4467,-1.9531,-1.8999,-1.8884,-1.925,-2.0387,-2.1115,-2.1523,-2.2334,-2.2943,-2.3389,-2.3389,-2.344,-2.354,-2.371,-2.3707,-2.3571,-2.3125,-2.2989,-2.3008,0.0,0.0,0.0,0.0,0.0,0.0,0.0,0.0,0.0,0.0,0.0,0.3605,0.3869,0.3716,0.3675,0.389,0.3539,0.3395,0.3598,0.366,0.3723,0.3792,0.3549,0.0,0.3408,0.3266,0.3138,0.2998,0.2998,0.3275,0.3851,0.3522,0.3453,0.3584,0.2683,0.19,0.1296,0.1359,0.138,0.1421,0.164,0.1723,0.1737,0.2216,0.2424,0.2382,0.1908,0.1754,0.1693,0.1235,0.1,0.0858,0.0814,0.0711,0.0579,0.0,0.0,0.0,0.1596,0.1856,0.2171,0.3328,0.3738,0.3892,0.4155,0.3923,0.3702,0.377,0.365,0.3554,0.3776,0.391,0.4132,0.4463,0.4849,0.5238,0.5681,0.5466,0.5242,0.5073,0.4522,0.3522,0.1902,0.1734,0.1175,-0.0168,0.0,0.0449,0.101,0.0785,0.0168,-0.0724,-0.1722,-0.2561,-0.313,-0.834,-1.4159,-2.0405,-1.9325,-1.8745,-1.8693,-1.9904,-2.0702,-2.1215,-2.2591,-2.3218,-2.3336,-2.3513,-2.3468,-2.3342,-2.3602,-2.3238,-2.2605,-2.2811,-2.2582,-2.2191,0.0,0.0,0.0,0.0,0.0,0.0,0.0,0.0,0.0,0.0,0.0,0.0,0.0,0.4089,0.3995,0.3853,0.3425,0.3391,0.3886,0.3986,0.4078,0.4236,0.4081,0.3903,0.3723,0.3584,0.3408,0.319,0.3105,0.3184,0.3452,0.3227,0.3168,0.3179,0.2745,0.2253,0.1734,0.1455,0.1336,0.1353,0.1495,0.1775,0.2177,0.2914,0.3197,0.3134,0.2694,0.2016,0.137,0.1511,0.1114,0.0619,0.081,0.0773,0.0621,0.0423,0.0406,0.0573,0.1234,0.153,0.1898,0.2797,0.3357,0.3678,0.3683,0.3798,0.3799,0.3569,0.36,0.369,0.3674,0.391,0.4245,0.468,0.5011,0.5344,0.5736,0.5513,0.523,0.5011,0.4181,0.3181,0.2014,0.1566,0.0951,0.0,0.0168,0.0616,0.1175,0.151,0.0164,-0.3106,-0.3409,-0.6263,-1.2034,-1.3395,-1.6372,-2.0927,-2.0042,-1.9732,-1.9967,-2.0956,-2.1532,-2.1787,-2.286,-2.3387,-2.3491,-2.3584,-2.3606,-2.3642,-2.3732,-2.3327,-2.2643,-2.2283,-2.1819,-2.1424,0.0,0.0,0.0,0.0,0.0,0.0,0.0,0.0,0.0,0.3086,0.0,0.0,0.0,0.0,0.4047,0.3732,0.3415,0.3418,0.3842,0.3875,0.3973,0.4119,0.397,0.382,0.374,0.3462,0.3279,0.3158,0.2971,0.2946,0.312,0.3005,0.2994,0.3079,0.2751,0.2391,0.2008,0.1705,0.1498,0.142,0.1642,0.1949,0.232,0.3159,0.3387,0.3235,0.2965,0.2364,0.1723,0.1971,0.162,0.1117,0.1167,0.0962,0.0665,0.0465,0.0446,0.0588,0.0992,0.1264,0.1614,0.2447,0.2867,0.3234,0.3744,0.388,0.3949,0.4191,0.4306,0.4392,0.4385,0.4677,0.4901,0.5058,0.5445,0.5778,0.6059,0.5614,0.5281,0.5175,0.4233,0.3236,0.2348,0.19,0.1285,0.0224,0.0616,0.1119,0.1732,0.2339,0.043,-0.4307,-0.4626,-0.8807,-1.7301,-1.5103,-1.6447,-2.1366,-1.914,-1.9076,-2.0939,-2.0048,-2.0574,-2.22,-2.3041,-2.345,-2.354,-2.3696,-2.3798,-2.3837,-2.3919,-2.3342,-2.2392,-2.1932,-2.1269,-2.062,0.0,0.0,0.0,0.0,0.0,0.0,0.0,0.0,0.3068,0.327,0.0,0.0,0.0,0.0,0.0,0.3546,0.3492,0.3453,0.3414,0.3343,0.3328,0.3404,0.3161,0.3151,0.3405,0.2888,0.2716,0.2906,0.2572,0.2614,0.2977,0.2851,0.3023,0.3437,0.2708,0.2294,0.2096,0.2093,0.1893,0.1654,0.2168,0.2283,0.2208,0.2901,0.3004,0.2738,0.274,0.2809,0.287,0.2613,0.2518,0.2381,0.186,0.1225,0.0682,0.0615,0.0637,0.0719,0.0,0.0,0.0,0.2249,0.229,0.255,0.4337,0.4203,0.4085,0.5492,0.5637,0.5566,0.5941,0.615,0.6095,0.5651,0.6046,0.649,0.6588,0.5878,0.5391,0.5563,0.4798,0.3855,0.2847,0.2847,0.2235,0.0616,0.1343,0.2124,0.2734,0.3157,0.1115,-0.3877,-0.5164,-0.9649,-1.7827,-1.2954,-1.4201,-2.1529,-1.6473,-1.6584,-2.116,-1.6949,-1.7717,-2.2358,-2.3041,-2.3376,-2.344,-2.3919,-2.4019,-2.3937,-2.421,-2.3252,-2.1711,-2.1847,-2.1017,-1.9802,0.0,0.0,0.0,0.0,0.0,0.262,0.2699,0.2869,0.3098,0.0,0.0,0.0,0.4228,0.3956,0.3869,0.4126,0.3402,0.3071,0.3452,0.3365,0.3378,0.3544,0.3568,0.3608,0.3684,0.3313,0.3109,0.311,0.2772,0.2618,0.263,0.2507,0.254,0.2697,0.2488,0.225,0.2014,0.1667,0.1626,0.183,0.1977,0.2245,0.2577,0.2909,0.3197,0.3381,0.3445,0.3229,0.2928,0.304,0.2595,0.1915,0.1362,0.0971,0.0682,0.0559,0.0502,0.053,0.0762,0.0,0.0,0.0,0.0,0.0,0.3094,0.3136,0.3448,0.5027,0.5076,0.5135,0.613,0.674,0.7063,0.6848,0.6858,0.6869,0.682,0.6485,0.61,0.5673,0.5179,0.457,0.3846,0.3732,0.334,0.2559,0.2726,0.3169,0.3779,0.2094,0.055,-0.0635,-0.4329,-0.9282,-1.5554,-1.4448,-1.4771,-1.658,-1.5799,-1.5901,-1.6708,-1.6343,-1.8611,-2.2867,-2.257,-2.2815,-2.345,-2.3917,-2.4114,-2.4135,-2.4247,-2.3323,-2.193,-2.2021,-2.1127,-1.9888,0.0,0.0,0.272,0.2629,0.2816,0.2921,0.2788,0.309,0.3353,0.0,0.0,0.0,0.4187,0.4329,0.4386,0.4317,0.359,0.3186,0.3356,0.3188,0.3082,0.3057,0.326,0.3455,0.3591,0.3234,0.309,0.3158,0.2846,0.2584,0.2373,0.2387,0.2328,0.2221,0.2117,0.2006,0.1889,0.141,0.1425,0.1816,0.2358,0.2614,0.2741,0.3384,0.3547,0.3527,0.3896,0.3574,0.3129,0.3834,0.3468,0.2642,0.2197,0.1755,0.1319,0.0877,0.1018,0.1277,0.1092,0.1285,0.1554,0.1701,0.0,0.0,0.359,0.38,0.4271,0.6277,0.6481,0.6509,0.7172,0.7551,0.7824,0.7824,0.783,0.7676,0.7354,0.7025,0.6558,0.5828,0.5494,0.4954,0.4196,0.42,0.4002,0.344,0.3776,0.4436,0.5412,0.2094,0.0293,0.0633,-0.2658,-0.7801,-1.4868,-1.1605,-1.1566,-1.4831,-1.1443,-1.1796,-1.534,-1.4159,-1.7211,-2.3343,-2.2629,-2.2557,-2.2958,-2.3024,-2.3472,-2.4173,-2.4284,-2.3631,-2.2585,-2.2227,-2.1392,-2.0391,0.0,0.0,0.3199,0.3275,0.3461,0.3518,0.3273,0.3618,0.389,0.0,0.3988,0.4273,0.453,0.5054,0.5127,0.4495,0.399,0.3563,0.3215,0.2963,0.2666,0.233,0.2667,0.301,0.3352,0.2951,0.2875,0.3161,0.2819,0.2506,0.223,0.2399,0.2314,0.1989,0.173,0.1654,0.1714,0.1357,0.1415,0.1852,0.2974,0.3166,0.2922,0.4118,0.4148,0.3655,0.4208,0.4034,0.3691,0.4784,0.4717,0.4118,0.3658,0.3175,0.2578,0.157,0.1877,0.2375,0.1739,0.2022,0.245,0.2245,0.1971,0.0,0.4684,0.4991,0.5444,0.7809,0.818,0.8088,0.8219,0.8076,0.8037,0.8202,0.8493,0.8528,0.8025,0.7557,0.6988,0.6123,0.5784,0.5211,0.4226,0.4498,0.4457,0.3935,0.4546,0.5621,0.7116,0.3052,0.0834,0.1176,0.0049,-0.502,-1.4349,-0.639,-0.6351,-1.413,-0.5461,-0.6217,-1.5049,-1.1235,-1.4672,-2.3581,-2.2797,-2.2353,-2.2162,-2.1641,-2.2429,-2.3988,-2.4081,-2.3806,-2.3257,-2.2351,-2.1619,-2.0963,0.3459,0.3522,0.3634,0.3809,0.4099,0.4372,0.459,0.4644,0.4857,0.5283,0.564,0.6083,0.6721,0.5852,0.5429,0.5926,0.4578,0.3563,0.3215,0.3,0.2763,0.247,0.2998,0.3415,0.3701,0.3258,0.3174,0.3494,0.2745,0.2404,0.2439,0.2432,0.2271,0.1989,0.1774,0.1548,0.1331,0.1687,0.2135,0.2674,0.2851,0.331,0.3972,0.4781,0.5176,0.5297,0.503,0.5177,0.544,0.5366,0.537,0.5227,0.3981,0.4307,0.4775,0.2923,0.2217,0.2114,0.2506,0.2826,0.2895,0.2274,0.2158,0.0,0.276,0.2762,0.3167,0.4912,0.5019,0.5089,0.5951,0.6329,0.6338,0.5861,0.7072,0.8106,0.8266,0.8408,0.7927,0.6483,0.6252,0.5897,0.5132,0.5236,0.536,0.5542,0.5477,0.5749,0.6406,0.5575,0.5005,0.4798,0.5153,0.0705,-0.8989,-0.3832,-0.3583,-0.8161,-0.3745,-0.4371,-0.9498,-0.9513,-1.4243,-2.2479,-2.1724,-2.1482,-2.1603,-2.0677,-2.1461,-2.3161,-2.2599,-2.2451,-2.2437,-2.1711,-2.0974,-2.0317,0.4097,0.4149,0.4294,0.4653,0.4982,0.5239,0.5435,0.5674,0.587,0.5982,0.6451,0.6747,0.6607,0.6096,0.5691,0.5566,0.4584,0.3821,0.3524,0.3244,0.2976,0.2712,0.3115,0.3402,0.3547,0.3284,0.3219,0.335,0.2837,0.2492,0.2305,0.2469,0.2606,0.2673,0.196,0.182,0.2089,0.182,0.2073,0.2714,0.3547,0.449,0.5412,0.6016,0.6339,0.6416,0.6204,0.647,0.6866,0.6476,0.6352,0.6306,0.5754,0.5735,0.5695,0.4618,0.4103,0.3872,0.3768,0.3754,0.3593,0.3001,0.2726,0.0,0.0,0.3216,0.3534,0.5205,0.5196,0.513,0.5868,0.5884,0.5779,0.5753,0.7051,0.7974,0.7551,0.838,0.8456,0.7066,0.6685,0.6292,0.565,0.5498,0.5724,0.6519,0.6226,0.6259,0.6828,0.6251,0.5831,0.5733,0.613,0.2747,-0.4642,0.0179,0.0534,-0.363,0.0404,-0.1253,-0.7832,-0.8566,-1.3723,-2.2045,-2.117,-2.0898,-2.0984,-2.0043,-2.0476,-2.1762,-2.1793,-2.1995,-2.2199,-2.1472,-2.102,-2.069,0.4752,0.4734,0.4847,0.5289,0.5604,0.5842,0.597,0.6389,0.6634,0.6441,0.7039,0.7249,0.6592,0.6618,0.6378,0.5597,0.5078,0.4611,0.4193,0.3817,0.356,0.3447,0.3446,0.356,0.3757,0.3469,0.3256,0.3114,0.2915,0.2566,0.2128,0.2471,0.281,0.3052,0.2264,0.2247,0.2784,0.2094,0.2251,0.3066,0.4469,0.5493,0.6208,0.6944,0.713,0.7089,0.7245,0.761,0.7887,0.7449,0.7341,0.731,0.7194,0.6892,0.6481,0.5849,0.5943,0.5984,0.4954,0.4486,0.4187,0.3672,0.3268,0.3192,0.0,0.0,0.0,0.5581,0.5545,0.5354,0.5695,0.5374,0.5187,0.5609,0.677,0.7332,0.6309,0.7606,0.8214,0.7116,0.6806,0.642,0.5801,0.5515,0.5933,0.7189,0.7036,0.7036,0.7465,0.637,0.5745,0.5733,0.5865,0.3592,-0.1352,0.3869,0.4138,-0.0542,0.3996,0.1281,-0.7795,-0.8187,-1.3248,-2.1665,-2.0839,-2.0439,-2.0268,-1.9528,-1.9622,-2.0296,-2.0991,-2.1608,-2.1979,-2.1209,-2.1037,-2.1091,0.5214,0.4991,0.4829,0.524,0.5383,0.5641,0.626,0.6365,0.654,0.7107,0.7833,0.848,0.903,0.8529,0.8245,0.8502,0.7555,0.6528,0.5547,0.5001,0.4915,0.5365,0.4497,0.4457,0.5413,0.4316,0.3555,0.319,0.2703,0.2369,0.2185,0.2359,0.2276,0.2015,0.2702,0.2716,0.2251,0.2963,0.3897,0.4909,0.5159,0.5052,0.4901,0.6319,0.6846,0.6936,0.7798,0.8143,0.8157,0.7595,0.7916,0.8255,0.6186,0.7044,0.8236,0.5615,0.6069,0.7023,0.5317,0.4635,0.4224,0.3516,0.335,0.3193,0.2608,0.0,0.2869,0.2953,0.0,0.2989,0.3044,0.0,0.0,0.3075,0.4343,0.5199,0.4732,0.5739,0.6275,0.5538,0.61,0.6146,0.5184,0.5558,0.639,0.7816,0.83,0.8222,0.7538,0.6907,0.6332,0.5883,0.669,0.4833,0.0122,0.5091,0.5096,0.0204,0.3958,0.0915,-0.8078,-0.8422,-1.2983,-2.0673,-2.0551,-2.0079,-1.9353,-1.9111,-1.9132,-1.9292,-1.9612,-2.0401,-2.1221,-2.0497,-2.0293,-2.039,0.5144,0.5005,0.5011,0.5804,0.5868,0.6103,0.7006,0.7478,0.7787,0.7879,0.8359,0.8736,0.8839,0.8665,0.8604,0.8751,0.8286,0.7549,0.6455,0.5849,0.5298,0.4789,0.4451,0.4313,0.4418,0.398,0.3536,0.3081,0.2701,0.2442,0.2321,0.2373,0.2639,0.3105,0.3648,0.3967,0.4076,0.4162,0.4279,0.4461,0.4648,0.4549,0.4499,0.6742,0.7697,0.7941,0.8443,0.8928,0.9268,0.9271,0.891,0.8537,0.856,0.8054,0.7338,0.6648,0.658,0.647,0.5238,0.5293,0.5382,0.4141,0.419,0.4228,0.295,0.2591,0.2587,0.2798,0.0,0.0,0.0,0.0,0.0,0.0,0.4251,0.4895,0.4059,0.5817,0.6727,0.5509,0.5384,0.0,0.5137,0.5897,0.6951,0.8215,0.7958,0.7766,0.7727,0.7267,0.6754,0.6231,0.7199,0.6705,0.4514,0.7016,0.6939,0.4202,0.5524,0.2612,-0.3926,-0.409,-0.7404,-1.3075,-1.5341,-1.6109,-1.5957,-1.8177,-1.779,-1.5815,-1.6008,-1.6587,-1.7256,-1.6781,-1.6876,-1.7515,0.4984,0.4964,0.512,0.6057,0.6082,0.6277,0.7236,0.7826,0.8191,0.8325,0.8471,0.8704,0.9031,0.912,0.9287,0.9555,0.9533,0.9076,0.8007,0.7074,0.6336,0.5872,0.4962,0.4571,0.4777,0.4154,0.3578,0.3112,0.2763,0.2587,0.2565,0.2457,0.2776,0.3467,0.4031,0.4763,0.5577,0.5123,0.5076,0.5305,0.5245,0.5374,0.577,0.7391,0.8326,0.8784,0.9086,0.9703,1.034,1.0286,0.9651,0.8987,0.9838,0.8733,0.7245,0.759,0.7315,0.6701,0.5637,0.5911,0.6089,0.4456,0.4465,0.4537,0.3169,0.2794,0.2806,0.3077,0.313,0.0,0.0,0.0,0.0,0.0,0.0,0.4518,0.3584,0.5254,0.6125,0.5014,0.4585,0.0,0.0,0.5939,0.7051,0.8308,0.7534,0.7459,0.8507,0.7895,0.7393,0.7039,0.7729,0.7915,0.7495,0.8088,0.7833,0.6742,0.6246,0.3541,-0.1065,-0.1281,-0.4203,-0.9303,-1.2201,-1.4046,-1.514,-1.6923,-1.6016,-1.3264,-1.1175,-1.0715,-1.1481,-1.3423,-1.5114,-1.6846,0.4832,0.4903,0.5099,0.5705,0.5704,0.5829,0.6448,0.6547,0.7016,0.8239,0.8089,0.856,1.0498,1.0681,1.1041,1.199,1.2106,1.1677,1.0654,0.892,0.8627,1.0218,0.6687,0.5738,0.7988,0.5442,0.3861,0.339,0.2857,0.2732,0.2965,0.2587,0.2279,0.2111,0.3366,0.4649,0.588,0.5609,0.6788,0.8776,0.7844,0.8258,0.9271,0.7949,0.8153,0.9211,0.9614,1.0438,1.1055,0.9857,0.9803,0.9958,0.8479,0.8651,0.9156,0.8038,0.832,0.8626,0.691,0.6321,0.5822,0.4137,0.3638,0.3366,0.2675,0.3063,0.3494,0.3238,0.4012,0.4623,0.4237,0.0,0.0,0.0,0.0,0.0,0.0,0.314,0.3191,0.3263,0.0,0.0,0.0,0.5309,0.6497,0.0,0.7439,0.7982,1.0196,0.908,0.8459,0.8604,0.8364,0.7979,0.7523,0.7536,0.7029,0.6033,0.5211,0.2631,-0.1488,-0.2013,-0.6293,-1.3345,-1.3699,-1.5941,-1.9015,-1.5308,-1.3741,-1.2915,-0.5181,-0.2511,-0.3894,-1.1424,-1.6762,-2.0225,0.5741,0.5724,0.5688,0.5904,0.5742,0.5948,0.6989,0.7626,0.8361,0.9523,0.9503,1.0034,1.1677,1.2177,1.2744,1.3757,1.3661,1.3097,1.1993,0.9883,0.8906,0.9483,0.6671,0.5701,0.6988,0.5489,0.4466,0.3994,0.351,0.3439,0.3776,0.2836,0.2642,0.3116,0.4304,0.5427,0.6434,0.6605,0.7515,0.8757,0.8356,0.857,0.9048,0.8806,0.8989,0.9413,1.0064,1.0643,1.1065,1.1169,1.0741,1.0206,1.0374,0.945,0.8421,0.9094,0.8928,0.8538,0.8402,0.858,0.8305,0.6098,0.5552,0.5072,0.3196,0.2951,0.3133,0.3134,0.3772,0.4309,0.4216,0.0,0.0,0.0,0.0,0.0,0.0,0.0,0.3104,0.0,0.0,0.0,0.0,0.0,0.0,0.0,0.7688,0.0,0.8772,0.8488,0.8097,0.7596,0.7893,0.8039,0.7972,0.7792,0.7231,0.6307,0.5728,0.4528,0.2809,0.2413,-0.0414,-0.5246,-0.814,-1.0161,-1.1464,-1.2924,-1.0467,-0.5504,-0.2792,-0.359,-0.6579,-0.9305,-1.1334,-1.3442,0.6284,0.6315,0.6273,0.6136,0.6126,0.6457,0.7389,0.8308,0.9336,1.0605,1.0631,1.1233,1.2959,1.3352,1.3841,1.4852,1.481,1.4094,1.2454,1.1079,1.0066,0.955,0.7733,0.7088,0.7846,0.6522,0.5613,0.5191,0.4448,0.424,0.4495,0.3289,0.308,0.3769,0.4328,0.5438,0.6892,0.7172,0.8312,0.9891,0.9592,0.9557,0.9682,0.9875,0.9687,0.9457,1.0394,1.0947,1.1418,1.1968,1.1601,1.1049,1.1674,1.0595,0.933,1.0374,1.013,0.954,0.9785,1.0,0.9713,0.7686,0.7022,0.6279,0.4105,0.3849,0.4061,0.3998,0.446,0.5156,0.6031,0.0,0.0,0.0,0.0,0.0,0.0,0.3306,0.0,0.0,0.0,0.0,0.0,0.0,0.0,0.0,0.0,0.0,0.0,0.8325,0.7841,0.7098,0.7377,0.7453,0.7287,0.6945,0.6603,0.6132,0.5685,0.5351,0.5183,0.5043,0.2074,-0.3103,-0.5808,-0.7806,-0.926,-1.082,-0.7574,-0.1484,-0.0195,-0.1261,-0.3901,-0.6999,-1.0104,-1.3542,0.6476,0.6633,0.6795,0.6414,0.6741,0.7199,0.7571,0.8552,0.9798,1.1426,1.1466,1.2155,1.433,1.4215,1.4389,1.5424,1.5601,1.4669,1.2415,1.2552,1.2068,1.0709,0.979,0.9718,1.0493,0.843,0.7174,0.6817,0.5606,0.5035,0.5067,0.387,0.3544,0.3958,0.3523,0.4785,0.7221,0.7306,0.9178,1.2026,1.1519,1.1301,1.1225,1.1006,1.0222,0.94,1.0549,1.1469,1.2126,1.2206,1.2363,1.2471,1.2314,1.1968,1.1719,1.1728,1.1728,1.1567,1.1061,1.062,0.9999,0.8819,0.7964,0.698,0.5402,0.5684,0.6161,0.5825,0.6138,0.714,0.9264,0.7391,0.0,0.0,0.0,0.0,0.0,0.0,0.0,0.0,0.0,0.0,0.0,0.0,0.0,0.0,0.0,0.0,0.0,0.8578,0.7724,0.7224,0.6888,0.638,0.5685,0.5265,0.5216,0.5513,0.5082,0.5087,0.5572,0.5631,0.121,-0.6536,-0.6473,-0.8623,-1.1904,-0.8778,-0.499,-0.0812,0.2623,0.4204,0.3583,-0.4691,-1.2873,-1.986,0.6964,0.694,0.6953,0.6837,0.6643,0.6884,0.8031,0.9024,1.0249,1.1965,1.2793,1.3855,1.549,1.5584,1.5881,1.6743,1.6504,1.5875,1.4892,1.3506,1.2764,1.2945,1.0853,1.0067,1.094,0.8849,0.755,0.7189,0.5707,0.5002,0.4997,0.3946,0.3516,0.3639,0.3812,0.5193,0.7368,0.7678,0.9252,1.1528,1.1778,1.1429,1.0833,1.1309,1.0853,1.0111,1.1385,1.1968,1.2175,1.2735,1.2929,1.2832,1.2618,1.2323,1.2116,1.2274,1.2026,1.1796,1.2318,1.1865,1.1102,1.0314,0.9369,0.8356,0.7238,0.7158,0.7403,0.7686,0.8356,0.8696,0.8071,0.7531,0.0,0.0,0.0,0.0,0.0,0.0,0.0,0.0,0.0,0.0,0.0,0.0,0.0,0.0,0.0,0.0,0.0,0.0,0.7579,0.744,0.6803,0.6641,0.6937,0.6355,0.6013,0.6002,0.5916,0.599,0.6313,0.6428,0.3621,-0.1398,-0.1546,-0.261,-0.4166,-0.3586,-0.102,0.2671,0.3948,0.3251,0.0881,-0.5019,-1.0714,-1.5973,0.7397,0.7864,0.8299,0.8289,0.8645,0.9019,0.9314,0.9918,1.092,1.2595,1.3768,1.4851,1.5822,1.6512,1.706,1.7512,1.7126,1.633,1.518,1.4623,1.3986,1.3223,1.232,1.184,1.1802,1.052,0.9266,0.8089,0.69,0.5903,0.5105,0.4041,0.3547,0.3568,0.3965,0.512,0.6879,0.8461,0.9807,1.096,1.1768,1.1704,0.0,1.1755,1.1686,1.1481,1.2503,1.2638,1.2442,1.3208,1.3351,1.3266,1.32,1.2813,1.2461,1.2657,1.2501,1.2393,1.3074,1.2783,1.2223,1.1934,1.1053,1.0011,0.9086,0.8793,0.8921,0.9541,0.9782,1.0048,1.0607,0.8969,0.6698,0.0,0.0,0.0,0.0,0.0,0.0,0.0,0.0,0.0,0.0,0.0,0.0,0.0,0.0,0.0,0.0,0.0,0.7671,0.7788,0.7022,0.674,0.7126,0.6319,0.6196,0.6755,0.6677,0.6881,0.7321,0.7563,0.522,0.0968,0.1055,0.0532,-0.043,-0.0993,0.1192,0.4966,0.5545,0.4769,0.2807,-0.1711,-0.7551,-1.3665,0.7752,0.9042,1.0044,0.9818,1.1215,1.2089,1.1209,1.1402,1.2166,1.3564,1.4846,1.5765,1.6072,1.726,1.8007,1.8061,1.77,1.6696,1.4751,1.5888,1.5502,1.2964,1.4021,1.414,1.3047,1.2648,1.1394,0.9154,0.8301,0.6914,0.5055,0.4052,0.3572,0.3529,0.4026,0.5069,0.6657,0.9398,1.0606,1.0687,1.1702,1.2076,1.2067,1.2314,1.2647,1.3054,1.3721,1.3474,1.2948,1.3721,1.3836,1.3763,1.381,1.3392,1.291,1.3025,1.3064,1.316,1.3563,1.3362,1.3112,1.3362,1.2696,1.1787,1.0989,1.0692,1.0813,1.1499,1.1111,1.1511,1.4235,1.0751,0.6626,0.4218,0.0,0.0,0.0,0.0,0.0,0.0,0.0,0.0,0.0,0.0,0.0,0.0,0.0,0.0,0.0,0.0,0.836,0.8487,0.7577,0.7069,0.6963,0.6162,0.633,0.7447,0.7418,0.7724,0.8259,0.8699,0.6612,0.258,0.2922,0.2468,0.1452,0.0751,0.2774,0.6386,0.7099,0.7349,0.6834,0.3373,-0.3635,-1.1663,0.798,0.9522,1.0394,0.933,1.1189,1.2984,1.3507,1.4509,1.5392,1.597,1.7213,1.81,1.8142,1.8401,1.8632,1.8762,1.8721,1.8178,1.6934,1.7076,1.6632,1.5256,1.5463,1.5346,1.4779,1.3467,1.1719,0.9443,0.8021,0.6158,0.3895,0.3694,0.3386,0.3064,0.4022,0.6134,0.9046,1.007,1.1202,1.2273,1.2141,1.2353,1.2822,1.288,1.3256,1.3873,1.4479,1.4387,1.4107,1.4674,1.4651,1.4384,1.4186,1.4035,1.3894,1.3563,1.3494,1.3579,1.3826,1.3732,1.3484,1.3563,1.36,1.3507,1.3114,1.3186,1.3436,1.3838,1.4004,1.3822,1.3106,0.0,0.0,0.6824,0.0,0.0,0.0,0.0,0.0,0.0,0.0,0.0,0.0,0.0,0.0,0.0,0.0,0.0,0.0,0.0,1.0929,0.0,0.9172,0.8443,0.0,0.0,0.7734,0.7166,0.8087,0.8504,0.848,0.9248,0.8867,0.7562,0.7733,0.6814,0.5199,0.541,0.6073,0.6974,0.7507,0.8123,0.8544,0.6847,0.1032,-0.6781,1.0212,1.1288,1.2038,1.2008,1.3753,1.54,1.6103,1.7517,1.805,1.6852,1.7686,1.8312,1.8154,1.8804,1.9214,1.904,1.8987,1.8507,1.7418,1.7599,1.7266,1.6208,1.6134,1.5857,1.5226,1.4419,1.2657,0.9884,0.8606,0.6617,0.4006,0.3518,0.316,0.3034,0.4836,0.6651,0.847,1.0354,1.1374,1.1788,1.2388,1.288,1.3208,1.3351,1.3815,1.4433,1.4858,1.5051,1.5096,1.5244,1.5108,1.4846,1.4697,1.4536,1.434,1.4107,1.405,1.4086,1.4236,1.419,1.4086,1.4154,1.4061,1.4071,1.4212,1.4201,1.4376,1.5028,1.5175,1.4681,1.3083,1.0952,0.0,0.0,0.0,0.0,0.0,0.0,0.0,0.0,0.0,0.0,0.0,0.0,0.0,0.0,0.0,0.0,0.0,0.0,1.1371,0.0,0.0,0.0,0.9724,0.0,0.9104,0.8387,0.8941,0.9323,0.9491,0.9962,1.0244,1.0348,1.0118,0.9449,0.847,0.8558,0.8423,0.8278,0.9334,1.0002,1.0348,0.9449,0.5133,-0.123,1.2651,1.3337,1.4074,1.4802,1.6393,1.7682,1.8048,1.9598,1.9956,1.79,1.8214,1.8533,1.8267,1.9315,1.9811,1.9408,1.9356,1.8934,1.7909,1.8213,1.8016,1.6946,1.6935,1.6534,1.5743,1.5491,1.3835,1.0777,0.9474,0.741,0.4676,0.373,0.3495,0.3976,0.5949,0.7376,0.8417,1.0772,1.1624,1.1555,1.2702,1.3362,1.36,1.3862,1.4329,1.4892,1.5142,1.5513,1.5869,1.5724,1.5457,1.5198,1.5289,1.5073,1.4778,1.4744,1.4778,1.4869,1.4789,1.4789,1.4789,1.4846,1.4617,1.4525,1.5073,1.4915,1.4915,1.5812,1.5812,1.5253,1.4001,1.2391,0.0,0.0,0.0,0.0,0.0,0.0,0.0,0.0,0.0,0.0,0.0,0.0,0.0,0.0,0.0,0.0,0.0,0.0,0.0,0.0,0.0,1.102,1.0603,0.0,1.0553,0.9856,1.0164,1.0434,1.072,1.0962,1.137,1.1854,1.1538,1.1211,1.0899,1.0419,1.005,0.9839,1.1068,1.1687,1.1796,1.1137,0.8084,0.3315,1.3975,1.5178,1.6014,1.5542,1.7248,1.8597,1.8166,1.9598,2.0597,2.0377,2.0414,2.0463,2.0401,2.0557,2.0599,2.0549,2.0549,2.0283,1.9592,1.9592,1.9242,1.8347,1.8293,1.8066,1.7456,1.6636,1.504,1.2652,1.0352,0.8027,0.5646,0.4646,0.5122,0.6815,0.7102,0.8926,1.1741,1.1657,1.2328,1.3492,1.3263,1.3552,1.4165,1.4376,1.4846,1.5468,1.5647,1.5944,1.6225,1.6225,1.5888,1.5513,1.5812,1.5901,1.5812,1.5501,1.5744,1.6051,1.5768,1.5691,1.5647,1.5468,1.5513,1.5736,1.6095,1.602,1.602,1.6582,1.6509,1.6244,1.6058,1.578,1.4755,0.0,0.0,0.0,0.0,0.0,1.1516,0.0,0.0,0.0,0.0,0.0,0.0,0.0,0.0,0.0,0.0,0.0,0.0,1.099,1.0721,1.0081,0.9017,1.1683,1.2189,1.0625,1.1957,1.2295,1.1799,1.2503,1.2596,1.2177,1.2506,1.2236,1.1564,1.0793,1.084,1.1502,1.1673,1.2034,1.2319,1.1478,0.8744,0.5089,1.6753,1.6866,1.7163,1.7613,1.8067,1.8702,1.9512,2.0267,2.0699,2.0699,2.0699,2.0699,2.0699,2.0699,2.0549,2.0182,2.0485,2.0283,1.9396,1.9695,1.9631,1.8963,1.9004,1.8738,1.8038,1.7157,1.5572,1.339,1.0716,0.8475,0.6693,0.6166,0.6989,0.8993,0.9861,1.1013,1.2362,1.3297,1.3916,1.4247,1.4305,1.449,1.4777,1.4994,1.54,1.5824,1.6032,1.6337,1.668,1.6879,1.668,1.6349,1.6479,1.6522,1.6522,1.6392,1.6479,1.665,1.665,1.665,1.6637,1.6685,1.6655,1.6723,1.7047,1.6951,1.6909,1.7325,1.7102,1.6863,1.6863,1.5711,1.4889,1.5299,0.0,0.0,0.0,0.0,0.0,0.0,0.0,0.0,0.0,0.0,0.0,0.0,0.0,0.0,0.0,0.0,0.0,0.9275,0.0,1.2991,1.0926,1.3446,1.4037,1.2701,1.336,1.3576,1.3421,1.3817,1.3902,1.3709,1.4028,1.35,1.2442,1.2592,1.2427,1.211,1.2517,1.2944,1.3229,1.2782,1.2076,1.1098,1.9306,1.8803,1.8652,1.9658,1.9283,1.9264,2.0515,2.0699,2.0699,2.0699,2.0699,2.0699,2.0699,2.0699,2.0549,2.0118,2.0435,2.0347,1.9565,1.9965,2.0003,1.9592,1.9643,1.9411,1.8768,1.7859,1.6582,1.4981,1.2129,1.0134,0.8955,0.8274,0.902,1.1014,1.2001,1.2808,1.3424,1.4681,1.5085,1.4835,1.513,1.5244,1.5289,1.5546,1.5869,1.6175,1.6411,1.6723,1.7073,1.7393,1.7406,1.7253,1.7086,1.7073,1.7115,1.696,1.696,1.7086,1.7115,1.7157,1.7227,1.7366,1.7338,1.738,1.7787,1.7652,1.7489,1.7747,1.7557,1.7393,1.7393,1.6182,1.5564,1.667,0.0,1.4703,0.0,1.543,0.0,0.0,1.5814,1.4968,1.3988,0.0,0.0,0.0,0.0,0.0,0.0,0.0,0.0,0.0,0.0,0.0,1.2606,1.495,1.5677,1.4743,1.4933,1.5036,1.5094,1.5037,1.5124,1.5329,1.5301,1.4736,1.3835,1.4227,1.3842,1.3063,1.3326,1.36,1.3826,1.3984,1.4542,1.5164,2.1264,2.1028,2.0806,2.1394,2.1015,2.0686,2.0699,2.0699,2.0699,2.0699,2.0699,2.0699,2.0699,2.0699,2.0699,2.0712,2.0699,2.0699,2.0662,2.0712,2.0599,2.0372,2.0372,2.022,1.9798,1.8944,1.8309,1.793,1.504,1.339,1.2899,1.1018,1.1152,1.2977,1.3065,1.3999,1.5555,1.5579,1.5591,1.5591,1.5591,1.5591,1.5635,1.5901,1.6207,1.6522,1.6791,1.7115,1.7434,1.7639,1.7895,1.8069,1.757,1.7516,1.7598,1.7086,1.7115,1.7323,1.7002,1.7044,1.7199,1.7199,1.7338,1.7639,1.8173,1.7988,1.772,1.7787,1.7787,1.7787,1.7787,1.8159,1.7655,1.522,1.6182,1.6507,1.4338,1.3472,0.0,1.6677,1.3199,1.2621,1.7803,0.0,0.0,0.0,0.0,0.0,0.0,0.0,0.0,1.3776,1.3641,0.0,1.3286,1.5875,1.6955,1.646,1.6824,1.6865,1.6658,1.6265,1.6349,1.6747,1.6076,1.5857,1.5918,1.5335,1.4955,1.4686,1.398,1.3765,1.3989,1.4714,1.5267,1.5663,2.2659,2.2531,2.2217,2.1616,2.1355,2.1106,2.0764,2.0699,2.0699,2.0699,2.0699,2.0699,2.0699,2.0699,2.0699,2.0699,2.0699,2.0699,2.0699,2.0775,2.0825,2.0785,2.0885,2.0709,2.0232,1.9643,1.9006,1.8385,1.5961,1.4502,1.3882,1.289,1.3309,1.491,1.5181,1.5575,1.6107,1.638,1.6479,1.6479,1.6479,1.6479,1.6479,1.6565,1.682,1.7102,1.7199,1.7447,1.7788,1.7989,1.8189,1.8361,1.8189,1.8175,1.8228,1.8029,1.8069,1.8135,1.8201,1.8226,1.8305,1.8461,1.8461,1.8461,1.8784,1.8745,1.8592,1.8344,1.8266,1.8266,1.8266,1.8383,1.8361,1.8013,1.7573,1.7089,1.6517,1.5529,1.5251,1.638,1.5543,1.5692,0.0,1.8626,0.0,0.0,0.0,0.0,0.0,0.0,0.0,0.0,1.5592,0.0,1.4742,1.67,1.7791,1.8,1.8028,1.7962,1.7838,1.7432,1.7372,1.7524,1.7188,1.7107,1.7183,1.6525,1.5972,1.547,1.4539,1.4288,1.4447,1.4355,1.5185,1.6275,2.3629,2.3437,2.3057,2.2283,2.1982,2.1734,2.1406,2.1341,2.1275,2.1002,2.0976,2.0948,2.0725,2.0699,2.0699,2.0699,2.0699,2.0699,2.0699,2.0961,2.1158,2.1277,2.1375,2.1313,2.1077,2.0439,1.9915,1.9433,1.7463,1.6093,1.529,1.4943,1.5299,1.6219,1.6423,1.6582,1.6752,1.6976,1.7073,1.7073,1.7073,1.7073,1.7073,1.7073,1.7323,1.7693,1.7693,1.7868,1.8163,1.8347,1.8503,1.862,1.8697,1.8736,1.8697,1.8556,1.8517,1.8517,1.8644,1.876,1.8822,1.904,1.9026,1.9026,1.9176,1.9176,1.9101,1.886,1.8745,1.8745,1.8784,1.8784,1.8936,1.9413,1.8392,1.7599,1.7617,1.6683,1.5981,1.6024,0.0,0.0,0.0,1.8104,1.7702,0.0,0.0,0.0,0.0,0.0,1.6165,1.5587,1.7021,1.737,1.646,1.764,1.8438,1.886,1.8735,1.8662,1.8607,1.8298,1.8177,1.822,1.8083,1.8063,1.8052,1.7389,1.6833,1.6289,1.5068,1.467,1.4816,1.471,1.5484,1.6488,2.4171,2.3853,2.3458,2.3223,2.2805,2.2439,2.2428,2.2415,2.2232,2.1642,2.1577,2.1355,2.083,2.0764,2.0751,2.0699,2.0712,2.0712,2.0749,2.118,2.1568,2.1841,2.1841,2.1983,2.2217,2.1348,2.0858,2.0795,1.9305,1.8048,1.7085,1.7008,1.6982,1.6982,1.6982,1.7167,1.7393,1.7434,1.7434,1.7434,1.7434,1.7434,1.7447,1.7447,1.7774,1.8242,1.8228,1.8361,1.8542,1.8745,1.886,1.8898,1.9064,1.9139,1.9064,1.8697,1.8556,1.8556,1.8581,1.8721,1.8874,1.9055,1.9191,1.9362,1.9376,1.9339,1.9302,1.9302,1.9213,1.9139,1.9302,1.9339,1.9413,1.9611,1.8718,1.7956,1.7779,1.6965,1.6191,1.574,0.0,0.0,1.7191,1.7718,1.8237,0.0,0.0,0.0,0.0,0.0,1.4736,1.7983,1.7932,1.798,1.8261,1.8643,1.8912,1.9115,1.9049,1.9016,1.903,1.8824,1.8771,1.8824,1.8771,1.8717,1.8608,1.7984,1.7628,1.7294,1.5741,1.5141,1.5245,1.5679,1.6063,1.642,2.4778,2.4341,2.3817,2.3302,2.3106,2.2871,2.2481,2.2415,2.2322,2.2217,2.2178,2.1943,2.1368,2.1302,2.1132,2.0738,2.0775,2.101,2.1375,2.1616,2.1935,2.2466,2.248,2.2572,2.2709,2.2156,2.1541,2.0795,1.9541,1.893,1.8793,1.7933,1.7522,1.7522,1.7822,1.7758,1.7406,1.7666,1.7788,1.7788,1.7788,1.7868,1.7989,1.7989,1.8189,1.8478,1.8655,1.8755,1.8831,1.902,1.9258,1.9457,1.942,1.9581,1.9741,1.9347,1.9139,1.9064,1.9523,1.9325,1.9161,1.9767,1.9823,1.9717,1.9435,1.9376,1.9376,1.9376,1.9339,1.9339,1.9376,1.9588,1.9823,1.9975,1.8921,1.8161,1.8422,1.714,1.6301,1.6617,1.6773,1.7027,1.7532,1.7933,1.8263,0.0,0.0,1.7173,1.8699,1.6337,1.612,1.8753,1.851,1.851,1.8896,1.8984,1.9135,1.9326,1.92,1.9243,1.9364,1.9123,1.9104,1.9254,1.9185,1.9206,1.9271,1.9166,1.8984,1.8665,1.7712,1.73,1.714,1.655,1.6514,1.6725,2.5061,2.4778,2.4385,2.3738,2.3629,2.3524,2.321,2.3158,2.308,2.2818,2.2766,2.2544,2.1982,2.1904,2.1668,2.1093,2.0983,2.0987,2.1242,2.1793,2.2282,2.2694,2.292,2.3098,2.3201,2.254,2.1702,2.0655,2.0027,1.9655,1.9509,1.8922,1.8486,1.8209,1.8422,1.8187,1.7666,1.7828,1.7882,1.7922,1.8003,1.8189,1.8372,1.8475,1.8745,1.9064,1.9132,1.9281,1.9406,1.9406,1.9603,1.9797,1.966,1.9782,1.999,1.9904,1.969,1.9581,1.9919,1.9777,1.9654,2.0154,2.0311,2.0277,2.0065,1.9869,1.9762,1.9925,1.9767,1.9696,1.9925,2.0104,2.0261,2.041,1.9374,1.8588,1.8708,1.7464,1.6617,1.6825,1.685,1.7027,1.7432,1.7793,1.8156,1.8469,1.7692,0.0,1.886,1.7754,1.7661,1.8878,1.8753,1.8789,1.9102,1.9219,1.9375,1.9546,1.9471,1.9518,1.9681,1.955,1.9511,1.9479,1.9526,1.9495,1.946,1.9526,1.9489,1.9298,1.848,1.8185,1.8135,1.7523,1.7177,1.704,2.5272,2.5147,2.4921,2.4229,2.4112,2.4112,2.4112,2.4112,2.3942,2.342,2.3354,2.3145,2.2596,2.2505,2.2256,2.1694,2.1336,2.1116,2.1122,2.2016,2.2649,2.2889,2.3319,2.358,2.3653,2.2754,2.1732,2.063,2.0522,2.0292,1.9958,1.9863,1.9581,1.915,1.9068,1.8699,1.8126,1.803,1.7989,1.8003,1.8189,1.845,1.8769,1.8945,1.9332,1.9726,1.9639,1.9797,2.0041,1.9833,1.9904,2.0061,1.9925,1.996,2.0146,2.0304,2.0235,2.0131,2.0111,2.0146,2.02,2.0308,2.0579,2.0794,2.0728,2.0426,2.0204,2.0512,2.0261,2.0124,2.0514,2.0663,2.0603,2.0257,1.9693,1.9086,1.847,1.7839,1.7376,1.7197,1.7239,1.7367,1.7609,1.782,1.816,1.859,1.8842,1.9052,1.9235,1.9137,1.8984,1.8789,1.8842,1.8946,1.9162,1.9402,1.9592,1.9695,1.9695,1.9786,1.9934,1.9982,1.989,1.9693,1.9786,1.9701,1.9504,1.955,1.9609,1.9588,1.8787,1.8615,1.8789,1.8546,1.806,1.7466,2.5797,2.5314,2.4835,2.4229,2.4112,2.4112,2.4112,2.4112,2.4086,2.3995,2.3968,2.3746,2.3158,2.3093,2.2871,2.2322,2.228,2.2199,2.2091,2.2466,2.3024,2.3754,2.4051,2.4094,2.394,2.3068,2.2161,2.1287,2.0738,2.0698,2.1138,2.059,2.058,2.0873,2.0312,1.9768,1.9206,1.8661,1.8397,1.8397,1.8514,1.886,1.9384,1.953,1.9726,1.9955,2.0115,2.02,2.0235,2.008,2.022,2.0392,2.0254,2.0407,2.0592,2.0626,2.0644,2.0662,2.0626,2.0744,2.0794,2.0273,2.0494,2.0728,2.0441,2.0339,2.027,2.0339,2.0392,2.0444,2.0512,2.0893,2.0378,1.7893,1.9021,1.9411,1.7146,1.8094,1.9141,1.9375,1.9401,1.9443,1.9469,1.9082,1.891,1.9165,1.8977,1.8878,1.9053,1.9235,1.9295,1.9212,1.9157,1.9265,1.9527,1.9564,1.963,1.9695,1.9707,1.9836,2.0067,2.0022,2.0041,2.0107,2.0011,1.995,1.9899,1.9928,1.995,1.9991,1.9798,1.9749,1.9779,1.9747,1.9197,1.8364,2.6,2.5577,2.5147,2.4287,2.4112,2.4112,2.4112,2.4112,2.4112,2.4112,2.4112,2.4124,2.4163,2.4193,2.3966,2.3378,2.3311,2.3204,2.2738,2.2649,2.2889,2.3581,2.3681,2.3551,2.3201,2.2889,2.2249,2.1277,2.1104,2.1295,2.1841,2.1564,2.1521,2.1685,2.1341,2.0724,1.9778,1.9239,1.8967,1.8822,1.8769,1.9155,1.9737,1.998,2.0204,2.0426,2.0392,2.0441,2.0475,2.027,2.0323,2.0494,2.0426,2.0543,2.0693,2.061,2.0677,2.0744,2.0744,2.0925,2.1038,2.0728,2.086,2.1023,2.086,2.0695,2.0628,2.0794,2.0811,2.0828,2.1055,2.134,2.1114,1.9755,2.0106,2.0152,1.8934,1.9249,1.9674,1.9839,1.9916,1.9942,1.9942,1.9566,1.9351,1.9443,1.9181,1.9034,1.9102,1.9264,1.9368,1.9405,1.938,1.9413,1.9536,1.9623,1.9707,1.9823,1.9885,2.0012,2.02,2.0172,2.0159,2.0134,2.0115,2.005,1.9939,1.995,2.0022,2.0131,2.005,2.0087,2.0212,2.0126,1.958,1.8801,2.6054,2.5783,2.5467,2.4274,2.4112,2.4112,2.4112,2.4112,2.4171,2.4287,2.4287,2.4505,2.4948,2.5005,2.4759,2.4161,2.4109,2.3879,2.3325,2.2887,2.2837,2.3212,2.3186,2.286,2.2328,2.2558,2.2203,2.118,2.1471,2.1793,2.2184,2.231,2.2374,2.238,2.2219,2.1618,2.068,2.02,1.9893,1.9675,1.9485,1.9745,2.0319,2.0423,2.0613,2.0794,2.0595,2.061,2.0644,2.0441,2.0392,2.0527,2.0527,2.061,2.0693,2.0577,2.061,2.0711,2.0728,2.0827,2.0958,2.0958,2.1055,2.1167,2.1167,2.0958,2.086,2.1119,2.1135,2.115,2.1481,2.1678,2.1566,2.0903,2.0898,2.0732,2.0052,2.016,2.0307,2.0307,2.0482,2.0611,2.0611,2.0322,2.0086,1.997,1.9596,1.9319,1.9184,1.923,1.9316,1.9458,1.9527,1.9578,1.9578,1.9662,1.9769,1.9896,1.9991,2.0134,2.0304,2.0288,2.0234,2.0142,2.02,2.015,1.9982,1.9991,2.0078,2.0212,2.0114,2.0192,2.038,2.0288,1.985,1.9295,2.6054,2.5783,2.5467,2.4274,2.4112,2.4112,2.4112,2.4112,2.4287,2.4835,2.4948,2.4948,2.5005,2.5005,2.4765,2.4163,2.4032,2.4001,2.396,2.3351,2.305,2.2999,2.2965,2.2572,2.1888,2.2282,2.2095,2.118,2.1841,2.2184,2.2231,2.2618,2.3084,2.3447,2.285,2.2521,2.2484,2.1829,2.1545,2.1479,2.1016,2.1121,2.1412,2.0946,2.0794,2.0794,2.0711,2.0693,2.0693,2.0527,2.0494,2.0527,2.0644,2.0693,2.0693,2.0693,2.0693,2.0677,2.0561,2.0527,2.0561,2.0561,2.0644,2.0744,2.0744,2.0777,2.0794,2.0827,2.1087,2.1277,2.1325,2.1587,2.092,1.8261,2.0073,2.0866,1.8193,2.0147,2.1831,2.1831,2.2184,2.2399,2.2399,2.2004,2.1507,2.1025,2.0342,1.9687,1.9135,1.9115,1.9193,1.9409,1.965,1.9786,1.9786,1.9726,1.9762,1.9907,1.9918,2.005,2.0304,2.0295,2.0296,2.0289,2.0289,2.0289,2.0276,2.0262,2.0273,2.0284,2.0288,2.0296,2.0314,2.0376,2.0357,2.0175,2.6797,2.6254,2.5659,2.4921,2.4708,2.4505,2.4171,2.4708,2.509,2.5005,2.5258,2.5646,2.6028,2.6028,2.5811,2.5203,2.5136,2.4791,2.4103,2.349,2.3044,2.2719,2.2574,2.242,2.2249,2.2203,2.2156,2.2156,2.217,2.2495,2.3068,2.3246,2.3595,2.4021,2.3777,2.3427,2.3031,2.2531,2.2224,2.2026,2.166,2.1528,2.1572,2.1431,2.1122,2.0794,2.0711,2.0644,2.0577,2.0527,2.046,2.0475,2.066,2.0693,2.0693,2.0693,2.0644,2.0561,2.0527,2.0595,2.0662,2.0644,2.0677,2.0744,2.0726,2.0744,2.0794,2.0794,2.099,2.1183,2.1277,2.1511,2.1332,2.034,2.1097,2.1458,2.0362,2.1199,2.194,2.194,2.2113,2.2298,2.247,2.2089,2.1803,2.1742,2.1308,2.0951,2.0727,2.0825,2.0507,1.966,2.0182,2.0214,1.9681,1.9858,1.9918,1.9896,2.006,2.0208,2.03,2.0294,2.0275,2.0246,2.0282,2.0287,2.0242,2.0273,2.0325,2.0365,2.0352,2.04,2.0434,2.0448,2.0464,2.0402,2.7536,2.6823,2.6159,2.5618,2.5227,2.4835,2.4447,2.5203,2.5742,2.555,2.5851,2.6229,2.6669,2.6683,2.6457,2.5837,2.5783,2.5467,2.465,2.3914,2.3085,2.2295,2.2289,2.2282,2.2282,2.2388,2.2526,2.2694,2.2663,2.2979,2.3595,2.3739,2.3994,2.4302,2.4302,2.4056,2.3609,2.331,2.3092,2.2902,2.2461,2.214,2.1848,2.1702,2.129,2.0761,2.0726,2.0644,2.0595,2.0595,2.0543,2.0525,2.0677,2.0711,2.0711,2.0711,2.0677,2.0595,2.0595,2.0695,2.0761,2.0677,2.0711,2.0744,2.0726,2.0744,2.0794,2.0794,2.0958,2.1135,2.1214,2.1388,2.1542,2.1617,2.1708,2.1738,2.1738,2.1811,2.1869,2.1869,2.1998,2.2226,2.249,2.2372,2.2283,2.2295,2.215,2.1969,2.1763,2.1927,2.1566,2.0543,2.0821,2.0682,2.0057,2.0013,1.999,1.9958,2.0155,2.026,2.0292,2.0306,2.0275,2.0238,2.0275,2.026,2.0235,2.0292,2.0325,2.0371,2.0399,2.0433,2.0461,2.0494,2.0509,2.049,2.824,2.7527,2.6919,2.6295,2.5543,2.5005,2.5005,2.5481,2.6014,2.6616,2.6683,2.6736,2.6736,2.6736,2.6457,2.5837,2.5783,2.5783,2.5783,2.4699,2.334,2.1797,2.2083,2.2142,2.1793,2.283,2.3187,2.2694,2.3334,2.3595,2.3595,2.4078,2.4302,2.4302,2.4302,2.4302,2.4302,2.4302,2.4302,2.4241,2.3628,2.301,2.2329,2.1817,2.1217,2.0693,2.0693,2.0744,2.0794,2.0794,2.0777,2.0726,2.0761,2.0794,2.0794,2.0794,2.0794,2.0794,2.0794,2.0794,2.0761,2.0561,2.061,2.0693,2.0693,2.0744,2.0794,2.0794,2.0958,2.1103,2.1103,2.1214,2.1309,2.1309,2.1481,2.1589,2.1589,2.1724,2.1797,2.1781,2.2096,2.2422,2.2772,2.3093,2.3151,2.2723,2.2829,2.2629,2.1953,2.2043,2.2107,2.2088,2.1519,2.1147,2.1003,2.02,1.9888,2.0108,2.0089,2.0173,2.0292,2.0308,2.0302,2.0302,2.0302,2.0302,2.0296,2.0304,2.0312,2.0308,2.0374,2.04,2.0409,2.0483,2.0506,2.0503,2.7683,2.6992,2.6342,2.563,2.5522,2.5425,2.5061,2.6176,2.6982,2.6721,2.7049,2.7306,2.7306,2.7306,2.71,2.6496,2.6457,2.6229,2.5837,2.5093,2.4325,2.3506,2.28,2.2649,2.3054,2.3054,2.329,2.3809,2.3681,2.3782,2.4094,2.4219,2.4302,2.4302,2.4302,2.4302,2.4302,2.4302,2.4302,2.4287,2.4112,2.3381,2.239,2.2226,2.147,2.0595,2.0844,2.0893,2.0877,2.0926,2.1087,2.1245,2.1103,2.0925,2.0711,2.0711,2.0761,2.0794,2.0794,2.0794,2.0761,2.0677,2.0711,2.0777,2.0726,2.0744,2.0794,2.0794,2.086,2.0958,2.1183,2.1277,2.1371,2.1617,2.1708,2.1738,2.1738,2.1768,2.1899,2.2108,2.2248,2.252,2.3025,2.3206,2.332,2.3397,2.3708,2.3583,2.2922,2.3596,2.3197,2.1448,2.2464,2.2429,2.1218,2.0458,2.0059,2.0029,2.0171,2.0265,2.0296,2.0299,2.0306,2.0306,2.025,2.0227,2.0227,2.0238,2.025,2.0308,2.0363,2.043,2.0465,2.0497,2.0494,2.0492,2.7836,2.7042,2.6242,2.577,2.5786,2.5797,2.537,2.6602,2.7473,2.71,2.7357,2.7625,2.7675,2.7625,2.7524,2.7269,2.7203,2.7049,2.6602,2.606,2.5589,2.5261,2.4057,2.3466,2.3508,2.3436,2.3696,2.4302,2.4036,2.4036,2.4302,2.4302,2.4302,2.4302,2.4302,2.4302,2.4302,2.4302,2.4302,2.4302,2.4302,2.3526,2.2346,2.2346,2.1585,2.0494,2.0828,2.0942,2.0991,2.1134,2.1276,2.1355,2.1182,2.0942,2.0744,2.0726,2.0744,2.0794,2.0794,2.0794,2.0794,2.0744,2.0777,2.0794,2.0744,2.0777,2.0794,2.0794,2.0925,2.1103,2.1309,2.1479,2.1631,2.184,2.1911,2.1969,2.201,2.2096,2.222,2.2476,2.2485,2.2686,2.3194,2.3294,2.3477,2.3915,2.4114,2.4136,2.3902,2.4125,2.3747,2.264,2.3044,2.297,2.2304,2.156,2.0986,2.0594,2.0746,2.0634,2.0306,2.0332,2.0332,2.0332,2.0273,2.0246,2.0281,2.0254,2.0272,2.0341,2.0374,2.0415,2.0461,2.048,2.0496,2.05,2.8409,2.7456,2.6537,2.6367,2.6189,2.6068,2.5837,2.6864,2.7625,2.7625,2.7625,2.7675,2.779,2.7725,2.774,2.7955,2.7955,2.7905,2.779,2.7218,2.6856,2.6796,2.5604,2.4507,2.3554,2.3955,2.425,2.4317,2.4317,2.4302,2.4302,2.4302,2.4302,2.4302,2.4302,2.4302,2.4302,2.4302,2.4302,2.4302,2.4302,2.3533,2.2378,2.2317,2.1522,2.0534,2.0827,2.0975,2.1086,2.1446,2.1417,2.1199,2.1071,2.0958,2.0827,2.0726,2.0744,2.0794,2.0827,2.0827,2.0794,2.0827,2.0827,2.0827,2.0794,2.0827,2.086,2.086,2.1166,2.1448,2.1462,2.1764,2.201,2.2056,2.2153,2.2275,2.2395,2.2538,2.2669,2.2822,2.2848,2.2972,2.3323,2.3369,2.3613,2.4229,2.419,2.4321,2.4749,2.3979,2.3911,2.4769,2.3448,2.3077,2.3812,2.3237,2.2468,2.1509,2.1567,2.1146,2.0315,2.036,2.0405,2.0405,2.0332,2.0339,2.0399,2.0339,2.0334,2.0404,2.0405,2.0409,2.0413,2.0488,2.0508,2.05,2.7748,2.7079,2.6397,2.5733,2.5994,2.6229,2.6068,2.7034,2.774,2.774,2.774,2.779,2.7955,2.7905,2.7905,2.784,2.774,2.7675,2.7625,2.749,2.719,2.6666,2.6366,2.5708,2.4684,2.4356,2.4223,2.4208,2.4276,2.4302,2.4302,2.4302,2.4302,2.4302,2.4302,2.4302,2.4302,2.4302,2.4302,2.4302,2.4302,2.381,2.3025,2.2486,2.1815,2.112,2.1198,2.1229,2.1323,2.2044,2.1899,2.1432,2.146,2.1308,2.1055,2.0777,2.0744,2.086,2.1119,2.099,2.086,2.1119,2.1183,2.1119,2.086,2.1087,2.1339,2.1293,2.1432,2.1658,2.1965,2.2108,2.2226,2.2388,2.2456,2.2512,2.2538,2.2669,2.2855,2.3165,2.3189,2.3305,2.3671,2.3837,2.3996,2.4133,2.4321,2.4461,2.4561,2.452,2.4337,2.3979,2.4341,2.4343,2.3965,2.4523,2.3704,2.1509,2.1615,2.121,2.038,2.0396,2.0396,2.0399,2.0328,2.034,2.0404,2.0383,2.0395,2.0409,2.0451,2.0486,2.0486,2.0482,2.0506,2.0508,2.7556,2.7121,2.6546,2.6042,2.6439,2.6794,2.6671,2.7343,2.7905,2.7905,2.7905,2.7955,2.8103,2.8054,2.8005,2.7989,2.794,2.789,2.779,2.774,2.7525,2.7081,2.6816,2.6417,2.5863,2.5392,2.4851,2.4234,2.4261,2.4302,2.4302,2.4302,2.4302,2.4302,2.4302,2.4302,2.4302,2.4302,2.4302,2.4302,2.4302,2.3902,2.3255,2.2902,2.2347,2.1781,2.1775,2.1818,2.1899,2.236,2.2186,2.1807,2.1836,2.1675,2.1448,2.1182,2.1198,2.1324,2.1495,2.1417,2.1324,2.154,2.1675,2.1658,2.1198,2.1401,2.1675,2.1675,2.1878,2.2091,2.2313,2.2493,2.266,2.2773,2.2833,2.2875,2.3,2.3098,2.3224,2.35,2.3544,2.3649,2.3917,2.4036,2.4152,2.4284,2.4356,2.4495,2.4685,2.4412,2.4308,2.4465,2.4564,2.4619,2.463,2.5164,2.4543,2.2786,2.2888,2.2272,2.1016,2.1025,2.0817,2.0439,2.0379,2.0396,2.0439,2.0415,2.0426,2.045,2.0484,2.0508,2.0508,2.0494,2.0495,2.05,2.7773,2.7379,2.6911,2.6802,2.7169,2.7391,2.7281,2.7669,2.8005,2.8005,2.8005,2.8103,2.8235,2.8103,2.8103,2.8186,2.8186,2.8103,2.802,2.7905,2.779,2.7675,2.7263,2.6965,2.6859,2.655,2.5724,2.4445,2.4487,2.4425,2.4302,2.4302,2.4302,2.4302,2.4302,2.4302,2.4302,2.4302,2.4302,2.4302,2.4302,2.3979,2.3456,2.3332,2.2948,2.2461,2.2332,2.2363,2.2432,2.2487,2.2371,2.2181,2.2153,2.1982,2.184,2.1688,2.1705,2.1811,2.1869,2.184,2.184,2.194,2.2136,2.2175,2.1688,2.1823,2.2027,2.2068,2.233,2.2556,2.2599,2.2867,2.3119,2.3151,2.3175,2.3271,2.3544,2.3611,2.3682,2.3837,2.3878,2.3958,2.4113,2.4134,2.4266,2.4478,2.4444,2.4543,2.4883,2.4227,2.43,2.5273,2.4648,2.4617,2.5311,2.5437,2.5127,2.4444,2.4502,2.3625,2.1935,2.194,2.1483,2.0709,2.0658,2.0593,2.0509,2.0448,2.0453,2.0521,2.0521,2.0522,2.0522,2.0505,2.0486,2.0469,2.8451,2.799,2.7583,2.752,2.7565,2.7501,2.7391,2.7824,2.8186,2.8186,2.8186,2.8235,2.8348,2.8235,2.8186,2.8186,2.8103,2.8005,2.802,2.7955,2.7955,2.7955,2.7879,2.7595,2.7145,2.7086,2.6428,2.5081,2.5152,2.4887,2.4302,2.4302,2.4302,2.4302,2.4302,2.4302,2.4302,2.4302,2.4302,2.4302,2.4302,2.4256,2.4102,2.3517,2.324,2.3111,2.2508,2.2377,2.2487,2.2552,2.2605,2.2561,2.2292,2.2164,2.2096,2.184,2.1781,2.184,2.2096,2.201,2.194,2.2192,2.233,2.2395,2.2368,2.2473,2.2561,2.2385,2.2581,2.2825,2.3003,2.3052,2.3193,2.3412,2.3491,2.3646,2.3876,2.4018,2.4115,2.4154,2.421,2.4247,2.4266,2.4393,2.4461,2.4495,2.47,2.4842,2.4904,2.4903,2.5018,2.5303,2.5139,2.5168,2.5379,2.539,2.5401,2.5415,2.542,2.4542,2.2906,2.2909,2.2438,2.1627,2.1616,2.1191,2.05,2.0485,2.0527,2.0584,2.0581,2.0599,2.0578,2.0519,2.0464,2.0386,2.8587,2.8383,2.832,2.8657,2.8349,2.8187,2.8448,2.8423,2.8299,2.8299,2.8299,2.8348,2.8411,2.8348,2.8429,2.8685,2.8317,2.8235,2.851,2.8186,2.802,2.802,2.8054,2.8,2.7743,2.7839,2.7379,2.6442,2.5659,2.5164,2.4856,2.4487,2.4302,2.4302,2.4302,2.4302,2.4302,2.4302,2.4302,2.4302,2.4302,2.4302,2.4287,2.406,2.3968,2.3887,2.3237,2.3084,2.3117,2.2733,2.2632,2.2685,2.2517,2.249,2.2463,2.2326,2.2298,2.2343,2.2463,2.2436,2.2436,2.2581,2.2686,2.2738,2.279,2.2859,2.2902,2.2816,2.2884,2.2977,2.3077,2.3095,2.3175,2.3458,2.3531,2.3646,2.3955,2.4039,2.4135,2.4229,2.4284,2.4321,2.4392,2.4461,2.4559,2.4716,2.4832,2.4936,2.5061,2.5154,2.5255,2.535,2.5365,2.5398,2.5468,2.5456,2.5506,2.56,2.56,2.4982,2.3823,2.3834,2.3352,2.2504,2.2014,2.159,2.1187,2.0702,2.0547,2.0601,2.0598,2.0588,2.0547,2.051,2.0426,2.0313]}]]